[[{"header":{"parameterUnit":"m.s-1","parameterCategory":1,"la1":31.0,"la2":29.5877,"lo1":-88.7671,"lo2":-86.6584,"dx":0.0162,"dy":0.0185,"nx":115,"ny":88,"refTime":"2023-01-15T06:00:00:Z","depth":0,"parameterNumber":2,"parameterNumberName":"U-component_of_WINDS"},"data":[0.0,0.0,0.0,0.0,0.0,0.0,0.0,0.0,0.0,0.0,0.0,0.0,0.0,0.0,0.0,0.0,0.0,0.0,0.0,0.0,0.0,0.0,0.0,0.0,0.0,0.0,0.0,0.0,0.0,0.0,0.0,0.0,0.0,0.0,0.0,0.0,0.0,0.0,0.0,0.0,0.0,0.0,0.0,0.0,0.0,0.0,0.0,0.0,0.0,0.0,0.0,0.0,0.0,0.0,0.0,0.0,0.0,0.0,0.0,0.0,0.0,0.0,0.0,0.0,0.0,0.0,0.0,0.0,0.0,0.0,0.0,0.0,0.0,0.0,0.0,0.0,0.0,0.0,0.0,0.0,0.0,0.0,0.0,0.0,0.0,0.0,0.0,0.0,0.0,0.0,0.0,0.0,0.0,0.0,0.0,0.0,0.0,0.0,0.0,0.0,0.0,0.0,0.0,0.0,0.0,0.0,0.0,0.0,0.0,0.0,0.0,0.0,0.0,0.0,0.0,0.0,0.0,0.0,0.0,0.0,0.0,0.0,0.0,0.0,0.0,0.0,0.0,0.0,0.0,0.0,0.0,0.0,0.0,0.0,0.0,0.0,0.0,0.0,0.0,0.0,0.0,0.0,0.0,0.0,0.0,0.0,0.0,0.0,0.0,0.0,0.0,0.0,0.0,0.0,0.0,0.0,0.0,0.0,0.0,0.0,0.0,0.0,0.0,0.0,0.0,0.0,0.0,0.0,0.0,0.0,0.0,0.0,0.0,0.0,0.0,0.0,0.0,0.0,0.0,0.0,0.0,0.0,0.0,0.0,0.0,0.0,0.0,0.0,0.0,0.0,0.0,0.0,0.0,0.0,0.0,0.0,0.0,0.0,0.0,0.0,0.0,0.0,0.0,0.0,0.0,0.0,0.0,0.0,0.0,0.0,0.0,0.0,0.0,0.0,0.0,0.0,0.0,0.0,0.0,0.0,0.0,0.0,0.0,0.0,0.0,0.0,0.0,0.0,0.0,0.0,0.0,0.0,0.0,0.0,0.0,0.0,0.0,0.0,0.0,0.0,0.0,0.0,0.0,0.0,0.0,0.0,0.0,0.0,0.0,0.0,0.0,0.0,0.0,0.0,0.0,0.0,0.0,0.0,0.0,0.0,0.0,0.0,0.0,0.0,0.0,0.0,0.0,0.0,0.0,0.0,0.0,0.0,0.0,0.0,0.0,0.0,0.0,0.0,0.0,0.0,0.0,0.0,0.0,0.0,0.0,0.0,0.0,0.0,0.0,0.0,0.0,0.0,0.0,0.0,0.0,0.0,0.0,0.0,0.0,0.0,0.0,0.0,0.0,0.0,0.0,0.0,0.0,0.0,0.0,0.0,0.0,0.0,0.0,0.0,0.0,0.0,0.0,0.0,0.0,0.0,0.0,0.0,0.0,0.0,0.0,0.0,0.0,0.0,0.0,0.0,0.0,0.0,0.0,0.0,0.0,0.0,0.0,0.0,0.0,0.0,0.0,0.0,0.0,0.0,0.0,0.0,0.0,0.0,0.0,0.0,0.0,0.0,0.0,0.0,0.0,0.0,0.0,0.0,0.0,0.0,0.0,0.0,0.0,0.0,0.0,0.0,0.0,0.0,0.0,0.0,0.0,0.0,0.0,0.0,0.0,0.0,0.0,0.0,0.0,0.0,0.0,0.0,0.0,0.0,0.0,0.0,0.0,0.0,0.0,0.0,0.0,0.0,0.0,0.0,0.0,0.0,0.0,0.0,0.0,0.0,0.0,0.0,0.0,0.0,0.0,0.0,0.0,0.0,0.0,0.0,0.0,0.0,0.0,0.0,0.0,0.0,0.0,0.0,0.0,0.0,0.0,0.0,0.0,0.0,0.0,0.0,0.0,0.0,0.0,0.0,0.0,0.0,0.0,0.0,0.0,0.0,0.0,0.0,0.0,0.0,0.0,0.0,0.0,0.0,0.0,0.0,0.0,0.0,0.0,0.0,0.0,0.0,0.0,0.0,0.0,0.0,0.0,0.0,0.0,0.0,0.0,0.0,0.0,0.0,0.0,0.0,0.0,0.0,0.0,0.0,0.0,0.0,0.0,0.0,0.0,0.0,0.0,0.0,0.0,0.0,0.0,0.0,0.0,0.0,0.0,0.0,0.0,0.0,0.0,0.0,0.0,0.0,0.0,0.0,0.0,0.0,0.0,0.0,0.0,0.0,0.0,0.0,0.0,0.0,0.0,0.0,0.0,0.0,0.0,0.0,0.0,0.0,0.0,0.0,0.0,0.0,0.0,0.0,0.0,0.0,0.0,0.0,0.0,0.0,0.0,0.0,0.0,0.0,0.0,0.0,0.0,0.0,0.0,0.0,0.0,0.0,0.0,0.0,0.0,0.0,0.0,0.0,0.0,0.0,0.0,0.0,0.0,0.0,0.0,0.0,0.0,0.0,0.0,0.0,0.0,0.0,0.0,0.0,0.0,0.0,0.0,0.0,0.0,0.0,0.0,0.0,0.0,0.0,0.0,0.0,0.0,0.0,0.0,0.0,0.0,0.0,0.0,0.0,0.0,0.0,0.0,0.0,0.0,0.0,0.0,0.0,0.0,0.0,0.0,0.0,0.0,0.0,0.0,0.0,0.0,0.0,0.0,0.0,0.0,0.0,0.0,0.0,0.0,0.0,0.0,0.0,0.0,0.0,0.0,0.0,0.0,0.0,0.0,0.0,0.0,0.0,0.0,0.0,0.0,0.0,0.0,0.0,0.0,0.0,0.0,0.0,0.0,0.0,0.0,0.0,0.0,0.0,0.0,0.0,0.0,0.0,0.0,0.0,0.0,0.0,0.0,0.0,0.0,0.0,0.0,0.0,0.0,0.0,0.0,0.0,0.0,0.0,0.0,0.0,0.0,0.0,0.0,0.0,0.0,0.0,0.0,0.0,0.0,0.0,0.0,0.0,0.0,0.0,0.0,0.0,0.0,0.0,0.0,0.0,0.0,0.0,0.0,0.0,0.0,0.0,0.0,0.0,0.0,0.0,0.0,0.0,0.0,0.0,0.0,0.0,0.0,0.0,0.0,0.0,0.0,0.0,0.0,0.0,0.0,0.0,0.0,0.0,0.0,0.0,0.0,0.0,0.0,0.0,0.0,0.0,0.0,0.0,0.0,0.0,0.0,0.0,0.0,0.0,0.0,0.0,0.0,0.0,0.0,0.0,0.0,0.0,0.0,0.0,0.0,0.0,0.0,0.0,0.0,0.0,0.0,0.0,0.0,0.0,0.0,0.0,0.0,0.0,0.0,0.0,0.0,0.0,0.0,0.0,0.0,0.0,0.0,0.0,0.0,0.0,0.0,0.0,0.0,0.0,0.0,0.0,0.0,0.0,0.0,0.0,0.0,0.0,0.0,0.0,0.0,0.0,0.0,0.0,0.0,0.0,0.0,0.0,0.0,0.0,0.0,0.0,0.0,0.0,0.0,0.0,0.0,0.0,0.0,0.0,0.0,0.0,0.0,0.0,0.0,0.0,0.0,0.0,0.0,0.0,0.0,0.0,0.0,0.0,0.0,0.0,0.0,0.0,0.0,0.0,0.0,0.0,0.0,0.0,0.0,0.0,0.0,0.0,0.0,0.0,0.0,0.0,0.0,0.0,0.0,0.0,0.0,0.0,0.0,0.0,0.0,0.0,0.0,0.0,0.0,0.0,0.0,0.0,0.0,0.0,0.0,0.0,0.0,0.0,0.0,0.0,0.0,0.0,0.0,0.0,0.0,0.0,0.0,0.0,0.0,0.0,0.0,0.0,0.0,0.0,0.0,0.0,0.0,0.0,0.0,0.0,0.0,0.0,0.0,0.0,0.0,0.0,0.0,0.0,0.0,0.0,0.0,0.0,0.0,0.0,0.0,0.0,0.0,0.0,0.0,0.0,0.0,0.0,0.0,0.0,0.0,0.0,0.0,0.0,0.0,0.0,0.0,0.0,0.0,0.0,0.0,0.0,0.0,0.0,0.0,0.0,0.0,0.0,0.0,0.0,0.0,0.0,0.0,0.0,0.0,0.0,0.0,0.0,0.0,0.0,0.0,0.0,0.0,0.0,0.0,0.0,0.0,0.0,0.0,0.0,0.0,0.0,0.0,0.0,0.0,0.0,0.0,0.0,0.0,0.0,0.0,0.0,0.0,0.0,0.0,0.0,0.0,0.0,0.0,0.0,0.0,0.0,0.0,0.0,0.0,0.0,0.0,0.0,0.0,0.0,0.0,0.0,0.0,0.0,0.0,0.0,0.0,0.0,-1.9235,0.0,0.0,0.0,0.0,0.0,0.0,0.0,0.0,0.0,0.0,0.0,0.0,0.0,0.0,0.0,0.0,0.0,0.0,0.0,0.0,0.0,0.0,0.0,0.0,0.0,0.0,0.0,0.0,0.0,0.0,0.0,0.0,0.0,0.0,0.0,0.0,0.0,0.0,0.0,0.0,0.0,0.0,0.0,0.0,0.0,0.0,0.0,0.0,0.0,0.0,0.0,0.0,0.0,0.0,0.0,0.0,0.0,0.0,0.0,0.0,0.0,0.0,0.0,0.0,0.0,0.0,0.0,0.0,0.0,0.0,0.0,0.0,0.0,0.0,0.0,0.0,0.0,0.0,0.0,0.0,0.0,0.0,0.0,0.0,0.0,0.0,0.0,0.0,0.0,0.0,0.0,0.0,0.0,0.0,0.0,0.0,0.0,0.0,0.0,0.0,0.0,0.0,0.0,0.0,0.0,0.0,0.0,0.0,0.0,0.0,-1.881,-1.881,-1.8972,-1.9078,-1.9078,0.0,0.0,0.0,0.0,0.0,0.0,0.0,0.0,0.0,0.0,0.0,0.0,0.0,0.0,0.0,0.0,0.0,0.0,0.0,0.0,0.0,0.0,0.0,0.0,0.0,0.0,0.0,0.0,0.0,0.0,0.0,0.0,0.0,0.0,0.0,0.0,0.0,0.0,0.0,0.0,0.0,0.0,0.0,0.0,0.0,0.0,0.0,0.0,0.0,0.0,0.0,0.0,0.0,0.0,0.0,0.0,0.0,0.0,0.0,0.0,0.0,0.0,0.0,0.0,0.0,0.0,0.0,0.0,0.0,0.0,0.0,0.0,0.0,0.0,0.0,0.0,0.0,0.0,0.0,0.0,0.0,0.0,0.0,0.0,0.0,0.0,0.0,0.0,0.0,0.0,0.0,0.0,0.0,0.0,0.0,0.0,0.0,0.0,0.0,0.0,0.0,0.0,0.0,0.0,0.0,0.0,0.0,0.0,0.0,0.0,0.0,0.0,-1.8964,-1.8972,-1.8999,0.0,0.0,0.0,0.0,0.0,0.0,0.0,0.0,0.0,0.0,0.0,0.0,0.0,0.0,0.0,0.0,0.0,0.0,0.0,0.0,0.0,0.0,0.0,0.0,0.0,0.0,0.0,0.0,0.0,0.0,0.0,0.0,0.0,0.0,0.0,0.0,0.0,0.0,0.0,0.0,0.0,0.0,0.0,0.0,0.0,0.0,0.0,0.0,0.0,0.0,0.0,0.0,0.0,0.0,0.0,0.0,0.0,0.0,0.0,0.0,0.0,0.0,0.0,0.0,0.0,0.0,0.0,0.0,0.0,0.0,0.0,0.0,0.0,0.0,0.0,0.0,0.0,0.0,0.0,0.0,0.0,0.0,0.0,0.0,0.0,0.0,0.0,0.0,0.0,0.0,0.0,0.0,0.0,0.0,0.0,0.0,0.0,0.0,0.0,0.0,0.0,0.0,0.0,0.0,0.0,0.0,0.0,0.0,0.0,0.0,-1.8725,-1.9305,-1.8993,0.0,-1.8999,0.0,0.0,0.0,0.0,0.0,0.0,0.0,0.0,0.0,0.0,0.0,0.0,0.0,0.0,0.0,0.0,0.0,0.0,0.0,0.0,0.0,0.0,0.0,0.0,0.0,0.0,0.0,0.0,0.0,0.0,0.0,0.0,0.0,0.0,0.0,0.0,0.0,0.0,0.0,0.0,0.0,0.0,0.0,0.0,0.0,0.0,0.0,0.0,0.0,0.0,0.0,0.0,0.0,0.0,0.0,0.0,0.0,0.0,0.0,0.0,0.0,0.0,0.0,0.0,0.0,0.0,0.0,0.0,0.0,0.0,0.0,0.0,0.0,0.0,0.0,0.0,0.0,0.0,0.0,0.0,0.0,0.0,0.0,0.0,0.0,0.0,0.0,0.0,0.0,0.0,0.0,0.0,0.0,0.0,0.0,0.0,0.0,0.0,0.0,0.0,0.0,0.0,0.0,0.0,0.0,0.0,0.0,0.0,0.0,0.0,-1.9246,-1.9511,-1.9805,-1.9927,0.0,0.0,0.0,0.0,0.0,0.0,0.0,0.0,0.0,0.0,0.0,0.0,0.0,0.0,0.0,0.0,0.0,0.0,0.0,0.0,0.0,0.0,0.0,0.0,0.0,0.0,0.0,0.0,0.0,0.0,0.0,0.0,0.0,0.0,0.0,0.0,0.0,0.0,0.0,0.0,0.0,0.0,0.0,0.0,0.0,0.0,0.0,0.0,0.0,0.0,0.0,0.0,0.0,0.0,0.0,0.0,0.0,0.0,0.0,0.0,0.0,0.0,0.0,0.0,0.0,0.0,0.0,0.0,0.0,0.0,0.0,0.0,0.0,0.0,0.0,0.0,0.0,0.0,0.0,0.0,0.0,0.0,0.0,0.0,0.0,0.0,0.0,0.0,0.0,0.0,0.0,0.0,0.0,0.0,0.0,0.0,0.0,0.0,0.0,0.0,0.0,0.0,0.0,0.0,0.0,0.0,0.0,0.0,0.0,0.0,-1.9353,-1.9754,-1.9977,-2.0738,-2.0962,-2.0508,0.0,0.0,0.0,0.0,0.0,0.0,0.0,0.0,0.0,0.0,0.0,0.0,0.0,0.0,0.0,0.0,0.0,0.0,0.0,0.0,0.0,0.0,0.0,0.0,0.0,0.0,0.0,0.0,0.0,0.0,0.0,0.0,0.0,0.0,0.0,0.0,0.0,0.0,0.0,0.0,0.0,0.0,0.0,0.0,0.0,0.0,0.0,0.0,0.0,0.0,0.0,0.0,0.0,0.0,0.0,0.0,0.0,0.0,0.0,0.0,0.0,0.0,0.0,0.0,0.0,0.0,0.0,0.0,0.0,0.0,0.0,0.0,0.0,0.0,0.0,0.0,0.0,0.0,0.0,0.0,0.0,0.0,0.0,0.0,0.0,0.0,0.0,0.0,0.0,0.0,0.0,0.0,0.0,0.0,0.0,0.0,0.0,0.0,0.0,0.0,0.0,0.0,0.0,0.0,0.0,0.0,0.0,0.0,0.0,-1.9793,-2.0145,-2.0848,-2.1621,-2.1791,0.0,0.0,0.0,0.0,0.0,0.0,0.0,0.0,0.0,0.0,0.0,0.0,0.0,0.0,0.0,0.0,0.0,0.0,0.0,0.0,0.0,0.0,0.0,0.0,0.0,0.0,0.0,0.0,0.0,0.0,0.0,0.0,0.0,0.0,0.0,0.0,0.0,0.0,0.0,0.0,0.0,0.0,0.0,0.0,0.0,0.0,0.0,0.0,0.0,0.0,0.0,0.0,0.0,0.0,0.0,0.0,0.0,0.0,0.0,0.0,0.0,0.0,0.0,0.0,0.0,0.0,0.0,0.0,0.0,0.0,0.0,0.0,0.0,0.0,0.0,0.0,0.0,0.0,0.0,0.0,0.0,0.0,0.0,0.0,0.0,0.0,0.0,0.0,0.0,0.0,0.0,0.0,0.0,0.0,0.0,0.0,0.0,0.0,0.0,0.0,0.0,0.0,0.0,0.0,0.0,0.0,0.0,0.0,0.0,-2.0232,-2.0835,-2.1476,-2.2164,-2.2541,-2.2569,0.0,0.0,0.0,0.0,0.0,0.0,0.0,0.0,0.0,0.0,0.0,0.0,0.0,0.0,0.0,0.0,0.0,0.0,0.0,0.0,0.0,0.0,0.0,0.0,0.0,0.0,0.0,0.0,0.0,0.0,0.0,0.0,0.0,0.0,0.0,0.0,0.0,0.0,0.0,0.0,0.0,0.0,0.0,0.0,0.0,0.0,0.0,0.0,0.0,0.0,0.0,0.0,0.0,0.0,0.0,0.0,0.0,0.0,0.0,0.0,0.0,0.0,0.0,0.0,0.0,0.0,0.0,0.0,0.0,0.0,0.0,0.0,0.0,0.0,0.0,0.0,0.0,0.0,0.0,0.0,0.0,0.0,0.0,0.0,0.0,0.0,0.0,0.0,0.0,0.0,0.0,0.0,0.0,0.0,0.0,0.0,0.0,0.0,0.0,0.0,0.0,0.0,0.0,0.0,0.0,0.0,0.0,0.0,0.0,-2.1162,0.0,-2.2536,-2.3035,-2.315,-2.3153,0.0,0.0,0.0,0.0,0.0,0.0,0.0,0.0,0.0,0.0,0.0,0.0,0.0,0.0,0.0,0.0,0.0,0.0,0.0,0.0,0.0,0.0,0.0,0.0,0.0,0.0,0.0,0.0,0.0,0.0,0.0,0.0,0.0,0.0,0.0,0.0,0.0,0.0,0.0,0.0,0.0,0.0,0.0,0.0,0.0,0.0,0.0,0.0,0.0,0.0,0.0,0.0,0.0,0.0,0.0,0.0,0.0,0.0,0.0,0.0,0.0,0.0,0.0,0.0,0.0,0.0,0.0,0.0,0.0,0.0,0.0,0.0,0.0,0.0,0.0,0.0,0.0,0.0,0.0,0.0,0.0,0.0,0.0,0.0,0.0,0.0,0.0,0.0,0.0,0.0,0.0,0.0,0.0,0.0,0.0,0.0,0.0,0.0,0.0,0.0,0.0,0.0,0.0,0.0,0.0,0.0,0.0,0.0,-2.1762,-2.2556,-2.2963,-2.3261,-2.3441,-2.3441,-2.3624,0.0,0.0,0.0,0.0,0.0,0.0,0.0,0.0,0.0,0.0,0.0,0.0,0.0,0.0,0.0,0.0,0.0,0.0,0.0,0.0,0.0,0.0,0.0,0.0,0.0,0.0,0.0,0.0,0.0,0.0,0.0,0.0,0.0,0.0,0.0,0.0,0.0,0.0,0.0,0.0,0.0,0.0,0.0,0.0,0.0,0.0,0.0,0.0,0.0,0.0,0.0,0.0,0.0,0.0,0.0,0.0,0.0,0.0,0.0,0.0,0.0,0.0,0.0,0.0,0.0,0.0,0.0,0.0,0.0,0.0,0.0,0.0,0.0,0.0,0.0,0.0,0.0,0.0,0.0,0.0,0.0,0.0,0.0,0.0,0.0,0.0,0.0,0.0,0.0,0.0,0.0,0.0,0.0,0.0,0.0,0.0,0.0,0.0,0.0,0.0,0.0,0.0,0.0,0.0,0.0,0.0,0.0,0.0,0.0,-2.3372,-2.4203,-2.4657,-2.4719,-2.4519,-2.4524,0.0,0.0,0.0,0.0,0.0,0.0,0.0,0.0,0.0,0.0,0.0,0.0,0.0,0.0,0.0,0.0,0.0,0.0,0.0,0.0,0.0,0.0,0.0,0.0,0.0,0.0,0.0,0.0,0.0,0.0,0.0,0.0,0.0,0.0,0.0,0.0,0.0,0.0,0.0,0.0,0.0,0.0,0.0,0.0,0.0,0.0,0.0,0.0,0.0,0.0,0.0,0.0,0.0,0.0,0.0,0.0,0.0,0.0,0.0,0.0,0.0,0.0,0.0,0.0,0.0,0.0,0.0,0.0,0.0,0.0,0.0,0.0,0.0,0.0,0.0,0.0,0.0,0.0,0.0,0.0,0.0,0.0,0.0,0.0,0.0,0.0,0.0,0.0,0.0,0.0,0.0,0.0,0.0,0.0,0.0,0.0,0.0,0.0,0.0,0.0,0.0,0.0,0.0,0.0,0.0,0.0,0.0,0.0,0.0,-2.6008,-2.5892,-2.5858,-2.5921,-2.5746,-2.5507,-2.5206,0.0,0.0,0.0,0.0,0.0,0.0,0.0,0.0,0.0,0.0,0.0,0.0,0.0,0.0,0.0,0.0,0.0,0.0,0.0,0.0,0.0,0.0,0.0,0.0,0.0,0.0,0.0,0.0,0.0,0.0,0.0,0.0,0.0,0.0,0.0,0.0,0.0,0.0,0.0,0.0,0.0,0.0,0.0,0.0,0.0,0.0,0.0,0.0,0.0,0.0,0.0,0.0,0.0,0.0,0.0,0.0,0.0,0.0,0.0,0.0,0.0,0.0,0.0,0.0,0.0,0.0,0.0,0.0,0.0,0.0,0.0,0.0,0.0,0.0,0.0,0.0,0.0,0.0,0.0,0.0,0.0,0.0,0.0,0.0,0.0,0.0,0.0,0.0,0.0,0.0,0.0,0.0,0.0,0.0,0.0,0.0,0.0,0.0,0.0,0.0,0.0,0.0,0.0,0.0,0.0,0.0,0.0,0.0,-3.0069,-2.8222,-2.7273,-2.729,-2.7211,-2.6752,0.0,0.0,0.0,0.0,0.0,0.0,0.0,0.0,0.0,0.0,0.0,0.0,0.0,0.0,0.0,0.0,0.0,0.0,0.0,0.0,0.0,0.0,0.0,0.0,0.0,0.0,0.0,0.0,0.0,0.0,0.0,0.0,0.0,0.0,0.0,0.0,0.0,0.0,0.0,0.0,0.0,0.0,0.0,0.0,0.0,0.0,0.0,0.0,0.0,0.0,0.0,0.0,0.0,0.0,0.0,0.0,0.0,0.0,0.0,0.0,0.0,0.0,0.0,0.0,0.0,0.0,0.0,0.0,0.0,0.0,0.0,0.0,0.0,0.0,0.0,0.0,0.0,0.0,0.0,0.0,0.0,0.0,0.0,0.0,0.0,0.0,0.0,0.0,0.0,0.0,0.0,0.0,0.0,0.0,0.0,0.0,0.0,0.0,0.0,0.0,0.0,0.0,0.0,0.0,0.0,0.0,0.0,0.0,0.0,-3.2317,-3.2368,-3.1764,-3.0542,-2.9706,-2.863,0.0,0.0,0.0,0.0,0.0,0.0,0.0,0.0,0.0,0.0,0.0,0.0,0.0,0.0,0.0,0.0,0.0,0.0,0.0,0.0,0.0,0.0,0.0,0.0,0.0,0.0,0.0,0.0,0.0,0.0,0.0,0.0,0.0,0.0,0.0,0.0,0.0,0.0,0.0,0.0,0.0,0.0,0.0,0.0,0.0,0.0,0.0,0.0,0.0,0.0,0.0,0.0,0.0,0.0,0.0,0.0,0.0,0.0,0.0,0.0,0.0,0.0,0.0,0.0,0.0,0.0,0.0,0.0,0.0,0.0,0.0,0.0,0.0,0.0,0.0,0.0,0.0,0.0,0.0,0.0,0.0,0.0,0.0,0.0,0.0,0.0,0.0,0.0,0.0,0.0,0.0,0.0,0.0,0.0,0.0,0.0,0.0,0.0,0.0,0.0,0.0,0.0,0.0,0.0,0.0,0.0,0.0,0.0,-3.2652,-3.4825,-3.5508,-3.537,-3.4381,-3.2416,-3.0533,0.0,0.0,0.0,0.0,0.0,0.0,0.0,0.0,0.0,0.0,0.0,0.0,0.0,0.0,0.0,0.0,0.0,0.0,0.0,0.0,0.0,0.0,0.0,0.0,0.0,0.0,0.0,0.0,0.0,0.0,0.0,0.0,0.0,0.0,0.0,0.0,0.0,0.0,0.0,0.0,0.0,0.0,0.0,0.0,0.0,0.0,0.0,0.0,0.0,0.0,0.0,0.0,0.0,0.0,0.0,0.0,0.0,0.0,0.0,0.0,0.0,0.0,0.0,0.0,0.0,0.0,0.0,0.0,0.0,0.0,0.0,0.0,0.0,0.0,0.0,0.0,0.0,0.0,0.0,0.0,0.0,0.0,0.0,0.0,0.0,0.0,0.0,0.0,0.0,0.0,0.0,0.0,0.0,0.0,0.0,0.0,0.0,0.0,0.0,0.0,0.0,0.0,0.0,0.0,0.0,0.0,0.0,0.0,-3.4681,-3.7163,-3.7887,-3.8205,-3.811,-3.4994,-3.2332,0.0,0.0,0.0,0.0,0.0,0.0,0.0,0.0,0.0,0.0,0.0,0.0,0.0,0.0,0.0,0.0,0.0,0.0,0.0,0.0,0.0,0.0,0.0,0.0,0.0,0.0,0.0,0.0,0.0,0.0,0.0,0.0,0.0,0.0,0.0,0.0,0.0,0.0,0.0,0.0,0.0,0.0,0.0,0.0,0.0,0.0,0.0,0.0,0.0,0.0,0.0,0.0,0.0,0.0,0.0,0.0,0.0,0.0,0.0,0.0,0.0,0.0,0.0,0.0,0.0,0.0,0.0,0.0,0.0,0.0,0.0,0.0,0.0,0.0,0.0,0.0,0.0,0.0,0.0,0.0,0.0,0.0,0.0,0.0,0.0,0.0,0.0,0.0,0.0,0.0,0.0,0.0,0.0,0.0,0.0,0.0,0.0,0.0,0.0,0.0,0.0,0.0,0.0,0.0,0.0,0.0,0.0,0.0,-3.7103,-3.867,-3.935,-3.9638,-3.9638,-3.6245,-3.3407,0.0,0.0,0.0,0.0,0.0,0.0,0.0,0.0,0.0,0.0,0.0,0.0,0.0,0.0,0.0,0.0,0.0,0.0,0.0,0.0,0.0,0.0,0.0,0.0,0.0,0.0,0.0,0.0,0.0,0.0,0.0,0.0,0.0,0.0,0.0,0.0,0.0,0.0,0.0,0.0,0.0,0.0,0.0,0.0,0.0,0.0,0.0,0.0,-1.9318,0.0,0.0,0.0,0.0,0.0,0.0,0.0,0.0,0.0,0.0,0.0,0.0,0.0,0.0,0.0,0.0,0.0,0.0,0.0,0.0,0.0,0.0,0.0,0.0,0.0,0.0,0.0,0.0,0.0,0.0,0.0,0.0,0.0,0.0,0.0,0.0,0.0,0.0,0.0,0.0,0.0,0.0,0.0,0.0,0.0,0.0,0.0,0.0,0.0,0.0,0.0,0.0,0.0,0.0,0.0,0.0,0.0,0.0,0.0,-3.8811,-4.0651,-4.1002,-4.1032,-4.0636,-3.782,-3.5154,0.0,0.0,0.0,0.0,0.0,0.0,0.0,0.0,0.0,0.0,0.0,0.0,0.0,0.0,0.0,0.0,0.0,0.0,0.0,0.0,0.0,0.0,0.0,0.0,0.0,0.0,0.0,0.0,0.0,0.0,0.0,0.0,0.0,0.0,0.0,0.0,0.0,0.0,0.0,0.0,0.0,0.0,0.0,0.0,0.0,0.0,0.0,0.0,0.0,0.0,0.0,0.0,0.0,0.0,0.0,0.0,0.0,0.0,0.0,0.0,0.0,0.0,0.0,0.0,0.0,0.0,0.0,0.0,0.0,0.0,0.0,0.0,0.0,0.0,0.0,0.0,0.0,0.0,0.0,0.0,0.0,0.0,0.0,0.0,0.0,0.0,0.0,0.0,0.0,0.0,0.0,0.0,0.0,0.0,0.0,0.0,0.0,0.0,0.0,0.0,0.0,0.0,0.0,0.0,0.0,0.0,0.0,-3.8189,-4.0364,-4.2417,-4.2538,-4.2236,-4.1542,-3.929,-3.6896,-3.453,0.0,0.0,0.0,0.0,0.0,0.0,0.0,0.0,0.0,0.0,0.0,0.0,0.0,0.0,0.0,0.0,0.0,0.0,0.0,0.0,0.0,0.0,0.0,0.0,0.0,0.0,0.0,0.0,0.0,0.0,0.0,0.0,0.0,0.0,0.0,0.0,0.0,0.0,-2.2558,-2.2707,0.0,0.0,0.0,0.0,0.0,0.0,0.0,0.0,-2.392,0.0,0.0,0.0,0.0,0.0,0.0,0.0,0.0,0.0,0.0,0.0,0.0,0.0,0.0,0.0,0.0,0.0,0.0,0.0,0.0,0.0,0.0,0.0,0.0,0.0,0.0,0.0,0.0,0.0,0.0,0.0,0.0,0.0,0.0,0.0,0.0,0.0,0.0,0.0,0.0,0.0,0.0,0.0,0.0,0.0,0.0,0.0,0.0,0.0,0.0,0.0,0.0,0.0,0.0,0.0,0.0,-3.7779,-4.0433,-4.2275,-4.3203,-4.3234,-4.2922,-4.2105,-3.9812,-3.7663,-3.5689,0.0,0.0,0.0,0.0,0.0,0.0,0.0,0.0,0.0,0.0,0.0,0.0,0.0,0.0,0.0,0.0,0.0,0.0,0.0,0.0,0.0,0.0,0.0,0.0,0.0,0.0,0.0,0.0,0.0,0.0,0.0,0.0,0.0,0.0,0.0,0.0,0.0,0.0,0.0,-2.5454,-2.5577,0.0,0.0,0.0,0.0,0.0,0.0,0.0,0.0,-2.5644,0.0,0.0,0.0,0.0,0.0,0.0,0.0,0.0,0.0,0.0,0.0,0.0,0.0,0.0,0.0,0.0,0.0,0.0,0.0,0.0,0.0,0.0,0.0,0.0,0.0,0.0,0.0,0.0,0.0,0.0,0.0,0.0,0.0,0.0,0.0,0.0,0.0,0.0,0.0,0.0,0.0,0.0,0.0,0.0,0.0,0.0,0.0,0.0,0.0,0.0,0.0,0.0,0.0,0.0,0.0,-3.9596,-4.1654,-4.3292,-4.4579,-4.426,-4.3724,-4.3,-4.0653,-3.8428,0.0,0.0,0.0,0.0,0.0,0.0,0.0,0.0,0.0,0.0,0.0,0.0,0.0,0.0,0.0,0.0,0.0,0.0,0.0,0.0,0.0,0.0,0.0,0.0,0.0,0.0,0.0,0.0,0.0,0.0,0.0,0.0,0.0,0.0,0.0,0.0,0.0,0.0,0.0,0.0,-2.8514,-2.8954,-2.8777,0.0,0.0,0.0,0.0,0.0,0.0,-2.8561,-2.8062,0.0,0.0,0.0,0.0,0.0,0.0,0.0,0.0,0.0,0.0,0.0,0.0,0.0,0.0,0.0,0.0,0.0,0.0,0.0,0.0,0.0,0.0,0.0,0.0,0.0,0.0,0.0,0.0,0.0,0.0,0.0,0.0,0.0,0.0,0.0,0.0,0.0,0.0,0.0,0.0,0.0,0.0,0.0,0.0,0.0,0.0,0.0,0.0,0.0,0.0,0.0,0.0,0.0,0.0,0.0,-4.143,-4.2879,-4.4443,-4.6028,-4.5349,-4.4579,-4.3915,-4.168,-3.9438,0.0,0.0,0.0,0.0,0.0,0.0,0.0,0.0,0.0,0.0,0.0,0.0,0.0,0.0,0.0,0.0,0.0,0.0,0.0,0.0,0.0,0.0,0.0,0.0,0.0,0.0,0.0,0.0,0.0,0.0,0.0,0.0,0.0,0.0,0.0,0.0,0.0,0.0,0.0,0.0,0.0,-3.2211,-3.2536,-3.1983,0.0,0.0,0.0,0.0,-3.2263,-3.1705,0.0,0.0,0.0,0.0,0.0,0.0,0.0,0.0,0.0,0.0,0.0,0.0,0.0,0.0,0.0,0.0,0.0,0.0,0.0,0.0,0.0,0.0,0.0,0.0,0.0,0.0,0.0,0.0,0.0,0.0,0.0,0.0,0.0,0.0,0.0,0.0,0.0,0.0,0.0,0.0,0.0,0.0,0.0,0.0,0.0,0.0,0.0,0.0,0.0,0.0,0.0,0.0,0.0,0.0,0.0,0.0,-4.3248,-4.5078,-4.642,-4.7204,-4.6248,-4.5333,-4.4655,-4.3009,-4.0927,0.0,0.0,0.0,0.0,0.0,0.0,0.0,0.0,0.0,0.0,0.0,0.0,0.0,0.0,0.0,0.0,0.0,0.0,0.0,0.0,0.0,0.0,0.0,0.0,0.0,0.0,0.0,0.0,0.0,0.0,0.0,0.0,0.0,0.0,0.0,0.0,0.0,0.0,0.0,0.0,0.0,-3.4847,-3.5804,-3.5317,-3.4964,0.0,0.0,-3.4715,-3.529,-3.5145,0.0,0.0,0.0,0.0,0.0,0.0,0.0,0.0,0.0,0.0,0.0,0.0,0.0,0.0,0.0,0.0,0.0,0.0,0.0,0.0,0.0,0.0,0.0,0.0,0.0,0.0,0.0,0.0,0.0,0.0,0.0,0.0,0.0,0.0,0.0,0.0,0.0,0.0,0.0,0.0,0.0,0.0,0.0,0.0,0.0,0.0,0.0,0.0,0.0,0.0,0.0,0.0,0.0,0.0,0.0,-4.1976,-4.5057,-4.6242,-4.7242,-4.8164,-4.6946,-4.6061,-4.5701,-4.3686,-4.1623,0.0,0.0,0.0,0.0,0.0,0.0,0.0,0.0,0.0,0.0,0.0,0.0,0.0,0.0,0.0,0.0,0.0,0.0,0.0,0.0,0.0,0.0,0.0,0.0,0.0,0.0,0.0,0.0,0.0,0.0,0.0,0.0,0.0,0.0,0.0,0.0,0.0,0.0,0.0,0.0,0.0,0.0,-3.9817,-3.9487,0.0,0.0,0.0,-3.8436,-3.878,0.0,0.0,0.0,0.0,0.0,0.0,0.0,0.0,0.0,0.0,0.0,0.0,0.0,0.0,0.0,0.0,0.0,0.0,0.0,0.0,0.0,0.0,0.0,0.0,0.0,0.0,0.0,0.0,0.0,0.0,0.0,0.0,0.0,0.0,0.0,0.0,0.0,0.0,0.0,0.0,0.0,0.0,0.0,0.0,0.0,0.0,0.0,0.0,0.0,0.0,0.0,0.0,0.0,0.0,0.0,0.0,0.0,-4.6866,-4.7567,-4.8488,-4.966,-4.8332,-4.7539,-4.7375,-4.521,0.0,0.0,0.0,0.0,0.0,0.0,0.0,0.0,0.0,0.0,0.0,0.0,0.0,0.0,0.0,0.0,0.0,0.0,0.0,0.0,0.0,0.0,0.0,0.0,0.0,0.0,0.0,-3.0207,0.0,0.0,0.0,0.0,0.0,0.0,0.0,0.0,0.0,0.0,0.0,0.0,0.0,0.0,-4.1836,-4.3517,-4.3486,-4.3505,0.0,0.0,-4.2023,-4.2182,-4.0748,-3.909,0.0,0.0,0.0,0.0,0.0,0.0,0.0,0.0,0.0,0.0,0.0,0.0,0.0,0.0,0.0,0.0,0.0,0.0,0.0,0.0,0.0,0.0,0.0,0.0,0.0,0.0,0.0,0.0,0.0,0.0,0.0,0.0,0.0,0.0,0.0,0.0,0.0,0.0,0.0,0.0,0.0,0.0,0.0,0.0,0.0,0.0,0.0,0.0,0.0,0.0,0.0,0.0,0.0,0.0,0.0,-4.8512,-4.9581,-5.0796,-5.2225,-5.0893,-5.0159,-5.0192,-4.8563,-4.6483,0.0,0.0,0.0,0.0,0.0,0.0,0.0,0.0,0.0,0.0,0.0,0.0,0.0,0.0,0.0,0.0,0.0,0.0,0.0,0.0,0.0,0.0,0.0,0.0,0.0,0.0,0.0,0.0,0.0,0.0,0.0,0.0,0.0,0.0,0.0,0.0,0.0,0.0,0.0,0.0,0.0,-4.4982,-4.6439,-4.6904,-4.7141,0.0,0.0,-4.518,-4.5175,-4.3687,-4.2181,-4.1122,0.0,0.0,0.0,0.0,0.0,0.0,0.0,0.0,0.0,0.0,0.0,0.0,0.0,0.0,0.0,0.0,0.0,0.0,0.0,0.0,0.0,0.0,0.0,0.0,0.0,0.0,0.0,0.0,0.0,0.0,0.0,0.0,0.0,0.0,0.0,0.0,0.0,0.0,0.0,0.0,0.0,0.0,0.0,0.0,0.0,0.0,0.0,0.0,0.0,0.0,0.0,0.0,0.0,-4.5562,-4.9601,-5.041,-5.1439,-5.2684,-5.1686,-5.1021,-5.0924,-4.9786,-4.8316,0.0,0.0,0.0,0.0,0.0,0.0,0.0,0.0,0.0,0.0,0.0,0.0,0.0,0.0,0.0,0.0,0.0,0.0,0.0,0.0,0.0,0.0,0.0,0.0,0.0,0.0,0.0,0.0,-3.6549,-3.7343,-3.7502,0.0,0.0,0.0,0.0,0.0,0.0,0.0,0.0,0.0,0.0,-4.7367,-4.9591,-4.979,0.0,0.0,-4.9104,-4.8169,-4.747,-4.6218,-4.4779,-4.3217,-4.0642,0.0,0.0,0.0,0.0,0.0,0.0,0.0,0.0,0.0,0.0,0.0,0.0,0.0,0.0,0.0,0.0,0.0,0.0,0.0,0.0,0.0,0.0,0.0,0.0,0.0,0.0,0.0,0.0,0.0,0.0,0.0,0.0,0.0,0.0,0.0,0.0,0.0,0.0,0.0,0.0,0.0,0.0,0.0,0.0,0.0,0.0,0.0,0.0,0.0,0.0,0.0,0.0,-4.6263,-5.0632,-5.1227,-5.2153,-5.3447,-5.2714,-5.2215,-5.2085,-5.1244,-5.02,0.0,0.0,0.0,0.0,0.0,0.0,0.0,0.0,0.0,0.0,0.0,0.0,0.0,0.0,0.0,0.0,0.0,0.0,0.0,0.0,0.0,0.0,0.0,0.0,0.0,0.0,0.0,0.0,-3.8229,-3.8945,-3.8768,0.0,0.0,0.0,0.0,0.0,0.0,0.0,0.0,0.0,0.0,-4.9817,-5.1928,-5.2063,-5.1963,-5.2203,-5.143,-5.0458,-4.9689,-4.8362,-4.6878,-4.5433,0.0,0.0,0.0,0.0,0.0,0.0,0.0,0.0,0.0,0.0,0.0,0.0,0.0,0.0,0.0,0.0,0.0,0.0,0.0,0.0,0.0,0.0,0.0,0.0,0.0,0.0,0.0,0.0,0.0,0.0,-3.7336,0.0,0.0,0.0,0.0,0.0,0.0,0.0,0.0,0.0,0.0,0.0,0.0,0.0,0.0,0.0,0.0,0.0,0.0,0.0,0.0,0.0,0.0,-4.7133,-5.1675,-5.2189,-5.3186,-5.4645,-5.4365,-5.4104,-5.4038,-5.3259,-5.2379,-5.1335,0.0,0.0,0.0,0.0,0.0,0.0,0.0,0.0,0.0,0.0,0.0,0.0,0.0,0.0,0.0,0.0,0.0,0.0,0.0,0.0,0.0,0.0,0.0,0.0,0.0,0.0,-4.0678,-3.975,-3.8995,0.0,0.0,0.0,0.0,0.0,0.0,0.0,0.0,0.0,0.0,-5.073,-5.239,-5.3253,-5.3693,-5.3878,-5.3946,-5.2873,-5.2068,-5.2,-5.002,-4.8353,0.0,0.0,0.0,0.0,0.0,0.0,0.0,0.0,0.0,0.0,0.0,0.0,0.0,0.0,0.0,0.0,0.0,0.0,0.0,0.0,0.0,0.0,0.0,0.0,0.0,0.0,0.0,-4.063,-4.1045,0.0,0.0,0.0,0.0,0.0,0.0,0.0,0.0,0.0,0.0,0.0,-4.8784,-4.8567,0.0,0.0,0.0,0.0,0.0,0.0,0.0,0.0,0.0,0.0,0.0,0.0,-4.7321,-5.171,-5.237,-5.3371,-5.4865,-5.4589,-5.4399,-5.4399,-5.4126,-5.3006,-5.1008,0.0,0.0,0.0,0.0,0.0,0.0,0.0,0.0,0.0,0.0,0.0,0.0,0.0,0.0,0.0,0.0,0.0,0.0,0.0,0.0,0.0,0.0,0.0,0.0,0.0,-4.1745,0.0,0.0,0.0,0.0,0.0,0.0,0.0,0.0,0.0,0.0,0.0,-4.935,-5.1388,-5.2683,-5.3704,-5.4383,-5.4572,-5.4683,0.0,0.0,0.0,0.0,0.0,0.0,0.0,0.0,0.0,0.0,0.0,0.0,0.0,0.0,-4.1843,-3.9414,-3.8708,-3.8472,-3.8405,0.0,0.0,0.0,0.0,0.0,0.0,0.0,0.0,0.0,0.0,0.0,0.0,0.0,0.0,-4.3597,0.0,-4.3493,0.0,0.0,0.0,0.0,0.0,0.0,0.0,0.0,-5.056,-5.1887,-5.2473,-5.2437,-5.2218,0.0,-5.107,-4.9456,0.0,0.0,0.0,0.0,0.0,0.0,0.0,0.0,-4.8591,-5.225,-5.2782,-5.3649,-5.483,-5.462,-5.4494,-5.4494,-5.4494,-5.3607,-5.1699,-4.9889,-4.7444,0.0,0.0,0.0,0.0,0.0,0.0,0.0,0.0,0.0,0.0,0.0,0.0,0.0,0.0,0.0,0.0,0.0,0.0,0.0,0.0,0.0,0.0,0.0,-4.4043,0.0,0.0,0.0,0.0,0.0,0.0,0.0,0.0,0.0,-4.7818,-4.9761,-5.1829,-5.3556,-5.4352,-5.4998,-5.5373,0.0,0.0,0.0,0.0,0.0,0.0,0.0,-5.2477,-5.1172,-5.064,-5.0079,-4.919,-4.8795,-4.8678,-4.8936,0.0,0.0,-4.4257,-4.3404,-4.3196,-4.3049,-4.2524,-4.2216,-4.2569,-4.1967,-4.1627,0.0,0.0,0.0,0.0,0.0,0.0,0.0,0.0,-4.7017,-4.735,0.0,-4.7224,0.0,0.0,0.0,0.0,0.0,-4.7719,0.0,0.0,-5.2899,-5.452,-5.559,-5.5946,-5.6014,-5.57,-5.4832,-5.4444,-5.4127,-4.9422,0.0,0.0,0.0,0.0,0.0,0.0,-5.0865,-5.3155,-5.3525,-5.4048,-5.4845,-5.4692,-5.4598,-5.4598,-5.4598,-5.4253,-5.3494,-5.2547,-5.0725,-4.7962,-4.6076,0.0,0.0,0.0,0.0,0.0,0.0,0.0,0.0,0.0,0.0,0.0,0.0,0.0,0.0,0.0,0.0,0.0,0.0,0.0,0.0,-4.6013,0.0,0.0,0.0,0.0,0.0,0.0,0.0,0.0,0.0,0.0,-5.0916,-5.2738,-5.4401,-5.5187,0.0,0.0,0.0,0.0,-5.5783,-5.5642,-5.5424,-5.5244,-5.4942,-5.4256,-5.3648,-5.3238,0.0,0.0,-5.1255,-5.1464,-5.1859,-5.2348,-5.2683,-5.1885,-4.8376,-4.7356,-4.7088,-4.7384,-4.6902,-4.6671,-4.6954,-4.6344,-4.5985,-5.1287,0.0,0.0,0.0,0.0,-4.7129,-4.7792,-4.8048,-4.8126,-4.855,-4.9104,-4.8916,0.0,0.0,0.0,0.0,0.0,0.0,-5.2061,-5.4041,-5.5176,-5.6007,-5.6583,-5.6546,-5.6558,-5.6657,-5.5799,-5.5331,-5.5139,-5.3274,-5.1034,-4.8624,0.0,0.0,0.0,0.0,-5.1847,-5.5079,-5.508,-5.5274,-5.5916,-5.616,-5.6245,-5.615,-5.615,-5.577,-5.5012,-5.419,-5.2881,-5.0976,-4.8919,0.0,0.0,0.0,0.0,0.0,0.0,0.0,0.0,0.0,0.0,0.0,0.0,0.0,0.0,0.0,0.0,0.0,0.0,0.0,-5.0592,-5.0545,-5.0033,0.0,0.0,0.0,0.0,0.0,0.0,0.0,0.0,0.0,-5.5862,-5.6225,-5.6714,0.0,0.0,-5.8311,-5.8228,-5.8032,-5.7797,-5.7688,-5.7512,0.0,0.0,-5.6671,-5.6137,-5.5271,-5.4677,-5.442,-5.4667,-5.4703,-5.4869,-5.5223,-5.5381,-5.5118,-5.4153,-5.2305,-5.096,-5.0548,-5.0195,-4.9889,-4.9647,-4.9068,-4.8671,-5.4428,-5.0618,-5.0676,-4.9825,-4.853,-4.9307,-4.9898,-5.0213,-5.0453,-5.0802,-5.13,-5.1788,-5.2112,-5.2275,-5.2585,0.0,0.0,0.0,-5.4114,-5.5432,-5.6473,-5.7389,-5.8079,-5.8115,-5.8391,-5.8823,-5.8136,-5.7635,-5.7258,-5.6502,-5.5013,-5.2834,0.0,0.0,-5.2061,-5.2273,-5.3723,-5.6295,-5.6312,-5.6523,-5.7148,-5.7203,-5.7129,-5.6869,-5.6869,-5.6629,-5.6081,-5.5357,-5.4391,-5.3241,-5.1312,-4.9234,0.0,0.0,0.0,0.0,0.0,0.0,0.0,0.0,0.0,0.0,0.0,-4.0431,0.0,0.0,0.0,0.0,-4.9731,-5.2098,-5.407,-5.356,0.0,0.0,0.0,0.0,0.0,0.0,0.0,-5.4737,-5.6319,-5.781,-5.9191,-5.9324,-5.9261,-5.9199,-5.9434,-5.9542,-5.942,0.0,-5.9059,-5.8816,-5.8702,-5.8501,-5.8058,-5.7846,-5.7429,-5.6504,-5.6146,-5.6155,-5.6368,-5.6508,-5.6713,-5.6912,-5.7074,-5.7159,-5.7118,-5.5732,-5.4319,-5.3387,-5.2932,-5.2597,-5.2258,-5.158,-5.1175,-5.6948,-5.5342,-5.45,-5.2697,-5.0509,-5.125,-5.2028,-5.275,-5.3472,-5.3783,-5.3773,-5.5217,-5.5448,-5.4822,-5.5397,0.0,-5.473,-5.539,-5.564,-5.5674,-5.7165,-5.8543,-5.9714,-6.0214,-6.0818,-6.1407,-6.112,-6.0587,-5.9844,-5.9016,-5.7993,-5.6698,-5.5062,-5.4353,-5.4644,-5.5281,-5.6109,-5.7045,-5.7322,-5.7797,-5.8474,-5.7987,-5.7552,-5.727,-5.7203,-5.7138,-5.6836,-5.6113,-5.5418,-5.471,-5.3203,-5.144,-4.95,0.0,0.0,0.0,0.0,0.0,0.0,0.0,0.0,0.0,0.0,0.0,0.0,0.0,0.0,0.0,-5.3314,0.0,-5.6071,-5.548,0.0,0.0,0.0,-5.3652,-5.2986,-5.4909,-5.6631,-5.7513,0.0,0.0,-6.1165,-6.1842,-6.1846,-6.0893,-6.0579,-6.0396,-6.0345,-6.0267,-5.9989,-5.9881,-5.9663,-5.9442,-5.9183,-5.8814,-5.8479,-5.7846,-5.7411,-5.7452,-5.739,-5.7671,-5.7912,-5.7981,-5.8217,-5.8375,-5.8194,-5.7938,-5.7419,-5.6025,-5.531,-5.4864,-5.4539,-5.408,-5.3665,-5.8334,-5.7323,-5.7715,-5.6293,-5.3904,-5.4721,-5.5204,-5.5369,-5.5357,-5.5327,-5.536,-5.6198,-5.6793,-5.7138,-5.6712,-5.6748,-5.7116,-5.6712,-5.6799,-5.74,-5.8273,-5.8896,-5.9225,-5.9805,-6.0399,-6.0883,-6.0178,-5.9913,-5.9974,-5.8622,-5.7845,-5.7622,-5.6835,-5.6169,-5.5702,-5.5909,-5.7057,-5.9087,-5.8916,-5.9314,-6.0262,-5.935,-5.9011,-5.9351,-5.9222,-5.8537,-5.723,-5.6987,-5.629,-5.5,-5.4117,-5.3166,-5.2044,-4.992,0.0,0.0,0.0,0.0,0.0,0.0,0.0,0.0,0.0,-4.7616,-4.9224,0.0,-5.2741,0.0,-5.5517,-5.7027,-5.7946,-5.7872,0.0,0.0,-5.7485,-5.7612,-5.8058,-5.8635,-5.9303,-6.0178,-6.0624,-6.1202,-6.1982,-6.2279,-6.2717,-6.359,-6.2938,-6.2537,-6.3063,-6.3009,-6.2996,-6.3284,-6.3175,-6.304,-6.2491,-6.2083,-6.1577,-6.1398,-6.0969,-6.0668,-6.0497,-6.0427,-6.0425,-6.0425,-6.0458,-6.0453,-6.0239,-6.0057,-5.9763,-5.9017,-5.78,-5.6637,-5.6302,-5.6103,-5.6057,-5.9807,-5.9361,-6.0171,-5.9591,-5.8071,-5.7692,-5.7461,-5.7398,-5.7608,-5.7386,-5.6955,-5.7588,-5.8143,-5.851,-5.807,-5.8107,-5.851,-5.807,-5.8107,-5.8584,-5.926,-5.9822,-6.0152,-6.0468,-6.0938,-6.1547,-6.1006,-6.0665,-6.0567,-5.9753,-5.9216,-5.8968,-5.8785,-5.8288,-5.7545,-5.718,-5.8044,-6.0139,-6.0555,-6.0973,-6.1358,-6.0733,-6.041,-6.0477,-6.0004,-5.9186,-5.8125,-5.7367,-5.6567,-5.5728,-5.5084,-5.4373,-5.3532,-5.2212,-5.0409,0.0,0.0,0.0,0.0,0.0,0.0,0.0,0.0,0.0,0.0,0.0,-5.624,-5.7471,-5.8461,-5.9229,-5.9754,-5.9812,-5.9812,-5.9812,-5.9812,-5.9998,-6.0444,-6.0815,-6.1187,-6.1707,-6.2376,-6.297,-6.3393,-6.3825,-6.4382,-6.525,-6.479,-6.4498,-6.4857,-6.482,-6.4816,-6.5076,-6.4938,-6.462,-6.4094,-6.3615,-6.3222,-6.2843,-6.2488,-6.2155,-6.1917,-6.1606,-6.143,-6.143,-6.136,-6.1253,-6.1146,-6.1074,-6.0893,-6.0529,-5.9899,-5.9076,-5.8063,-5.7756,-5.7599,-6.1131,-6.1162,-6.2071,-6.2307,-6.1995,-6.051,-5.9565,-5.9115,-5.9801,-5.9536,-5.8592,-5.9131,-5.9355,-5.9355,-5.9355,-5.9331,-5.9368,-5.9331,-5.9331,-5.9404,-6.0199,-6.0933,-6.1618,-6.158,-6.197,-6.2629,-6.25,-6.2094,-6.1401,-6.1407,-6.1104,-6.0433,-6.0538,-6.0287,-5.9587,-5.8796,-5.9141,-6.0632,-6.1973,-6.2438,-6.2059,-6.2005,-6.1668,-6.1019,-6.0272,-5.9645,-5.9067,-5.7711,-5.6881,-5.674,-5.6071,-5.5331,-5.4627,-5.4103,-5.2883,0.0,-5.039,0.0,0.0,0.0,0.0,0.0,0.0,0.0,0.0,-5.7937,-5.9579,-6.1076,-6.1187,-6.1187,-6.1187,-6.1298,-6.141,-6.1521,-6.1596,-6.1707,-6.1856,-6.245,-6.2859,-6.2896,-6.4099,-6.4953,-6.4976,-6.5645,-6.6091,-6.6239,-6.6179,-6.6206,-6.6245,-6.6123,-6.5989,-6.5828,-6.575,-6.553,-6.4879,-6.4484,-6.419,-6.3574,-6.3364,-6.3002,-6.2708,-6.2334,-6.2023,-6.1988,-6.1881,-6.1704,-6.1599,-6.1634,-6.1562,-6.145,-6.1642,-6.1333,-5.9918,-5.9292,-5.8888,-6.152,-6.1553,-6.3039,-6.3552,-6.3386,-6.3751,-6.2842,-6.112,-6.1188,-6.0922,-6.0485,-6.0347,-6.0328,-6.0328,-6.0247,-6.0199,-6.0162,-6.0162,-6.0199,-6.0199,-6.1006,-6.1496,-6.1776,-6.2316,-6.2608,-6.2755,-6.273,-6.2581,-6.2322,-6.1924,-6.1642,-6.1494,-6.1034,-6.0743,-6.0685,0.0,0.0,0.0,-6.2155,-6.2904,-6.2793,-6.2567,-6.1954,-6.0982,-6.129,0.0,-5.9207,-5.8793,-5.8327,-5.7746,-5.6885,0.0,0.0,0.0,0.0,0.0,0.0,0.0,0.0,0.0,0.0,0.0,-5.8021,-5.8264,-5.8159,-5.969,-6.0831,-6.115,-6.1187,-6.1187,-6.1187,-6.1819,-6.245,-6.3082,-6.375,-6.4396,-6.5088,-6.5311,-6.5422,-6.5422,-6.5682,-6.5868,-6.5868,-6.6017,-6.6388,-6.6982,-6.7094,-6.733,-6.79,-6.7308,-6.7099,-6.758,-6.7439,-6.7226,-6.6875,-6.6579,-6.6214,-6.5917,-6.5586,-6.5173,-6.4648,-6.4281,-6.3939,-6.3659,-6.3514,-6.3299,-6.3153,-6.3151,-6.3048,-6.3115,-6.3181,-6.2822,-6.1393,-6.1234,-6.1234,-6.2331,0.0,-6.4097,-6.4726,0.0,-6.5061,-6.4562,-6.3403,-6.3106,-6.2545,-6.1853,-6.1619,-6.1462,-6.1385,-6.1315,-6.1269,-6.1161,-6.1198,-6.1198,-6.1235,-6.2045,-6.24,-6.2509,-6.2842,-6.3015,-6.3002,-6.2978,-6.2953,-6.2867,-6.2693,-6.2567,-6.2604,-6.2313,-6.1997,-6.1693,-6.1693,-6.1671,-6.1567,-6.272,-6.3265,-6.3194,-6.3075,-6.2659,-6.1945,0.0,0.0,0.0,0.0,0.0,0.0,0.0,0.0,0.0,0.0,0.0,-5.6634,-5.6562,-5.6621,-5.6793,-5.7752,-5.8961,-6.027,-6.1523,-6.1938,-6.1137,-6.2279,-6.3156,-6.3602,-6.3639,-6.3602,-6.3639,-6.401,-6.4382,-6.4791,-6.5199,-6.5645,-6.6017,-6.6091,-6.6091,-6.6165,-6.6462,-6.6685,-6.6685,-6.7057,-6.7428,-6.7837,-6.7887,-6.7999,-6.837,-6.8098,-6.7975,-6.8272,-6.8208,-6.8004,-6.7704,-6.7596,-6.7405,-6.6917,-6.6566,-6.6166,-6.576,-6.5275,-6.4842,-6.4602,-6.4252,-6.393,-6.3783,-6.3673,-6.36,-6.36,-6.36,-6.3422,-6.2641,-6.254,-6.2386,-6.3232,-6.3487,-6.5022,-6.5608,-6.5537,-6.5537,-6.545,-6.5229,0.0,0.0,0.0,-6.2869,-6.2737,-6.2539,-6.2517,-6.2427,-6.2313,-6.2313,-6.229,-6.2304,-6.2946,-6.3255,-6.3279,-6.3231,-6.3194,-6.3218,-6.3218,-6.3218,-6.3218,-6.3396,-6.3405,-6.3428,-6.3557,-6.3245,-6.2673,-6.2599,-6.2636,-6.2673,-6.3245,-6.3557,-6.3428,-6.3428,-6.3312,-6.3075,-6.245,-6.2071,-6.1923,-6.108,-6.0591,-6.0566,-6.0149,-5.9928,-5.9953,-6.0199,-6.0029,-5.9408,-5.9829,-6.0186,-6.0356,-6.1166,-6.2019,-6.2835,-6.4202,-6.4753,-6.4085,-6.4619,-6.5348,-6.6054,-6.6091,-6.6091,-6.6091,-6.6091,-6.6165,-6.6314,-6.6314,-6.6351,-6.6537,-6.6537,-6.6611,-6.6611,-6.7168,-6.754,-6.754,-6.806,-6.8518,-6.8506,-6.8407,-6.8518,-6.8518,-6.8481,-6.8383,-6.8358,-6.8334,-6.8234,-6.8055,-6.7978,-6.7784,-6.7405,-6.7089,-6.6772,-6.6385,-6.5792,-6.5344,-6.5046,-6.4567,-6.4181,-6.3929,-6.3747,-6.3637,-6.36,-6.36,-6.36,-6.3563,-6.3305,-6.2966,-6.3706,-6.4487,-6.5449,-6.5833,-6.5767,-6.5767,-6.5646,-6.5435,-6.4968,-6.4612,-6.4407,-6.4101,-6.3941,-6.39,-6.375,-6.36,-6.3453,-6.3431,-6.3424,-6.3348,-6.3368,-6.3405,-6.3534,-6.3326,-6.3242,-6.3359,-6.3359,-6.3359,-6.3359,-6.3511,-6.3579,-6.3579,-6.3579,-6.3527,-6.3431,-6.3453,-6.3431,-6.3453,-6.3542,-6.3579,-6.3557,-6.3557,-6.3511,-6.3373,-6.3904,-6.4153,-6.407,-6.3234,-6.273,-6.2693,-6.1285,-6.0501,-6.0538,-6.12,-6.1518,-6.1445,-6.2308,-6.315,-6.3877,-6.4179,-6.4656,-6.5473,-6.577,-6.5868,-6.5794,-6.5868,-6.5979,-6.6128,-6.6165,-6.6091,-6.6091,-6.6165,-6.6462,-6.7057,-6.7131,-6.7367,-6.7961,-6.8036,-6.8036,-6.806,-6.8221,-6.8296,-6.8258,-6.8407,-6.8518,-6.8518,-6.8407,-6.8444,-6.837,-6.8518,-6.8481,-6.8457,-6.8457,-6.8408,-6.8259,-6.8234,-6.8107,-6.7836,-6.765,-6.7378,-6.6954,-6.6416,-6.5855,-6.5275,-6.4876,-6.4463,-6.4037,-6.3891,-6.3783,-6.3637,-6.36,-6.36,-6.36,-6.3526,-6.3377,-6.4243,-6.4705,-6.5513,-6.5885,-6.5859,-6.5846,-6.5793,-6.5646,-6.5435,-6.522,-6.4968,-6.4795,-6.4613,-6.4539,-6.4387,-6.4269,-6.4111,-6.4087,-6.4083,-6.4021,-6.3851,-6.3845,-6.3845,-6.3647,-6.3557,-6.3624,-6.3557,-6.3511,-6.3511,-6.3557,-6.3602,-6.3602,-6.3602,-6.3602,-6.3639,-6.4025,-6.4248,-6.4233,-6.3802,-6.3602,-6.3602,-6.4048,-6.4225,-6.4179,-6.4958,-6.5379,-6.5369,-6.4999,-6.4776,-6.4776,-6.3955,-6.3464,-6.3501,-6.3833,-6.4018,-6.4055,-6.453,-6.5032,-6.5464,-6.5895,-6.6537,-6.7354,-6.7428,-6.7391,-6.7391,-6.702,-6.6945,-6.7354,-6.7391,-6.7391,-6.7428,-6.7428,-6.754,-6.7887,-6.7924,-6.8097,-6.8431,-6.8518,-6.8518,-6.8518,-6.8518,-6.8518,-6.8518,-6.8518,-6.8518,-6.8468,-6.8147,-6.7763,-6.7293,-6.7243,-6.7553,-6.832,-6.8518,-6.8481,-6.8408,-6.8408,-6.8334,-6.8158,-6.8004,-6.7794,-6.7442,-6.6983,-6.6476,-6.5949,-6.5442,-6.4842,-6.4393,-6.4073,-6.3856,-6.3673,-6.36,-6.36,-6.36,-6.36,-6.3489,-6.4705,-6.4936,-6.5628,-6.5897,-6.5897,-6.5897,-6.5872,-6.582,-6.582,-6.5723,-6.562,-6.5534,-6.5406,-6.5234,-6.5169,-6.5062,-6.4915,-6.4653,-6.4521,-6.4482,-6.4287,-6.4186,-6.4125,-6.3974,-6.3957,-6.404,-6.3967,-6.3996,-6.4122,-6.4159,-6.4136,-6.4159,-6.4159,-6.4159,-6.4173,-6.4768,-6.5065,-6.5028,-6.447,-6.4173,-6.4196,-6.4791,-6.5176,-6.5399,-6.6017,-6.6462,-6.6611,-6.65,-6.6388,-6.6327,-6.6108,-6.5949,-6.5949,-6.6097,-6.6208,-6.6232,-6.6489,-6.6648,-6.6685,-6.7205,-6.7837,-6.8468,-6.8518,-6.8481,-6.8468,-6.7924,-6.7837,-6.837,-6.8444,-6.8444,-6.8407,-6.8444,-6.8518,-6.8481,-6.8296,-6.8147,-6.8208,-6.8097,-6.806,-6.8171,-6.8246,-6.8184,-6.8246,-6.8246,-6.8073,-6.7837,-6.7391,-6.6797,-6.6239,-6.6091,-6.6685,-6.754,-6.811,-6.8296,-6.8407,-6.8518,-6.8432,-6.8358,-6.8234,-6.803,-6.7741,-6.7322,-6.6925,-6.6476,-6.5859,-6.5245,-6.4808,-6.4358,-6.4001,-6.3747,-6.3637,-6.36,-6.36,-6.36,-6.3563,-6.5089,-6.5705,-6.5859,-6.5897,-6.5897,-6.5897,-6.5897,-6.5885,-6.5885,-6.6308,-6.6742,-6.6701,-6.6598,-6.6606,-6.6389,-6.6222,-6.61,-6.5331,-6.4886,-6.4835,-6.4615,-6.4425,-6.4403,-6.4203,-6.4348,-6.4867,-6.4897,-6.5165,-6.5705,-6.5794,-6.5868,-6.5868,-6.5868,-6.5794,-6.5868,-6.5905,-6.5979,-6.5979,-6.5905,-6.5868,-6.5905,-6.5942,-6.6314,-6.7057,-6.7131,-6.754,-6.8134,-6.7553,-6.7205,-6.7168,-6.6513,-6.6105,-6.6179,-6.6773,-6.7182,-6.7182,-6.785,-6.8283,-6.8258,-6.8357,-6.8431,-6.8481,-6.8518,-6.8518,-6.8518,-6.8407,-6.837,-6.8481,-6.8518,-6.8481,-6.8518,-6.8506,-6.8481,-6.8481,-6.7948,-6.7428,-6.7465,-6.676,-6.6611,-6.7354,-6.759,-6.7404,-6.7614,-6.7553,-6.7182,-6.6648,-6.6388,-6.6128,-6.5868,-6.5831,-6.5942,-6.6388,-6.6908,-6.7651,-6.8184,-6.8481,-6.8444,-6.842,-6.8358,-6.8183,-6.7926,-6.7515,-6.7032,-6.6714,-6.611,-6.5607,-6.5114,-6.4637,-6.4252,-6.3892,-6.371,-6.36,-6.36,-6.36,-6.3563,-6.5551,-6.5897,-6.5897,-6.5897,-6.5897,-6.5897,-6.5897,-6.5897,-6.5897,-6.609,-6.6436,-6.6806,-6.725,-6.7654,-6.7016,-6.6712,-6.6644,-6.5727,-6.5252,-6.5155,-6.4951,-6.5078,-6.5462,-6.5218,-6.5451,-6.6057,-6.6004,-6.606,-6.6247,-6.6193,-6.6161,-6.6091,-6.6091,-6.6091,-6.6128,-6.6574,-6.6773,-6.6834,-6.728,-6.7503,-6.7465,-6.7057,-6.6982,-6.7317,-6.7763,-6.8134,-6.8444,-6.8147,-6.7999,-6.8023,-6.7664,-6.7516,-6.754,-6.7837,-6.8023,-6.806,-6.8296,-6.8518,-6.8518,-6.8518,-6.8518,-6.8518,-6.8518,-6.8518,-6.8518,-6.8518,-6.8518,-6.8518,-6.8518,-6.8357,-6.7948,-6.8246,-6.8518,-6.8444,-6.8147,-6.7961,-6.7961,-6.7688,-6.7664,-6.7986,-6.7999,-6.8023,-6.7924,-6.7553,-6.6982,-6.6202,-6.5719,-6.5236,-6.4791,-6.4619,-6.4865,-6.525,-6.5622,-6.6388,-6.7479,-6.78,-6.7999,-6.8333,-6.8457,-6.8334,-6.8158,-6.7899,-6.7488,-6.7089,-6.6536,-6.599,-6.5412,-6.4911,-6.4428,-6.4073,-6.3747,-6.36,-6.36,-6.36,-6.36,-6.5897,-6.5897,-6.5897,-6.5897,-6.5897,-6.5897,-6.5897,-6.5897,-6.5897,-6.6013,-6.6282,-6.6859,-6.7564,-6.8125,-6.7327,-6.6901,-6.6825,-6.5949,-6.5494,-6.5459,-6.5496,-6.5841,-6.6294,-6.633,-6.6616,-6.7196,-6.7125,-6.7107,-6.7083,-6.7008,-6.6895,-6.683,-6.6807,-6.6783,-6.6834,-6.7391,-6.7651,-6.7664,-6.8221,-6.8518,-6.8444,-6.8147,-6.785,-6.7725,-6.8184,-6.8518,-6.8518,-6.8518,-6.8518,-6.8518,-6.8518,-6.8518,-6.8518,-6.8518,-6.8518,-6.8518,-6.8518,-6.8518,-6.8518,-6.8518,-6.8518,-6.8518,-6.8518,-6.8518,-6.8518,-6.8518,-6.8394,-6.8171,-6.837,-6.8221,-6.7813,-6.8147,-6.8481,-6.8481,-6.8333,-6.8208,-6.8134,-6.8023,-6.7837,-6.8134,-6.8023,-6.8171,-6.8023,-6.7219,-6.6277,-6.5696,-6.4976,-6.4345,-6.3788,-6.3676,-6.3862,-6.4396,-6.4656,-6.551,-6.6922,-6.7367,-6.7664,-6.8184,-6.8481,-6.8432,-6.8309,-6.8081,-6.7847,-6.7341,-6.6889,-6.6416,-6.5828,-6.5242,-6.4637,-6.4109,-6.3747,-6.36,-6.36,-6.36,-6.36,-6.5897,-6.5897,-6.5897,-6.5897,-6.5897,-6.5897,-6.5897,-6.5897,-6.5897,-6.6282,-6.6859,-6.7026,-6.7552,-6.8269,-6.7395,-6.6984,-6.6855,-6.6019,-6.5632,-6.5733,-6.6277,-6.6589,-6.6532,-6.7127,-6.773,-6.8319,-6.8258,-6.8433,-6.8772,-6.8803,-6.878,-6.8548,-6.845,-6.8477,-6.8307,-6.832,-6.8407,-6.8468,-6.858,-6.8556,-6.8667,-6.9224,-6.9187,-6.8593,-6.8543,-6.863,-6.8593,-6.8518,-6.8518,-6.8518,-6.8518,-6.8518,-6.8518,-6.8518,-6.8518,-6.8518,-6.8518,-6.8518,-6.8518,-6.8518,-6.8518,-6.8518,-6.8518,-6.8518,-6.8518,-6.8518,-6.8246,-6.7503,-6.8147,-6.8407,-6.837,-6.8407,-6.8518,-6.8444,-6.785,-6.754,-6.7465,-6.7057,-6.6685,-6.728,-6.7553,-6.759,-6.7391,-6.5942,-6.5274,-6.4842,-6.4211,-6.3691,-6.3788,-6.3676,-6.3788,-6.4048,-6.4545,-6.5422,-6.6884,-6.7293,-6.7627,-6.837,-6.8741,-6.8605,-6.8321,-6.8107,-6.7973,-6.777,-6.7482,-6.7046,-6.6305,-6.5604,-6.4913,-6.4321,-6.3818,-6.3637,-6.36,-6.36,-6.36,-6.5897,-6.5897,-6.5897,-6.5897,-6.5897,-6.5897,-6.5897,-6.5897,-6.5897,-6.6051,-6.6282,-6.632,-6.6782,-6.7552,-6.7218,-6.7051,-6.6974,-6.6179,-6.6024,-6.6482,-6.6772,-6.7405,-6.835,-6.8537,-6.896,-6.9505,-6.9474,-6.9378,-6.9423,-6.9357,-6.9209,-6.9027,-6.8809,-6.8707,-6.8626,-6.853,-6.8704,-6.9224,-6.9261,-6.9546,-6.9967,-7.0301,-7.0301,-7.0103,-7.0041,-7.0004,-7.0041,-6.9521,-6.9261,-6.9261,-6.8778,-6.8518,-6.8518,-6.8518,-6.8518,-6.8518,-6.8518,-6.8518,-6.8518,-6.8518,-6.8518,-6.8518,-6.8518,-6.8518,-6.8518,-6.8481,-6.8394,-6.8208,-6.8258,-6.8481,-6.8518,-6.8518,-6.8518,-6.8444,-6.8283,-6.806,-6.806,-6.78,-6.7763,-6.7999,-6.8036,-6.7887,-6.728,-6.6314,-6.5459,-6.4865,-6.4122,-6.3936,-6.4248,-6.4359,-6.4508,-6.5051,-6.5459,-6.6017,-6.7057,-6.7317,-6.7627,-6.8704,-6.9335,-6.967,-6.9607,-6.958,-6.9473,-6.9161,-6.8685,-6.8189,-6.76,-6.6426,-6.5652,-6.4879,-6.4373,-6.3846,-6.36,-6.3669,-6.3634,-6.6282,-6.6244,-6.6013,-6.5897,-6.5897,-6.5897,-6.5897,-6.5897,-6.5897,-6.5897,-6.5936,-6.6167,-6.659,-6.709,-6.7398,-6.7513,-6.7475,-6.6974,-6.6987,-6.7434,-6.7689,-6.8377,-6.9318,-6.9605,-6.9932,-7.031,-7.0234,-7.0001,-6.9854,-6.972,-6.9542,-6.9294,-6.91,-6.9064,-6.9103,-6.9035,-6.931,-6.9955,-7.0078,-7.0375,-7.0858,-7.118,-7.1329,-7.1329,-7.1329,-7.1007,-7.0561,-6.9967,-6.9558,-6.9261,-6.8778,-6.8518,-6.8518,-6.8518,-6.8518,-6.8518,-6.8518,-6.8518,-6.8518,-6.8518,-6.8518,-6.8518,-6.8741,-6.889,-6.889,-6.9137,-6.915,-6.8964,-6.8853,-6.884,-6.8556,-6.8518,-6.8518,-6.8518,-6.8518,-6.8518,-6.8518,-6.8481,-6.8444,-6.8444,-6.8444,-6.8184,-6.7725,-6.6959,-6.6314,-6.5659,-6.4879,-6.4716,-6.5065,-6.5213,-6.5385,-6.6017,-6.6574,-6.7057,-6.7948,-6.837,-6.8481,-6.941,-7.0103,-7.0512,-7.0784,-7.0831,-7.0802,-7.0491,-7.0073,-6.9552,-6.8677,-6.7423,-6.6461,-6.568,-6.4897,-6.43,-6.4053,-6.3738,-6.3738,-6.709,-6.6936,-6.6244,-6.5936,-6.5897,-6.5897,-6.5897,-6.5974,-6.5987,-6.6064,-6.6333,-6.6833,-6.7231,-6.7411,-6.809,-6.8436,-6.85,-6.8475,-6.8398,-6.8448,-6.9047,-6.9365,-6.9659,-7.0239,-7.0539,-7.0678,-7.0499,-7.0281,-7.0126,-7.0019,-6.9835,-6.9562,-6.9512,-6.9691,-7.0065,-6.9961,-7.0264,-7.0797,-7.092,-7.097,-7.1007,-7.1812,-7.2184,-7.2209,-7.2209,-7.1515,-6.9967,-6.9744,-6.9397,-6.8741,-6.8543,-6.8518,-6.8518,-6.8518,-6.8518,-6.8518,-6.8518,-6.8518,-6.8518,-6.8556,-6.863,-6.8704,-6.9261,-6.9707,-6.9781,-7.0264,-7.0375,-6.9855,-6.967,-6.9447,-6.8853,-6.8741,-6.8704,-6.8518,-6.863,-6.8667,-6.8667,-6.8556,-6.8518,-6.8593,-6.8556,-6.8481,-6.8296,-6.7651,-6.702,-6.676,-6.6239,-6.5868,-6.603,-6.6091,-6.6128,-6.6574,-6.7465,-6.8357,-6.9038,-6.967,-6.9855,-7.0152,-7.066,-7.1106,-7.1378,-7.1513,-7.1509,-7.1299,-7.1011,-7.0493,-6.9637,-6.8444,-6.7516,-6.6704,-6.5784,-6.4962,-6.4675,-6.4427,-6.3945,-6.7628,-6.709,-6.6821,-6.6397,-6.5936,-6.5897,-6.6205,-6.6718,-6.6756,-6.7127,-6.7667,-6.7936,-6.836,-6.8886,-6.9232,-6.959,-7.009,-7.0129,-6.986,-6.9436,-6.9525,-6.9934,-7.042,-7.0671,-7.0729,-7.0684,-7.0624,-7.0578,-7.0499,-7.0369,-7.0199,-7.0115,-7.0325,-7.042,-7.0517,-7.0733,-7.1229,-7.1852,-7.1863,-7.2035,-7.2555,-7.2852,-7.3027,-7.3027,-7.3027,-7.2481,-7.1441,-7.0326,-6.9595,-6.9298,-6.8778,-6.8518,-6.8518,-6.8518,-6.8518,-6.8518,-6.8518,-6.8518,-6.8556,-6.9038,-6.9298,-6.9447,-7.0078,-7.045,-7.0524,-7.0784,-7.0858,-7.0561,-7.0524,-7.0375,-7.0227,-7.0152,-6.9893,-6.9373,-6.9335,-6.9521,-6.9855,-6.9595,-6.9373,-6.9286,-6.8853,-6.8296,-6.7837,-6.7391,-6.7205,-6.676,-6.6388,-6.6351,-6.6797,-6.6982,-6.7503,-6.8394,-6.9113,-6.962,-7.0215,-7.0846,-7.1218,-7.1292,-7.1552,-7.1849,-7.2084,-7.2232,-7.2229,-7.2071,-7.1784,-7.1238,-7.0351,-6.9499,-6.8572,-6.7585,-6.6621,-6.6009,-6.561,-6.5014,-6.4393,-6.8552,-6.8052,-6.7705,-6.7282,-6.6859,-6.6846,-6.7128,-6.7603,-6.7704,-6.8049,-6.8511,-6.8897,-6.9321,-6.9797,-7.0041,-7.0438,-7.09,-7.0912,-7.0629,-7.0206,-7.0129,-7.0437,-7.086,-7.0857,-7.0815,-7.0796,-7.0767,-7.092,-7.1213,-7.1076,-7.1101,-7.1332,-7.152,-7.1652,-7.1648,-7.1869,-7.2314,-7.2856,-7.2858,-7.3017,-7.3364,-7.345,-7.3424,-7.3361,-7.3138,-7.2729,-7.2135,-7.0586,-6.9707,-6.9558,-6.8927,-6.8518,-6.8518,-6.8518,-6.8518,-6.8556,-6.8778,-6.8927,-6.9026,-6.9707,-7.0152,-7.0264,-7.092,-7.1366,-7.1441,-7.1589,-7.1775,-7.1441,-7.1366,-7.1255,-7.0932,-7.0858,-7.0747,-7.0698,-7.0326,-7.0375,-7.071,-7.019,-6.9744,-6.9484,-6.9001,-6.8333,-6.7911,-6.7725,-6.7577,-6.7094,-6.6982,-6.707,-6.7688,-6.8023,-6.8877,-6.9694,-7.0326,-7.0809,-7.1292,-7.1886,-7.2544,-7.2581,-7.2581,-7.2741,-7.2927,-7.2964,-7.2986,-7.2727,-7.2466,-7.2027,-7.1204,-7.0437,-6.9522,-6.854,-6.7534,-6.6882,-6.627,-6.5224,-6.4565,-6.9744,-6.959,-6.8821,-6.8398,-6.8296,-6.8321,-6.8397,-6.8602,-6.8663,-6.8764,-6.8996,-6.9652,-7.0037,-7.0257,-7.085,-7.1197,-7.1184,-7.135,-7.1324,-7.1208,-7.1156,-7.1195,-7.0937,-7.0885,-7.0962,-7.1063,-7.1021,-7.1377,-7.2145,-7.2095,-7.2355,-7.2762,-7.2779,-7.3021,-7.3146,-7.3253,-7.3425,-7.3818,-7.38,-7.3715,-7.3628,-7.364,-7.3589,-7.3424,-7.2829,-7.2432,-7.2209,-7.0809,-6.9781,-6.9521,-6.8853,-6.8518,-6.8518,-6.8518,-6.8518,-6.8667,-6.9298,-6.9595,-6.9855,-7.0524,-7.0995,-7.1069,-7.1738,-7.2283,-7.2321,-7.2704,-7.2815,-7.2321,-7.2246,-7.1961,-7.1366,-7.1229,-7.1552,-7.1998,-7.1589,-7.1229,-7.1007,-7.0412,-6.9967,-6.9707,-6.9113,-6.8481,-6.837,-6.8394,-6.8394,-6.8357,-6.8296,-6.8444,-6.863,-6.9063,-6.9657,-7.04,-7.1255,-7.1701,-7.2109,-7.2444,-7.3027,-7.3027,-7.3064,-7.3212,-7.3361,-7.3372,-7.341,-7.3188,-7.2972,-7.2545,-7.1975,-7.1115,-7.0327,-6.9389,-6.853,-6.773,-6.6903,-6.599,-6.5152,-7.0244,-6.9706,-6.9436,-6.9001,-6.8514,-6.8462,-6.8923,-6.9512,-6.9571,-6.9954,-7.0456,-7.0765,-7.1228,-7.1796,-7.1967,-7.2366,-7.2739,-7.2881,-7.2945,-7.2958,-7.2958,-7.2122,-7.1143,-7.0937,-7.1245,-7.1745,-7.1846,-7.2294,-7.3048,-7.3014,-7.307,-7.3216,-7.3696,-7.383,-7.3858,-7.4195,-7.4304,-7.435,-7.4214,-7.409,-7.3923,-7.3912,-7.379,-7.3552,-7.3303,-7.3104,-7.2952,-7.1478,-6.9967,-6.889,-6.8654,-6.8518,-6.8518,-6.8518,-6.8803,-6.9286,-6.962,-7.0004,-7.0623,-7.1366,-7.1812,-7.1923,-7.2555,-7.3101,-7.3101,-7.325,-7.3287,-7.3101,-7.3064,-7.2964,-7.2741,-7.2666,-7.2852,-7.3027,-7.2704,-7.2592,-7.2406,-7.1478,-7.0598,-7.045,-6.9335,-6.8667,-6.8518,-6.8556,-6.8556,-6.8617,-6.8964,-6.9298,-6.941,-7.0066,-7.066,-7.1292,-7.1998,-7.2469,-7.2852,-7.3149,-7.3361,-7.3324,-7.3324,-7.3287,-7.3398,-7.3372,-7.3372,-7.332,-7.3172,-7.2807,-7.2307,-7.1629,-7.0904,-7.006,-6.9241,-6.8334,-6.7885,-6.7134,-6.6156,-7.0629,-7.0206,-7.0206,-6.9977,-6.9579,-6.9578,-6.9936,-7.0382,-7.0529,-7.1015,-7.1672,-7.1788,-7.2291,-7.3014,-7.3032,-7.3239,-7.3702,-7.3716,-7.3665,-7.3665,-7.3626,-7.2842,-7.1891,-7.1813,-7.2146,-7.2209,-7.2605,-7.3206,-7.3846,-7.3918,-7.4081,-7.4443,-7.474,-7.4839,-7.4702,-7.4847,-7.4939,-7.4778,-7.4611,-7.4438,-7.426,-7.4229,-7.4066,-7.3875,-7.374,-7.3454,-7.2459,-7.1094,-6.9781,-6.8778,-6.8518,-6.8518,-6.8556,-6.8853,-6.9187,-6.9707,-7.0326,-7.0995,-7.1441,-7.2221,-7.2666,-7.2767,-7.3212,-7.3335,-7.3372,-7.3372,-7.3372,-7.3361,-7.3372,-7.3372,-7.3372,-7.3372,-7.3372,-7.3361,-7.3372,-7.3372,-7.3372,-7.1886,-7.1044,-7.0524,-6.9558,-6.8518,-6.8518,-6.8778,-6.8778,-6.884,-6.9558,-6.9707,-6.9855,-7.0809,-7.1552,-7.2072,-7.2544,-7.2952,-7.3101,-7.3324,-7.3372,-7.3372,-7.3372,-7.3372,-7.3372,-7.3372,-7.3372,-7.3383,-7.3278,-7.3064,-7.2545,-7.1945,-7.1163,-7.0406,-6.9635,-6.8975,-6.842,-6.7515,-6.6712,-7.0898,-7.0912,-7.0912,-7.0952,-7.0953,-7.1042,-7.1,-7.1186,-7.1192,-7.1717,-7.2375,-7.2568,-7.306,-7.3999,-7.3941,-7.3995,-7.4149,-7.4306,-7.4166,-7.4204,-7.4127,-7.3651,-7.2983,-7.3099,-7.3137,-7.2944,-7.3378,-7.4095,-7.4711,-7.4851,-7.5192,-7.5556,-7.5795,-7.5779,-7.548,-7.5407,-7.5281,-7.5132,-7.4998,-7.4801,-7.4657,-7.459,-7.4416,-7.4154,-7.3757,-7.2916,-7.1578,-7.0425,-6.9546,-6.8667,-6.8654,-6.8704,-6.8778,-6.9373,-6.9893,-7.0252,-7.1292,-7.206,-7.2395,-7.2952,-7.3361,-7.3324,-7.3361,-7.3372,-7.3372,-7.3372,-7.3372,-7.3372,-7.3372,-7.3372,-7.3372,-7.3372,-7.3372,-7.3372,-7.3372,-7.3372,-7.3075,-7.1923,-7.0858,-7.071,-6.941,-6.8778,-6.8816,-6.9187,-6.9595,-6.9558,-7.0227,-7.0698,-7.092,-7.1626,-7.2146,-7.2406,-7.2878,-7.3298,-7.3335,-7.3372,-7.3372,-7.3372,-7.3372,-7.3372,-7.3372,-7.3372,-7.3372,-7.3383,-7.3331,-7.3145,-7.2807,-7.216,-7.1453,-7.0709,-6.9955,-6.9233,-6.8524,-6.7419,-6.6466,-7.0925,-7.0979,-7.0979,-7.1056,-7.1154,-7.1178,-7.1224,-7.128,-7.1291,-7.1883,-7.2491,-7.2645,-7.3535,-7.485,-7.4877,-7.5175,-7.5651,-7.5666,-7.5821,-7.5821,-7.5821,-7.5318,-7.4471,-7.4037,-7.3909,-7.4089,-7.4436,-7.5002,-7.5605,-7.5732,-7.5925,-7.601,-7.6015,-7.594,-7.5756,-7.5644,-7.5561,-7.5476,-7.5354,-7.5208,-7.5018,-7.4901,-7.4778,-7.4471,-7.3658,-7.2595,-7.1536,-7.0957,-7.0351,-6.9719,-6.9509,-6.9583,-6.962,-7.019,-7.0883,-7.1441,-7.1849,-7.2506,-7.3027,-7.3287,-7.3372,-7.3372,-7.3372,-7.3372,-7.3372,-7.3372,-7.3372,-7.3372,-7.3372,-7.3372,-7.3372,-7.3372,-7.3372,-7.3372,-7.3372,-7.3398,-7.3112,-7.1923,-7.0858,-7.019,-6.9781,-6.9447,-6.9509,-7.0152,-7.045,-7.0487,-7.0995,-7.1663,-7.2072,-7.2406,-7.2692,-7.2878,-7.3064,-7.3372,-7.3372,-7.3372,-7.3372,-7.3372,-7.3372,-7.3372,-7.3372,-7.3372,-7.3372,-7.3372,-7.341,-7.3162,-7.289,-7.2488,-7.183,-7.1006,-7.0199,-6.942,-6.8548,-6.7402,-6.6259,-7.2007,-7.1723,-7.1684,-7.1537,-7.1313,-7.1302,-7.1334,-7.1474,-7.1851,-7.2461,-7.3235,-7.3661,-7.4591,-7.578,-7.5797,-7.6045,-7.6316,-7.6409,-7.6359,-7.6359,-7.632,-7.5895,-7.5187,-7.4598,-7.4473,-7.4525,-7.4745,-7.5195,-7.5543,-7.6006,-7.6133,-7.6145,-7.6076,-7.575,-7.5524,-7.5664,-7.5494,-7.5255,-7.5458,-7.551,-7.5368,-7.5318,-7.5133,-7.467,-7.3732,-7.2748,-7.2229,-7.1556,-7.0992,-7.0623,-7.0723,-7.071,-7.0475,-7.1032,-7.1738,-7.2135,-7.2618,-7.2878,-7.3298,-7.3372,-7.3372,-7.3372,-7.3372,-7.3372,-7.3372,-7.3372,-7.3372,-7.3372,-7.3372,-7.3372,-7.3372,-7.3372,-7.3372,-7.3372,-7.3372,-7.3287,-7.2804,-7.1998,-7.1403,-7.0883,-7.0586,-7.0338,-7.0524,-7.1069,-7.1069,-7.097,-7.1961,-7.2618,-7.2246,-7.2618,-7.3064,-7.325,-7.3324,-7.3372,-7.3372,-7.3372,-7.3372,-7.3372,-7.3372,-7.3372,-7.3372,-7.3372,-7.3372,-7.3372,-7.3372,-7.3252,-7.2945,-7.2545,-7.2078,-7.1232,-7.0404,-6.9566,-6.8491,-6.7203,-6.6135,-7.3326,-7.2716,-7.2727,-7.2323,-7.1688,-7.164,-7.1707,-7.1849,-7.249,-7.3267,-7.4218,-7.5033,-7.5585,-7.641,-7.6514,-7.6521,-7.6477,-7.6432,-7.6397,-7.6397,-7.6397,-7.5895,-7.5225,-7.4788,-7.4274,-7.3802,-7.4306,-7.4732,-7.5157,-7.5646,-7.6006,-7.6134,-7.6159,-7.5873,-7.5369,-7.5553,-7.5656,-7.5203,-7.551,-7.5692,-7.5676,-7.5633,-7.5424,-7.5018,-7.4083,-7.3359,-7.2902,-7.2327,-7.1687,-7.1464,-7.2199,-7.2087,-7.1827,-7.1912,-7.2395,-7.2432,-7.3027,-7.3287,-7.3335,-7.3372,-7.3372,-7.3372,-7.3372,-7.3372,-7.3372,-7.3372,-7.3372,-7.3372,-7.3372,-7.3372,-7.3372,-7.3372,-7.3372,-7.3372,-7.3372,-7.3064,-7.2581,-7.2358,-7.2246,-7.1701,-7.1329,-7.118,-7.1403,-7.1812,-7.1626,-7.1701,-7.2704,-7.3287,-7.2915,-7.2804,-7.3212,-7.3372,-7.3372,-7.3372,-7.3372,-7.3372,-7.3372,-7.3372,-7.3372,-7.3372,-7.3372,-7.3372,-7.3372,-7.3372,-7.3346,-7.3252,-7.3064,-7.2695,-7.2108,-7.1363,-7.0537,-6.9637,-6.8392,-6.7037,-6.6009,-7.3816,-7.3752,-7.3801,-7.3392,-7.2707,-7.2655,-7.264,-7.2664,-7.2881,-7.3829,-7.5144,-7.5417,-7.5977,-7.6527,-7.6669,-7.6623,-7.6521,-7.6444,-7.6409,-7.6409,-7.637,-7.5933,-7.516,-7.4618,-7.3833,-7.3253,-7.3694,-7.4417,-7.4881,-7.5241,-7.5811,-7.6172,-7.6263,-7.6019,-7.5823,-7.6024,-7.5904,-7.5553,-7.5733,-7.5841,-7.5826,-7.5747,-7.5633,-7.5351,-7.4484,-7.3858,-7.3464,-7.3123,-7.2815,-7.2702,-7.3335,-7.3549,-7.334,-7.323,-7.3152,-7.3138,-7.325,-7.3372,-7.3372,-7.3372,-7.3372,-7.3372,-7.3372,-7.3372,-7.3372,-7.341,-7.3447,-7.351,-7.351,-7.3447,-7.3372,-7.3658,-7.351,-7.3473,-7.3484,-7.3435,-7.325,-7.3064,-7.2629,-7.1849,-7.1812,-7.1961,-7.2221,-7.2444,-7.2481,-7.2444,-7.2927,-7.3398,-7.3212,-7.3138,-7.3324,-7.3372,-7.3372,-7.3372,-7.3372,-7.3372,-7.3372,-7.3372,-7.3372,-7.3372,-7.3372,-7.3372,-7.3372,-7.3372,-7.3372,-7.3331,-7.3054,-7.2751,-7.2255,-7.1583,-7.0668,-6.9672,-6.8255,-6.6904,-6.5835,-7.5118,-7.48,-7.4849,-7.4155,-7.3231,-7.3503,-7.3399,-7.3178,-7.3963,-7.4814,-7.5554,-7.6021,-7.6398,-7.6721,-7.6739,-7.6678,-7.6555,-7.6477,-7.6455,-7.6444,-7.6382,-7.5933,-7.5198,-7.4657,-7.4038,-7.3612,-7.3767,-7.4115,-7.4579,-7.543,-7.5871,-7.6195,-7.6326,-7.6031,-7.5748,-7.5927,-7.5823,-7.5691,-7.5789,-7.6015,-7.6,-7.5872,-7.5731,-7.5463,-7.5136,-7.4655,-7.4371,-7.4212,-7.401,-7.3894,-7.4124,-7.4222,-7.4136,-7.3985,-7.374,-7.3601,-7.3461,-7.3398,-7.3398,-7.3372,-7.3372,-7.3372,-7.341,-7.3372,-7.3372,-7.341,-7.3632,-7.3892,-7.4067,-7.419,-7.4635,-7.4588,-7.4662,-7.4588,-7.4264,-7.4041,-7.3919,-7.3621,-7.2927,-7.2184,-7.2481,-7.2741,-7.2878,-7.3101,-7.3324,-7.3372,-7.3372,-7.3372,-7.3372,-7.3372,-7.3372,-7.3372,-7.3372,-7.3372,-7.3372,-7.3372,-7.3372,-7.3372,-7.3372,-7.3372,-7.3372,-7.3372,-7.3372,-7.3372,-7.3346,-7.332,-7.3135,-7.2863,-7.2343,-7.1799,-7.097,-6.9878,-6.8187,-6.6769,-6.5773,-7.6397,-7.5814,-7.5845,-7.5039,-7.3865,-7.4363,-7.4294,-7.403,-7.5079,-7.5776,-7.6083,-7.6586,-7.6892,-7.69,-7.6826,-7.6762,-7.6642,-7.6563,-7.6499,-7.6466,-7.6432,-7.5933,-7.5314,-7.5005,-7.4618,-7.3883,-7.4154,-7.4154,-7.4502,-7.5353,-7.6049,-7.6347,-7.6338,-7.6004,-7.5632,-7.6006,-7.5646,-7.5607,-7.5734,-7.6118,-7.6062,-7.6015,-7.601,-7.5993,-7.5884,-7.5824,-7.5855,-7.578,-7.5568,-7.5408,-7.5305,-7.5183,-7.495,-7.4771,-7.4577,-7.4226,-7.3776,-7.3487,-7.3435,-7.3696,-7.3744,-7.3781,-7.3844,-7.3892,-7.3967,-7.419,-7.4264,-7.471,-7.4858,-7.5007,-7.5453,-7.5713,-7.5713,-7.5601,-7.5118,-7.4747,-7.4413,-7.4078,-7.3632,-7.3298,-7.3447,-7.3361,-7.325,-7.325,-7.3398,-7.3372,-7.3372,-7.3372,-7.3372,-7.3372,-7.3372,-7.3372,-7.3372,-7.3372,-7.3372,-7.3372,-7.3372,-7.3372,-7.3372,-7.3372,-7.3372,-7.3372,-7.3372,-7.3372,-7.3372,-7.332,-7.3162,-7.2945,-7.2488,-7.1921,-7.1236,-7.0007,-6.8151,-6.6881,-6.592,-7.69,-7.6834,-7.6895,-7.6372,-7.5534,-7.5543,-7.5587,-7.5475,-7.5753,-7.6308,-7.6807,-7.7007,-7.7071,-7.7032,-7.6933,-7.6869,-7.6768,-7.6652,-7.6553,-7.651,-7.6405,-7.5984,-7.5264,-7.5121,-7.4889,-7.4425,-7.4773,-7.4928,-7.5082,-7.5314,-7.574,-7.6281,-7.6386,-7.6246,-7.6043,-7.6185,-7.6186,-7.6057,-7.6147,-7.6236,-7.622,-7.623,-7.6529,-7.6794,-7.6923,-7.7057,-7.7347,-7.7317,-7.7264,-7.7208,-7.7148,-7.7123,-7.7079,-7.6825,-7.6625,-7.5934,-7.4872,-7.3539,-7.3684,-7.4142,-7.4476,-7.4588,-7.4933,-7.5378,-7.5267,-7.523,-7.5341,-7.5564,-7.5676,-7.5824,-7.601,-7.5936,-7.5861,-7.5899,-7.5861,-7.5341,-7.4896,-7.445,-7.4004,-7.3696,-7.3584,-7.3473,-7.3361,-7.3398,-7.3372,-7.3372,-7.3372,-7.3372,-7.3372,-7.3372,-7.3372,-7.3372,-7.3372,-7.3372,-7.3372,-7.3372,-7.3372,-7.3372,-7.3372,-7.3372,-7.3372,-7.3372,-7.3372,-7.3372,-7.3372,-7.3372,-7.3268,-7.299,-7.2602,-7.2071,-7.149,-6.9917,-6.8074,-6.7024,-6.6313,-7.7051,-7.7043,-7.7098,-7.6644,-7.5955,-7.631,-7.6273,-7.6001,-7.6393,-7.6785,-7.7058,-7.7097,-7.7087,-7.7095,-7.6999,-7.6939,-7.6883,-7.6768,-7.6662,-7.6573,-7.646,-7.6239,-7.5972,-7.5856,-7.5546,-7.5508,-7.5624,-7.5817,-7.5856,-7.5895,-7.6088,-7.632,-7.6397,-7.6386,-7.6427,-7.6362,-7.635,-7.6429,-7.6701,-7.6958,-7.7034,-7.734,-7.7708,-7.7869,-7.7893,-7.803,-7.8207,-7.8177,-7.8143,-7.8073,-7.8002,-7.7873,-7.7761,-7.7548,-7.7345,-7.6992,-7.6172,-7.5395,-7.5031,-7.5277,-7.5309,-7.5331,-7.5628,-7.5713,-7.5787,-7.5861,-7.6121,-7.6493,-7.653,-7.6679,-7.7013,-7.7199,-7.7199,-7.7087,-7.6669,-7.626,-7.5639,-7.4821,-7.4375,-7.4067,-7.3696,-7.3547,-7.3372,-7.3372,-7.3372,-7.3372,-7.3372,-7.3372,-7.3372,-7.3372,-7.3372,-7.3372,-7.3372,-7.3372,-7.3372,-7.3372,-7.3372,-7.3372,-7.3372,-7.3372,-7.3372,-7.3372,-7.3372,-7.3372,-7.3372,-7.3372,-7.3372,-7.3135,-7.2779,-7.2285,-7.1738,-7.021,-6.8734,-6.8046,-6.7126,-7.7089,-7.7073,-7.7126,-7.6783,-7.6282,-7.6868,-7.679,-7.636,-7.683,-7.7104,-7.7142,-7.7101,-7.7133,-7.7115,-7.7053,-7.7008,-7.6989,-7.6883,-7.6785,-7.6651,-7.6545,-7.646,-7.6455,-7.651,-7.673,-7.6746,-7.7055,-7.7132,-7.7132,-7.7055,-7.7016,-7.6746,-7.6862,-7.6784,-7.6746,-7.6784,-7.685,-7.6888,-7.7278,-7.7614,-7.7911,-7.8424,-7.869,-7.8835,-7.8876,-7.8908,-7.9012,-7.9023,-7.9023,-7.9045,-7.905,-7.9024,-7.8897,-7.877,-7.8561,-7.8321,-7.7863,-7.7492,-7.6967,-7.6691,-7.6398,-7.6266,-7.6409,-7.6679,-7.6567,-7.6419,-7.6567,-7.7347,-7.7347,-7.7719,-7.809,-7.8202,-7.8053,-7.7756,-7.7422,-7.7125,-7.6604,-7.5378,-7.4375,-7.3855,-7.3584,-7.351,-7.3372,-7.3372,-7.3372,-7.3372,-7.3372,-7.3372,-7.3372,-7.3372,-7.3372,-7.3372,-7.3372,-7.3372,-7.3372,-7.3372,-7.3372,-7.3372,-7.3372,-7.3372,-7.3372,-7.3372,-7.3372,-7.3372,-7.3372,-7.3372,-7.3372,-7.3199,-7.2955,-7.2488,-7.1908,-7.0862,-6.9747,-6.8961,-6.7832,-7.7104,-7.7097,-7.7182,-7.7146,-7.707,-7.7187,-7.7148,-7.6992,-7.7148,-7.7187,-7.7187,-7.7186,-7.7183,-7.7178,-7.7117,-7.705,-7.6981,-7.6927,-7.6837,-7.6746,-7.6651,-7.6642,-7.6803,-7.7224,-7.7616,-7.7725,-7.8061,-7.8486,-7.868,-7.837,-7.8138,-7.7713,-7.7674,-7.7635,-7.7442,-7.7248,-7.721,-7.7287,-7.7662,-7.8167,-7.8554,-7.9031,-7.9351,-7.9741,-7.9851,-8.013,-8.0808,-8.0575,-8.0427,-8.0372,-8.0323,-8.0272,-8.0089,-8.0037,-7.9837,-7.9667,-7.951,-7.9161,-7.8731,-7.8003,-7.749,-7.7468,-7.7578,-7.7784,-7.7682,-7.7942,-7.8165,-7.8016,-7.7979,-7.809,-7.8267,-7.8304,-7.8304,-7.7895,-7.7385,-7.6865,-7.6233,-7.5304,-7.4375,-7.3707,-7.3558,-7.3707,-7.3781,-7.3892,-7.351,-7.3473,-7.3372,-7.3372,-7.3372,-7.3372,-7.3372,-7.3372,-7.3372,-7.3372,-7.3372,-7.3372,-7.3372,-7.3372,-7.3372,-7.3372,-7.3372,-7.3372,-7.3372,-7.3372,-7.3372,-7.3372,-7.3372,-7.3215,-7.3027,-7.2686,-7.208,-7.119,-7.0028,-6.9033,-6.7902,-7.7081,-7.7099,-7.7185,-7.7226,-7.7226,-7.7226,-7.7226,-7.7226,-7.7226,-7.7226,-7.7226,-7.7226,-7.7225,-7.7183,-7.7135,-7.7076,-7.705,-7.6999,-7.6972,-7.6858,-7.6786,-7.7006,-7.7351,-7.7726,-7.8021,-7.8507,-7.8936,-7.9028,-7.895,-7.9183,-7.9299,-7.9028,-7.8757,-7.8138,-7.7829,-7.7403,-7.7132,-7.7403,-7.7945,-7.8706,-7.9042,-8.0061,-8.0602,-8.0792,-8.08,-8.0858,-8.1092,-8.1054,-8.1061,-8.1029,-8.0959,-8.0926,-8.0877,-8.0788,-8.072,-8.0578,-8.0449,-8.0199,-7.9891,-7.9123,-7.8541,-7.8128,-7.82,-7.8304,-7.8332,-7.8304,-7.8304,-7.8304,-7.8341,-7.8304,-7.8304,-7.8276,-7.8165,-7.7645,-7.7189,-7.6642,-7.601,-7.5267,-7.4896,-7.4487,-7.4375,-7.445,-7.445,-7.4487,-7.3967,-7.351,-7.3473,-7.3447,-7.3595,-7.3558,-7.3595,-7.3484,-7.3484,-7.341,-7.3372,-7.3372,-7.3372,-7.3372,-7.3372,-7.3372,-7.3372,-7.3372,-7.3372,-7.3372,-7.3372,-7.3372,-7.3372,-7.332,-7.3162,-7.289,-7.2336,-7.1629,-7.0407,-6.914,-6.8219,-7.7091,-7.71,-7.7187,-7.7226,-7.7187,-7.6914,-7.6953,-7.7148,-7.6914,-7.6992,-7.7187,-7.7226,-7.7226,-7.7225,-7.7455,-7.7527,-7.7547,-7.7515,-7.7632,-7.7618,-7.7592,-7.7742,-7.8181,-7.8671,-7.9072,-7.9443,-7.9722,-7.984,-7.9918,-7.9763,-8.0072,-8.0266,-8.0034,-7.9376,-7.8525,-7.7635,-7.7248,-7.7829,-7.8525,-7.9337,-7.9608,-8.0331,-8.0963,-8.0885,-8.0779,-8.0979,-8.1045,-8.1124,-8.1093,-8.1077,-8.1077,-8.1061,-8.0991,-8.0959,-8.091,-8.0826,-8.0667,-8.0523,-8.0257,-7.9696,-7.9128,-7.87,-7.8474,-7.8468,-7.8414,-7.8386,-7.8386,-7.8359,-7.8332,-7.8304,-7.8304,-7.8276,-7.8202,-7.783,-7.7338,-7.6817,-7.6344,-7.5713,-7.5601,-7.5416,-7.5304,-7.5118,-7.5118,-7.5118,-7.471,-7.4338,-7.445,-7.445,-7.4487,-7.4301,-7.393,-7.3818,-7.3595,-7.3484,-7.3372,-7.3372,-7.3372,-7.3372,-7.3372,-7.3372,-7.3372,-7.3372,-7.3372,-7.3372,-7.3372,-7.3372,-7.3372,-7.3346,-7.3278,-7.3091,-7.2393,-7.164,-7.0806,-6.9636,-6.9031,-7.7091,-7.71,-7.7148,-7.7226,-7.7109,-7.6289,-7.6445,-7.707,-7.6484,-7.6562,-7.7148,-7.7226,-7.7265,-7.7422,-7.7966,-7.8197,-7.8389,-7.8406,-7.8614,-7.8897,-7.8491,-7.867,-7.9259,-7.9824,-8.0027,-8.0411,-8.0728,-8.1001,-8.1233,-8.1039,-8.1233,-8.1271,-8.1039,-8.0653,-8.0072,-7.9299,-7.9337,-7.9918,-7.9956,-8.0034,-8.0111,-8.0382,-8.0576,-8.0602,-8.0522,-8.0786,-8.109,-8.1139,-8.1093,-8.1093,-8.1093,-8.1077,-8.1077,-8.1061,-8.0991,-8.0926,-8.0871,-8.0737,-8.0449,-7.9756,-7.9321,-7.9054,-7.8801,-7.8708,-7.8655,-7.8602,-7.8522,-7.8549,-7.8441,-7.8332,-7.8304,-7.8304,-7.823,-7.783,-7.7301,-7.6855,-7.6371,-7.601,-7.5824,-7.6047,-7.5973,-7.5787,-7.5787,-7.575,-7.5416,-7.5304,-7.549,-7.549,-7.5341,-7.5044,-7.4598,-7.4153,-7.393,-7.3658,-7.3547,-7.341,-7.3372,-7.3372,-7.3372,-7.3372,-7.3372,-7.3372,-7.3372,-7.3372,-7.3372,-7.3372,-7.3372,-7.3372,-7.3241,-7.3027,-7.2285,-7.1521,-7.0781,-7.0096,-6.9457,-7.7096,-7.7099,-7.7187,-7.7226,-7.707,-7.6289,-7.6367,-7.707,-7.6914,-7.6914,-7.7148,-7.7226,-7.7578,-7.8008,-7.8319,-7.8747,-7.9214,-7.9287,-7.9545,-7.9606,-7.9338,-7.9744,-8.0188,-8.0517,-8.0786,-8.1165,-8.1526,-8.1491,-8.1452,-8.1491,-8.1491,-8.1491,-8.1452,-8.1001,-8.0188,-7.9492,-7.9183,-7.9453,-7.984,-8.0188,-8.0266,-8.0679,-8.0937,-8.0912,-8.0767,-8.0891,-8.1196,-8.1169,-8.1093,-8.1093,-8.1093,-8.1093,-8.1093,-8.1093,-8.1077,-8.0991,-8.0975,-8.0771,-8.0505,-8.0055,-7.9734,-7.9439,-7.9128,-7.9016,-7.8966,-7.8838,-7.8787,-7.876,-7.8655,-7.8549,-7.8468,-7.8441,-7.8228,-7.7523,-7.7003,-7.6632,-7.626,-7.5973,-7.5899,-7.652,-7.6706,-7.6669,-7.6669,-7.6753,-7.653,-7.6159,-7.627,-7.6047,-7.5861,-7.5601,-7.523,-7.471,-7.4301,-7.3919,-7.3658,-7.351,-7.3372,-7.3372,-7.3372,-7.3372,-7.3372,-7.3372,-7.3372,-7.3372,-7.3372,-7.3372,-7.3372,-7.3346,-7.3241,-7.2881,-7.2248,-7.1583,-7.0878,-7.0271,-6.967,-7.7097,-7.71,-7.7187,-7.7226,-7.707,-7.625,-7.625,-7.6758,-7.7031,-7.7226,-7.7226,-7.7226,-7.7656,-7.8359,-7.8828,-7.9335,-8.0076,-8.0151,-8.0497,-8.0484,-8.0227,-8.0631,-8.0968,-8.112,-8.1281,-8.1575,-8.1577,-8.1491,-8.1491,-8.1491,-8.1491,-8.1491,-8.1491,-8.122,-8.0653,-8.0227,-8.0034,-8.0266,-8.0575,-8.0536,-8.0485,-8.0601,-8.0962,-8.0912,-8.0872,-8.093,-8.1133,-8.1199,-8.1093,-8.1093,-8.1093,-8.1093,-8.1093,-8.1093,-8.1093,-8.1061,-8.1266,-8.1227,-8.1129,-8.1404,-8.1111,-8.0486,-7.9766,-7.9369,-7.9321,-7.9249,-7.9152,-7.9079,-7.8929,-7.8723,-7.8629,-7.8565,-7.8245,-7.7541,-7.7375,-7.7003,-7.6966,-7.678,-7.678,-7.7338,-7.7449,-7.7486,-7.7486,-7.7746,-7.7719,-7.7385,-7.705,-7.6753,-7.6493,-7.627,-7.5899,-7.523,-7.4598,-7.4115,-7.377,-7.3473,-7.3372,-7.3372,-7.3372,-7.3372,-7.3372,-7.3372,-7.3372,-7.3372,-7.3372,-7.3372,-7.3372,-7.3346,-7.3241,-7.2963,-7.248,-7.1799,-7.1042,-7.0443,-6.9813,-7.7097,-7.71,-7.7187,-7.7226,-7.707,-7.6367,-7.6015,-7.6015,-7.6836,-7.7187,-7.7226,-7.7265,-7.789,-7.8672,-7.9375,-8.0195,-8.0898,-8.1014,-8.14,-8.166,-8.1242,-8.1568,-8.1695,-8.1756,-8.165,-8.1613,-8.1577,-8.1491,-8.1491,-8.1491,-8.1491,-8.1491,-8.1491,-8.1375,-8.1259,-8.1143,-8.1066,-8.1078,-8.1117,-8.0949,-8.073,-8.0536,-8.073,-8.0692,-8.0615,-8.0817,-8.1056,-8.1199,-8.1124,-8.1093,-8.1093,-8.1093,-8.1093,-8.1093,-8.1093,-8.1346,-8.182,-8.1963,-8.2242,-8.2621,-8.2336,-8.148,-8.0631,-8.0102,-7.9762,-7.9674,-7.9562,-7.9425,-7.926,-7.9004,-7.8775,-7.8655,-7.8522,-7.8265,-7.8155,-7.8044,-7.8081,-7.8044,-7.8007,-7.8155,-7.8118,-7.8118,-7.8044,-7.8267,-7.823,-7.8053,-7.7756,-7.7942,-7.7645,-7.7236,-7.6716,-7.5639,-7.5007,-7.4338,-7.3892,-7.3447,-7.3372,-7.3372,-7.3372,-7.3372,-7.3372,-7.3372,-7.3372,-7.3372,-7.3372,-7.3372,-7.3372,-7.3372,-7.332,-7.299,-7.265,-7.2005,-7.1264,-7.0577,-6.9991,-7.7097,-7.71,-7.7187,-7.7226,-7.7187,-7.6953,-7.6484,-7.6055,-7.6797,-7.7226,-7.7265,-7.7851,-7.8515,-7.9414,-8.0234,-8.1054,-8.1601,-8.1952,-8.2025,-8.2051,-8.1861,-8.1938,-8.1909,-8.1887,-8.1747,-8.1619,-8.1553,-8.1491,-8.1491,-8.1491,-8.1491,-8.1491,-8.1607,-8.1568,-8.1581,-8.153,-8.1646,-8.162,-8.1658,-8.1298,-8.1155,-8.1039,-8.1039,-8.0963,-8.0911,-8.1115,-8.1186,-8.1229,-8.1154,-8.1093,-8.1093,-8.1093,-8.1093,-8.1131,-8.1246,-8.1885,-8.2221,-8.2424,-8.3,-8.3222,-8.2999,-8.2385,-8.1631,-8.1041,-8.0544,-8.0119,-7.9975,-7.9789,-7.963,-7.9378,-7.9079,-7.8852,-7.8655,-7.8468,-7.8359,-7.8304,-7.8304,-7.8304,-7.8304,-7.8118,-7.8118,-7.8165,-7.823,-7.8304,-7.8304,-7.8304,-7.8415,-7.8611,-7.8573,-7.8128,-7.7375,-7.627,-7.5453,-7.4747,-7.393,-7.3372,-7.3372,-7.3372,-7.3372,-7.3372,-7.3372,-7.3372,-7.3372,-7.3372,-7.3372,-7.3372,-7.3372,-7.3372,-7.3346,-7.3241,-7.2908,-7.2212,-7.1547,-7.0878,-7.0236,-7.7094,-7.7139,-7.7538,-7.789,-7.8164,-7.8164,-7.7851,-7.7422,-7.7265,-7.7344,-7.7773,-7.8242,-7.914,-8.0156,-8.0781,-8.1406,-8.2187,-8.2225,-8.2258,-8.2203,-8.2202,-8.2073,-8.1959,-8.1852,-8.1716,-8.1585,-8.1541,-8.1491,-8.153,-8.153,-8.1491,-8.153,-8.1736,-8.1968,-8.2161,-8.2471,-8.2664,-8.2355,-8.2045,-8.1658,-8.1568,-8.1568,-8.153,-8.1607,-8.1504,-8.1437,-8.133,-8.1297,-8.1169,-8.1108,-8.1093,-8.1093,-8.1093,-8.1131,-8.1477,-8.2131,-8.2715,-8.322,-8.3912,-8.4379,-8.3713,-8.3022,-8.2621,-8.1918,-8.1144,-8.0542,-8.0354,-8.0199,-8.0034,-7.9778,-7.9401,-7.9066,-7.8801,-7.8512,-7.8414,-7.8304,-7.8304,-7.8304,-7.8155,-7.7932,-7.7868,-7.7979,-7.8053,-7.823,-7.8304,-7.8304,-7.8453,-7.8722,-7.8722,-7.8499,-7.7746,-7.6743,-7.5936,-7.5193,-7.4264,-7.3372,-7.3372,-7.3372,-7.3372,-7.3372,-7.3372,-7.3372,-7.3372,-7.3372,-7.3372,-7.3372,-7.3372,-7.3372,-7.3346,-7.3241,-7.3108,-7.2602,-7.1921,-7.1204,-7.0579,-7.7169,-7.7294,-7.8203,-7.8945,-7.9648,-7.9609,-7.957,-7.9531,-7.8125,-7.7851,-7.8515,-7.8711,-7.9648,-8.0703,-8.1211,-8.164,-8.2148,-8.2302,-8.2254,-8.2193,-8.2136,-8.2038,-8.1913,-8.1844,-8.1868,-8.169,-8.1657,-8.1774,-8.1581,-8.1697,-8.1852,-8.1658,-8.2471,-8.2896,-8.2973,-8.3399,-8.3592,-8.3438,-8.2741,-8.2161,-8.2006,-8.1852,-8.1684,-8.1839,-8.1788,-8.1721,-8.1523,-8.1374,-8.1261,-8.1162,-8.1208,-8.1246,-8.1516,-8.1554,-8.1977,-8.2554,-8.3385,-8.4077,-8.4808,-8.5368,-8.4714,-8.4077,-8.3516,-8.2638,-8.1755,-8.0886,-8.0632,-8.0486,-8.0296,-7.9971,-7.9607,-7.9236,-7.8916,-7.8618,-7.8441,-7.8332,-7.8304,-7.8081,-7.757,-7.7422,-7.7496,-7.757,-7.7645,-7.7793,-7.8304,-7.8304,-7.8415,-7.8713,-7.8722,-7.8611,-7.7868,-7.6966,-7.5899,-7.5007,-7.4078,-7.3372,-7.3372,-7.3372,-7.3372,-7.3372,-7.3372,-7.3372,-7.3372,-7.3372,-7.3372,-7.3372,-7.3372,-7.3372,-7.3372,-7.3346,-7.3162,-7.289,-7.2314,-7.1552,-7.0847,-7.7481,-7.8194,-7.9023,-7.957,-7.9687,-7.9726,-7.9765,-7.9687,-7.9336,-7.9219,-7.9492,-8.0078,-8.0586,-8.1054,-8.1679,-8.2109,-8.2226,-8.2301,-8.2251,-8.2179,-8.2118,-8.2007,-8.1981,-8.2194,-8.2084,-8.1952,-8.1929,-8.2122,-8.189,-8.2122,-8.2509,-8.2587,-8.3322,-8.3786,-8.3786,-8.425,-8.4327,-8.4366,-8.394,-8.3476,-8.3476,-8.3476,-8.3476,-8.3399,-8.3321,-8.283,-8.2568,-8.2266,-8.1754,-8.1354,-8.1785,-8.2285,-8.2978,-8.2939,-8.3401,-8.4132,-8.4362,-8.4901,-8.5478,-8.5824,-8.517,-8.4209,-8.3478,-8.2901,-8.2215,-8.1365,-8.0882,-8.0744,-8.0563,-8.0215,-7.9762,-7.9364,-7.9016,-7.8723,-7.8441,-7.8359,-7.8304,-7.7682,-7.7087,-7.6939,-7.7013,-7.7162,-7.7236,-7.7608,-7.8118,-7.8304,-7.8304,-7.8453,-7.8564,-7.849,-7.7746,-7.678,-7.5527,-7.4561,-7.3744,-7.3372,-7.3372,-7.3372,-7.3372,-7.3372,-7.3398,-7.3372,-7.3372,-7.3372,-7.3372,-7.3372,-7.3372,-7.3372,-7.3372,-7.3372,-7.3268,-7.3027,-7.2602,-7.1951,-7.1139,-7.794,-7.8545,-7.9765,-8.0508,-8.082,-8.0859,-8.0859,-8.0859,-8.0859,-8.0859,-8.0781,-8.0976,-8.1172,-8.1484,-8.2109,-8.2304,-8.2304,-8.2304,-8.225,-8.2179,-8.2104,-8.198,-8.2111,-8.228,-8.1945,-8.1799,-8.2367,-8.2548,-8.2277,-8.2896,-8.3399,-8.3515,-8.4173,-8.4637,-8.4675,-8.4908,-8.514,-8.5256,-8.514,-8.5101,-8.4946,-8.4637,-8.4173,-8.4095,-8.4005,-8.3668,-8.347,-8.3129,-8.277,-8.2448,-8.2708,-8.2939,-8.3401,-8.3439,-8.3978,-8.4555,-8.4901,-8.5247,-8.5824,-8.5863,-8.5286,-8.417,-8.3555,-8.3054,-8.2439,-8.1667,-8.1601,-8.1483,-8.1469,-8.1175,-8.0043,-7.9471,-7.9066,-7.8749,-7.8421,-7.8192,-7.7868,-7.7347,-7.6456,-7.5601,-7.6047,-7.6827,-7.705,-7.7645,-7.8081,-7.8304,-7.8304,-7.8573,-7.8611,-7.8304,-7.7561,-7.678,-7.5639,-7.4487,-7.3632,-7.3372,-7.3372,-7.3372,-7.351,-7.3435,-7.3435,-7.3398,-7.3372,-7.3372,-7.3372,-7.3372,-7.3372,-7.3372,-7.3372,-7.3372,-7.3294,-7.3162,-7.2714,-7.2248,-7.1552,-7.8476,-7.8936,-8.0507,-8.1562,-8.2226,-8.2265,-8.2226,-8.2226,-8.2265,-8.2226,-8.207,-8.1445,-8.1719,-8.207,-8.2304,-8.2304,-8.2304,-8.2304,-8.225,-8.2182,-8.2133,-8.198,-8.1926,-8.1931,-8.2061,-8.2237,-8.2638,-8.2935,-8.3012,-8.3747,-8.4289,-8.4405,-8.4908,-8.5449,-8.5681,-8.6068,-8.6377,-8.6261,-8.6261,-8.6416,-8.5952,-8.5256,-8.483,-8.4559,-8.4392,-8.4287,-8.4074,-8.3924,-8.3864,-8.3711,-8.3632,-8.3978,-8.417,-8.4324,-8.4555,-8.5093,-8.5247,-8.5555,-8.5901,-8.5863,-8.4939,-8.4055,-8.3708,-8.317,-8.2516,-8.2407,-8.2342,-8.222,-8.219,-8.1498,-8.0376,-7.9539,-7.9177,-7.8749,-7.841,-7.7895,-7.7385,-7.6939,-7.5936,-7.4821,-7.5453,-7.6382,-7.7013,-7.7608,-7.8007,-7.823,-7.849,-7.8759,-7.8796,-7.8128,-7.7422,-7.6855,-7.6074,-7.4922,-7.3818,-7.3855,-7.4041,-7.3807,-7.3881,-7.3621,-7.3435,-7.3435,-7.3372,-7.3372,-7.3372,-7.3372,-7.3372,-7.3372,-7.3372,-7.3372,-7.3346,-7.3215,-7.2863,-7.2401,-7.186,-7.9182,-8.0582,-8.164,-8.2148,-8.2304,-8.2304,-8.2304,-8.2304,-8.2304,-8.2304,-8.2265,-8.2226,-8.2226,-8.2304,-8.2304,-8.2304,-8.2304,-8.2299,-8.225,-8.2188,-8.2133,-8.198,-8.2111,-8.252,-8.3057,-8.3217,-8.3244,-8.3244,-8.3863,-8.4637,-8.5101,-8.514,-8.5875,-8.6261,-8.6339,-8.6571,-8.6455,-8.6416,-8.6377,-8.6339,-8.6494,-8.6145,-8.6261,-8.6145,-8.6145,-8.5587,-8.5154,-8.4879,-8.4327,-8.408,-8.4286,-8.4863,-8.5132,-8.5286,-8.5478,-8.5517,-8.567,-8.5786,-8.5978,-8.5593,-8.4632,-8.3785,-8.3401,-8.3016,-8.2824,-8.317,-8.305,-8.2838,-8.2465,-8.1423,-8.0376,-7.9683,-7.9212,-7.8775,-7.8404,-7.7476,-7.6753,-7.6382,-7.5787,-7.5378,-7.5527,-7.6307,-7.7013,-7.7608,-7.8155,-7.8304,-7.8304,-7.8573,-7.8573,-7.7942,-7.7459,-7.705,-7.6604,-7.5554,-7.4561,-7.4933,-7.5007,-7.4662,-7.4216,-7.3919,-7.3621,-7.3435,-7.3372,-7.3372,-7.3372,-7.3372,-7.3372,-7.3372,-7.3372,-7.3372,-7.3372,-7.3268,-7.2945,-7.2553,-7.2048]},{"header":{"parameterUnit":"m.s-1","parameterCategory":1,"la1":31.0,"la2":29.5877,"lo1":-88.7671,"lo2":-86.6584,"dx":0.0162,"dy":0.0185,"nx":115,"ny":88,"refTime":"2023-01-15T06:00:00:Z","depth":0,"parameterNumber":3,"parameterNumberName":"V-component_of_WINDS"},"data":[0.0,0.0,0.0,0.0,0.0,0.0,0.0,0.0,0.0,0.0,0.0,0.0,0.0,0.0,0.0,0.0,0.0,0.0,0.0,0.0,0.0,0.0,0.0,0.0,0.0,0.0,0.0,0.0,0.0,0.0,0.0,0.0,0.0,0.0,0.0,0.0,0.0,0.0,0.0,0.0,0.0,0.0,0.0,0.0,0.0,0.0,0.0,0.0,0.0,0.0,0.0,0.0,0.0,0.0,0.0,0.0,0.0,0.0,0.0,0.0,0.0,0.0,0.0,0.0,0.0,0.0,0.0,0.0,0.0,0.0,0.0,0.0,0.0,0.0,0.0,0.0,0.0,0.0,0.0,0.0,0.0,0.0,0.0,0.0,0.0,0.0,0.0,0.0,0.0,0.0,0.0,0.0,0.0,0.0,0.0,0.0,0.0,0.0,0.0,0.0,0.0,0.0,0.0,0.0,0.0,0.0,0.0,0.0,0.0,0.0,0.0,0.0,0.0,0.0,0.0,0.0,0.0,0.0,0.0,0.0,0.0,0.0,0.0,0.0,0.0,0.0,0.0,0.0,0.0,0.0,0.0,0.0,0.0,0.0,0.0,0.0,0.0,0.0,0.0,0.0,0.0,0.0,0.0,0.0,0.0,0.0,0.0,0.0,0.0,0.0,0.0,0.0,0.0,0.0,0.0,0.0,0.0,0.0,0.0,0.0,0.0,0.0,0.0,0.0,0.0,0.0,0.0,0.0,0.0,0.0,0.0,0.0,0.0,0.0,0.0,0.0,0.0,0.0,0.0,0.0,0.0,0.0,0.0,0.0,0.0,0.0,0.0,0.0,0.0,0.0,0.0,0.0,0.0,0.0,0.0,0.0,0.0,0.0,0.0,0.0,0.0,0.0,0.0,0.0,0.0,0.0,0.0,0.0,0.0,0.0,0.0,0.0,0.0,0.0,0.0,0.0,0.0,0.0,0.0,0.0,0.0,0.0,0.0,0.0,0.0,0.0,0.0,0.0,0.0,0.0,0.0,0.0,0.0,0.0,0.0,0.0,0.0,0.0,0.0,0.0,0.0,0.0,0.0,0.0,0.0,0.0,0.0,0.0,0.0,0.0,0.0,0.0,0.0,0.0,0.0,0.0,0.0,0.0,0.0,0.0,0.0,0.0,0.0,0.0,0.0,0.0,0.0,0.0,0.0,0.0,0.0,0.0,0.0,0.0,0.0,0.0,0.0,0.0,0.0,0.0,0.0,0.0,0.0,0.0,0.0,0.0,0.0,0.0,0.0,0.0,0.0,0.0,0.0,0.0,0.0,0.0,0.0,0.0,0.0,0.0,0.0,0.0,0.0,0.0,0.0,0.0,0.0,0.0,0.0,0.0,0.0,0.0,0.0,0.0,0.0,0.0,0.0,0.0,0.0,0.0,0.0,0.0,0.0,0.0,0.0,0.0,0.0,0.0,0.0,0.0,0.0,0.0,0.0,0.0,0.0,0.0,0.0,0.0,0.0,0.0,0.0,0.0,0.0,0.0,0.0,0.0,0.0,0.0,0.0,0.0,0.0,0.0,0.0,0.0,0.0,0.0,0.0,0.0,0.0,0.0,0.0,0.0,0.0,0.0,0.0,0.0,0.0,0.0,0.0,0.0,0.0,0.0,0.0,0.0,0.0,0.0,0.0,0.0,0.0,0.0,0.0,0.0,0.0,0.0,0.0,0.0,0.0,0.0,0.0,0.0,0.0,0.0,0.0,0.0,0.0,0.0,0.0,0.0,0.0,0.0,0.0,0.0,0.0,0.0,0.0,0.0,0.0,0.0,0.0,0.0,0.0,0.0,0.0,0.0,0.0,0.0,0.0,0.0,0.0,0.0,0.0,0.0,0.0,0.0,0.0,0.0,0.0,0.0,0.0,0.0,0.0,0.0,0.0,0.0,0.0,0.0,0.0,0.0,0.0,0.0,0.0,0.0,0.0,0.0,0.0,0.0,0.0,0.0,0.0,0.0,0.0,0.0,0.0,0.0,0.0,0.0,0.0,0.0,0.0,0.0,0.0,0.0,0.0,0.0,0.0,0.0,0.0,0.0,0.0,0.0,0.0,0.0,0.0,0.0,0.0,0.0,0.0,0.0,0.0,0.0,0.0,0.0,0.0,0.0,0.0,0.0,0.0,0.0,0.0,0.0,0.0,0.0,0.0,0.0,0.0,0.0,0.0,0.0,0.0,0.0,0.0,0.0,0.0,0.0,0.0,0.0,0.0,0.0,0.0,0.0,0.0,0.0,0.0,0.0,0.0,0.0,0.0,0.0,0.0,0.0,0.0,0.0,0.0,0.0,0.0,0.0,0.0,0.0,0.0,0.0,0.0,0.0,0.0,0.0,0.0,0.0,0.0,0.0,0.0,0.0,0.0,0.0,0.0,0.0,0.0,0.0,0.0,0.0,0.0,0.0,0.0,0.0,0.0,0.0,0.0,0.0,0.0,0.0,0.0,0.0,0.0,0.0,0.0,0.0,0.0,0.0,0.0,0.0,0.0,0.0,0.0,0.0,0.0,0.0,0.0,0.0,0.0,0.0,0.0,0.0,0.0,0.0,0.0,0.0,0.0,0.0,0.0,0.0,0.0,0.0,0.0,0.0,0.0,0.0,0.0,0.0,0.0,0.0,0.0,0.0,0.0,0.0,0.0,0.0,0.0,0.0,0.0,0.0,0.0,0.0,0.0,0.0,0.0,0.0,0.0,0.0,0.0,0.0,0.0,0.0,0.0,0.0,0.0,0.0,0.0,0.0,0.0,0.0,0.0,0.0,0.0,0.0,0.0,0.0,0.0,0.0,0.0,0.0,0.0,0.0,0.0,0.0,0.0,0.0,0.0,0.0,0.0,0.0,0.0,0.0,0.0,0.0,0.0,0.0,0.0,0.0,0.0,0.0,0.0,0.0,0.0,0.0,0.0,0.0,0.0,0.0,0.0,0.0,0.0,0.0,0.0,0.0,0.0,0.0,0.0,0.0,0.0,0.0,0.0,0.0,0.0,0.0,0.0,0.0,0.0,0.0,0.0,0.0,0.0,0.0,0.0,0.0,0.0,0.0,0.0,0.0,0.0,0.0,0.0,0.0,0.0,0.0,0.0,0.0,0.0,0.0,0.0,0.0,0.0,0.0,0.0,0.0,0.0,0.0,0.0,0.0,0.0,0.0,0.0,0.0,0.0,0.0,0.0,0.0,0.0,0.0,0.0,0.0,0.0,0.0,0.0,0.0,0.0,0.0,0.0,0.0,0.0,0.0,0.0,0.0,0.0,0.0,0.0,0.0,0.0,0.0,0.0,0.0,0.0,0.0,0.0,0.0,0.0,0.0,0.0,0.0,0.0,0.0,0.0,0.0,0.0,0.0,0.0,0.0,0.0,0.0,0.0,0.0,0.0,0.0,0.0,0.0,0.0,0.0,0.0,0.0,0.0,0.0,0.0,0.0,0.0,0.0,0.0,0.0,0.0,0.0,0.0,0.0,0.0,0.0,0.0,0.0,0.0,0.0,0.0,0.0,0.0,0.0,0.0,0.0,0.0,0.0,0.0,0.0,0.0,0.0,0.0,0.0,0.0,0.0,0.0,0.0,0.0,0.0,0.0,0.0,0.0,0.0,0.0,0.0,0.0,0.0,0.0,0.0,0.0,0.0,0.0,0.0,0.0,0.0,0.0,0.0,0.0,0.0,0.0,0.0,0.0,0.0,0.0,0.0,0.0,0.0,0.0,0.0,0.0,0.0,0.0,0.0,0.0,0.0,0.0,0.0,0.0,0.0,0.0,0.0,0.0,0.0,0.0,0.0,0.0,0.0,0.0,0.0,0.0,0.0,0.0,0.0,0.0,0.0,0.0,0.0,0.0,0.0,0.0,0.0,0.0,0.0,0.0,0.0,0.0,0.0,0.0,0.0,0.0,0.0,0.0,0.0,0.0,0.0,0.0,0.0,0.0,0.0,0.0,0.0,0.0,0.0,0.0,0.0,0.0,0.0,0.0,0.0,0.0,0.0,0.0,0.0,0.0,0.0,0.0,0.0,0.0,0.0,0.0,0.0,0.0,0.0,0.0,0.0,0.0,0.0,0.0,0.0,0.0,0.0,0.0,0.0,0.0,0.0,0.0,0.0,0.0,0.0,0.0,0.0,0.0,0.0,0.0,0.0,0.0,0.0,0.0,0.0,0.0,0.0,0.0,0.0,0.0,0.0,0.0,0.0,0.0,0.0,0.0,0.0,0.0,0.0,0.0,0.0,0.0,0.0,0.0,0.0,0.0,0.0,2.4181,0.0,0.0,0.0,0.0,0.0,0.0,0.0,0.0,0.0,0.0,0.0,0.0,0.0,0.0,0.0,0.0,0.0,0.0,0.0,0.0,0.0,0.0,0.0,0.0,0.0,0.0,0.0,0.0,0.0,0.0,0.0,0.0,0.0,0.0,0.0,0.0,0.0,0.0,0.0,0.0,0.0,0.0,0.0,0.0,0.0,0.0,0.0,0.0,0.0,0.0,0.0,0.0,0.0,0.0,0.0,0.0,0.0,0.0,0.0,0.0,0.0,0.0,0.0,0.0,0.0,0.0,0.0,0.0,0.0,0.0,0.0,0.0,0.0,0.0,0.0,0.0,0.0,0.0,0.0,0.0,0.0,0.0,0.0,0.0,0.0,0.0,0.0,0.0,0.0,0.0,0.0,0.0,0.0,0.0,0.0,0.0,0.0,0.0,0.0,0.0,0.0,0.0,0.0,0.0,0.0,0.0,0.0,0.0,0.0,0.0,2.4513,2.4513,2.4338,2.4255,2.4255,0.0,0.0,0.0,0.0,0.0,0.0,0.0,0.0,0.0,0.0,0.0,0.0,0.0,0.0,0.0,0.0,0.0,0.0,0.0,0.0,0.0,0.0,0.0,0.0,0.0,0.0,0.0,0.0,0.0,0.0,0.0,0.0,0.0,0.0,0.0,0.0,0.0,0.0,0.0,0.0,0.0,0.0,0.0,0.0,0.0,0.0,0.0,0.0,0.0,0.0,0.0,0.0,0.0,0.0,0.0,0.0,0.0,0.0,0.0,0.0,0.0,0.0,0.0,0.0,0.0,0.0,0.0,0.0,0.0,0.0,0.0,0.0,0.0,0.0,0.0,0.0,0.0,0.0,0.0,0.0,0.0,0.0,0.0,0.0,0.0,0.0,0.0,0.0,0.0,0.0,0.0,0.0,0.0,0.0,0.0,0.0,0.0,0.0,0.0,0.0,0.0,0.0,0.0,0.0,0.0,0.0,0.0,0.0,0.0,0.0,0.0,0.0,2.4493,2.4338,2.4317,0.0,0.0,0.0,0.0,0.0,0.0,0.0,0.0,0.0,0.0,0.0,0.0,0.0,0.0,0.0,0.0,0.0,0.0,0.0,0.0,0.0,0.0,0.0,0.0,0.0,0.0,0.0,0.0,0.0,0.0,0.0,0.0,0.0,0.0,0.0,0.0,0.0,0.0,0.0,0.0,0.0,0.0,0.0,0.0,0.0,0.0,0.0,0.0,0.0,0.0,0.0,0.0,0.0,0.0,0.0,0.0,0.0,0.0,0.0,0.0,0.0,0.0,0.0,0.0,0.0,0.0,0.0,0.0,0.0,0.0,0.0,0.0,0.0,0.0,0.0,0.0,0.0,0.0,0.0,0.0,0.0,0.0,0.0,0.0,0.0,0.0,0.0,0.0,0.0,0.0,0.0,0.0,0.0,0.0,0.0,0.0,0.0,0.0,0.0,0.0,0.0,0.0,0.0,0.0,0.0,0.0,0.0,0.0,0.0,0.0,2.5019,2.556,2.4865,0.0,2.4317,0.0,0.0,0.0,0.0,0.0,0.0,0.0,0.0,0.0,0.0,0.0,0.0,0.0,0.0,0.0,0.0,0.0,0.0,0.0,0.0,0.0,0.0,0.0,0.0,0.0,0.0,0.0,0.0,0.0,0.0,0.0,0.0,0.0,0.0,0.0,0.0,0.0,0.0,0.0,0.0,0.0,0.0,0.0,0.0,0.0,0.0,0.0,0.0,0.0,0.0,0.0,0.0,0.0,0.0,0.0,0.0,0.0,0.0,0.0,0.0,0.0,0.0,0.0,0.0,0.0,0.0,0.0,0.0,0.0,0.0,0.0,0.0,0.0,0.0,0.0,0.0,0.0,0.0,0.0,0.0,0.0,0.0,0.0,0.0,0.0,0.0,0.0,0.0,0.0,0.0,0.0,0.0,0.0,0.0,0.0,0.0,0.0,0.0,0.0,0.0,0.0,0.0,0.0,0.0,0.0,0.0,0.0,0.0,0.0,0.0,2.531,2.56,2.5521,2.5277,0.0,0.0,0.0,0.0,0.0,0.0,0.0,0.0,0.0,0.0,0.0,0.0,0.0,0.0,0.0,0.0,0.0,0.0,0.0,0.0,0.0,0.0,0.0,0.0,0.0,0.0,0.0,0.0,0.0,0.0,0.0,0.0,0.0,0.0,0.0,0.0,0.0,0.0,0.0,0.0,0.0,0.0,0.0,0.0,0.0,0.0,0.0,0.0,0.0,0.0,0.0,0.0,0.0,0.0,0.0,0.0,0.0,0.0,0.0,0.0,0.0,0.0,0.0,0.0,0.0,0.0,0.0,0.0,0.0,0.0,0.0,0.0,0.0,0.0,0.0,0.0,0.0,0.0,0.0,0.0,0.0,0.0,0.0,0.0,0.0,0.0,0.0,0.0,0.0,0.0,0.0,0.0,0.0,0.0,0.0,0.0,0.0,0.0,0.0,0.0,0.0,0.0,0.0,0.0,0.0,0.0,0.0,0.0,0.0,0.0,2.5278,2.5512,2.5685,2.613,2.6001,2.5213,0.0,0.0,0.0,0.0,0.0,0.0,0.0,0.0,0.0,0.0,0.0,0.0,0.0,0.0,0.0,0.0,0.0,0.0,0.0,0.0,0.0,0.0,0.0,0.0,0.0,0.0,0.0,0.0,0.0,0.0,0.0,0.0,0.0,0.0,0.0,0.0,0.0,0.0,0.0,0.0,0.0,0.0,0.0,0.0,0.0,0.0,0.0,0.0,0.0,0.0,0.0,0.0,0.0,0.0,0.0,0.0,0.0,0.0,0.0,0.0,0.0,0.0,0.0,0.0,0.0,0.0,0.0,0.0,0.0,0.0,0.0,0.0,0.0,0.0,0.0,0.0,0.0,0.0,0.0,0.0,0.0,0.0,0.0,0.0,0.0,0.0,0.0,0.0,0.0,0.0,0.0,0.0,0.0,0.0,0.0,0.0,0.0,0.0,0.0,0.0,0.0,0.0,0.0,0.0,0.0,0.0,0.0,0.0,0.0,2.5333,2.5553,2.6092,2.6522,2.6434,0.0,0.0,0.0,0.0,0.0,0.0,0.0,0.0,0.0,0.0,0.0,0.0,0.0,0.0,0.0,0.0,0.0,0.0,0.0,0.0,0.0,0.0,0.0,0.0,0.0,0.0,0.0,0.0,0.0,0.0,0.0,0.0,0.0,0.0,0.0,0.0,0.0,0.0,0.0,0.0,0.0,0.0,0.0,0.0,0.0,0.0,0.0,0.0,0.0,0.0,0.0,0.0,0.0,0.0,0.0,0.0,0.0,0.0,0.0,0.0,0.0,0.0,0.0,0.0,0.0,0.0,0.0,0.0,0.0,0.0,0.0,0.0,0.0,0.0,0.0,0.0,0.0,0.0,0.0,0.0,0.0,0.0,0.0,0.0,0.0,0.0,0.0,0.0,0.0,0.0,0.0,0.0,0.0,0.0,0.0,0.0,0.0,0.0,0.0,0.0,0.0,0.0,0.0,0.0,0.0,0.0,0.0,0.0,0.0,2.4984,2.5902,2.664,2.7188,2.7284,2.6956,0.0,0.0,0.0,0.0,0.0,0.0,0.0,0.0,0.0,0.0,0.0,0.0,0.0,0.0,0.0,0.0,0.0,0.0,0.0,0.0,0.0,0.0,0.0,0.0,0.0,0.0,0.0,0.0,0.0,0.0,0.0,0.0,0.0,0.0,0.0,0.0,0.0,0.0,0.0,0.0,0.0,0.0,0.0,0.0,0.0,0.0,0.0,0.0,0.0,0.0,0.0,0.0,0.0,0.0,0.0,0.0,0.0,0.0,0.0,0.0,0.0,0.0,0.0,0.0,0.0,0.0,0.0,0.0,0.0,0.0,0.0,0.0,0.0,0.0,0.0,0.0,0.0,0.0,0.0,0.0,0.0,0.0,0.0,0.0,0.0,0.0,0.0,0.0,0.0,0.0,0.0,0.0,0.0,0.0,0.0,0.0,0.0,0.0,0.0,0.0,0.0,0.0,0.0,0.0,0.0,0.0,0.0,0.0,0.0,2.5332,0.0,2.7338,2.7635,2.759,2.7229,0.0,0.0,0.0,0.0,0.0,0.0,0.0,0.0,0.0,0.0,0.0,0.0,0.0,0.0,0.0,0.0,0.0,0.0,0.0,0.0,0.0,0.0,0.0,0.0,0.0,0.0,0.0,0.0,0.0,0.0,0.0,0.0,0.0,0.0,0.0,0.0,0.0,0.0,0.0,0.0,0.0,0.0,0.0,0.0,0.0,0.0,0.0,0.0,0.0,0.0,0.0,0.0,0.0,0.0,0.0,0.0,0.0,0.0,0.0,0.0,0.0,0.0,0.0,0.0,0.0,0.0,0.0,0.0,0.0,0.0,0.0,0.0,0.0,0.0,0.0,0.0,0.0,0.0,0.0,0.0,0.0,0.0,0.0,0.0,0.0,0.0,0.0,0.0,0.0,0.0,0.0,0.0,0.0,0.0,0.0,0.0,0.0,0.0,0.0,0.0,0.0,0.0,0.0,0.0,0.0,0.0,0.0,0.0,2.487,2.6352,2.7185,2.7599,2.7446,2.7446,2.7237,0.0,0.0,0.0,0.0,0.0,0.0,0.0,0.0,0.0,0.0,0.0,0.0,0.0,0.0,0.0,0.0,0.0,0.0,0.0,0.0,0.0,0.0,0.0,0.0,0.0,0.0,0.0,0.0,0.0,0.0,0.0,0.0,0.0,0.0,0.0,0.0,0.0,0.0,0.0,0.0,0.0,0.0,0.0,0.0,0.0,0.0,0.0,0.0,0.0,0.0,0.0,0.0,0.0,0.0,0.0,0.0,0.0,0.0,0.0,0.0,0.0,0.0,0.0,0.0,0.0,0.0,0.0,0.0,0.0,0.0,0.0,0.0,0.0,0.0,0.0,0.0,0.0,0.0,0.0,0.0,0.0,0.0,0.0,0.0,0.0,0.0,0.0,0.0,0.0,0.0,0.0,0.0,0.0,0.0,0.0,0.0,0.0,0.0,0.0,0.0,0.0,0.0,0.0,0.0,0.0,0.0,0.0,0.0,0.0,2.6886,2.8027,2.8616,2.8562,2.7959,2.7538,0.0,0.0,0.0,0.0,0.0,0.0,0.0,0.0,0.0,0.0,0.0,0.0,0.0,0.0,0.0,0.0,0.0,0.0,0.0,0.0,0.0,0.0,0.0,0.0,0.0,0.0,0.0,0.0,0.0,0.0,0.0,0.0,0.0,0.0,0.0,0.0,0.0,0.0,0.0,0.0,0.0,0.0,0.0,0.0,0.0,0.0,0.0,0.0,0.0,0.0,0.0,0.0,0.0,0.0,0.0,0.0,0.0,0.0,0.0,0.0,0.0,0.0,0.0,0.0,0.0,0.0,0.0,0.0,0.0,0.0,0.0,0.0,0.0,0.0,0.0,0.0,0.0,0.0,0.0,0.0,0.0,0.0,0.0,0.0,0.0,0.0,0.0,0.0,0.0,0.0,0.0,0.0,0.0,0.0,0.0,0.0,0.0,0.0,0.0,0.0,0.0,0.0,0.0,0.0,0.0,0.0,0.0,0.0,0.0,2.8196,2.8882,2.9227,2.917,2.8594,2.8019,2.7448,0.0,0.0,0.0,0.0,0.0,0.0,0.0,0.0,0.0,0.0,0.0,0.0,0.0,0.0,0.0,0.0,0.0,0.0,0.0,0.0,0.0,0.0,0.0,0.0,0.0,0.0,0.0,0.0,0.0,0.0,0.0,0.0,0.0,0.0,0.0,0.0,0.0,0.0,0.0,0.0,0.0,0.0,0.0,0.0,0.0,0.0,0.0,0.0,0.0,0.0,0.0,0.0,0.0,0.0,0.0,0.0,0.0,0.0,0.0,0.0,0.0,0.0,0.0,0.0,0.0,0.0,0.0,0.0,0.0,0.0,0.0,0.0,0.0,0.0,0.0,0.0,0.0,0.0,0.0,0.0,0.0,0.0,0.0,0.0,0.0,0.0,0.0,0.0,0.0,0.0,0.0,0.0,0.0,0.0,0.0,0.0,0.0,0.0,0.0,0.0,0.0,0.0,0.0,0.0,0.0,0.0,0.0,0.0,3.0201,2.987,2.9633,2.9458,2.9372,2.8625,0.0,0.0,0.0,0.0,0.0,0.0,0.0,0.0,0.0,0.0,0.0,0.0,0.0,0.0,0.0,0.0,0.0,0.0,0.0,0.0,0.0,0.0,0.0,0.0,0.0,0.0,0.0,0.0,0.0,0.0,0.0,0.0,0.0,0.0,0.0,0.0,0.0,0.0,0.0,0.0,0.0,0.0,0.0,0.0,0.0,0.0,0.0,0.0,0.0,0.0,0.0,0.0,0.0,0.0,0.0,0.0,0.0,0.0,0.0,0.0,0.0,0.0,0.0,0.0,0.0,0.0,0.0,0.0,0.0,0.0,0.0,0.0,0.0,0.0,0.0,0.0,0.0,0.0,0.0,0.0,0.0,0.0,0.0,0.0,0.0,0.0,0.0,0.0,0.0,0.0,0.0,0.0,0.0,0.0,0.0,0.0,0.0,0.0,0.0,0.0,0.0,0.0,0.0,0.0,0.0,0.0,0.0,0.0,0.0,3.1482,3.1877,3.1764,3.1216,3.0229,2.9261,0.0,0.0,0.0,0.0,0.0,0.0,0.0,0.0,0.0,0.0,0.0,0.0,0.0,0.0,0.0,0.0,0.0,0.0,0.0,0.0,0.0,0.0,0.0,0.0,0.0,0.0,0.0,0.0,0.0,0.0,0.0,0.0,0.0,0.0,0.0,0.0,0.0,0.0,0.0,0.0,0.0,0.0,0.0,0.0,0.0,0.0,0.0,0.0,0.0,0.0,0.0,0.0,0.0,0.0,0.0,0.0,0.0,0.0,0.0,0.0,0.0,0.0,0.0,0.0,0.0,0.0,0.0,0.0,0.0,0.0,0.0,0.0,0.0,0.0,0.0,0.0,0.0,0.0,0.0,0.0,0.0,0.0,0.0,0.0,0.0,0.0,0.0,0.0,0.0,0.0,0.0,0.0,0.0,0.0,0.0,0.0,0.0,0.0,0.0,0.0,0.0,0.0,0.0,0.0,0.0,0.0,0.0,0.0,3.0851,3.276,3.3403,3.3492,3.3057,3.1717,3.04,0.0,0.0,0.0,0.0,0.0,0.0,0.0,0.0,0.0,0.0,0.0,0.0,0.0,0.0,0.0,0.0,0.0,0.0,0.0,0.0,0.0,0.0,0.0,0.0,0.0,0.0,0.0,0.0,0.0,0.0,0.0,0.0,0.0,0.0,0.0,0.0,0.0,0.0,0.0,0.0,0.0,0.0,0.0,0.0,0.0,0.0,0.0,0.0,0.0,0.0,0.0,0.0,0.0,0.0,0.0,0.0,0.0,0.0,0.0,0.0,0.0,0.0,0.0,0.0,0.0,0.0,0.0,0.0,0.0,0.0,0.0,0.0,0.0,0.0,0.0,0.0,0.0,0.0,0.0,0.0,0.0,0.0,0.0,0.0,0.0,0.0,0.0,0.0,0.0,0.0,0.0,0.0,0.0,0.0,0.0,0.0,0.0,0.0,0.0,0.0,0.0,0.0,0.0,0.0,0.0,0.0,0.0,0.0,3.171,3.3683,3.4339,3.4627,3.4616,3.3208,3.1635,0.0,0.0,0.0,0.0,0.0,0.0,0.0,0.0,0.0,0.0,0.0,0.0,0.0,0.0,0.0,0.0,0.0,0.0,0.0,0.0,0.0,0.0,0.0,0.0,0.0,0.0,0.0,0.0,0.0,0.0,0.0,0.0,0.0,0.0,0.0,0.0,0.0,0.0,0.0,0.0,0.0,0.0,0.0,0.0,0.0,0.0,0.0,0.0,0.0,0.0,0.0,0.0,0.0,0.0,0.0,0.0,0.0,0.0,0.0,0.0,0.0,0.0,0.0,0.0,0.0,0.0,0.0,0.0,0.0,0.0,0.0,0.0,0.0,0.0,0.0,0.0,0.0,0.0,0.0,0.0,0.0,0.0,0.0,0.0,0.0,0.0,0.0,0.0,0.0,0.0,0.0,0.0,0.0,0.0,0.0,0.0,0.0,0.0,0.0,0.0,0.0,0.0,0.0,0.0,0.0,0.0,0.0,0.0,3.2041,3.3394,3.3981,3.4305,3.4305,3.3067,3.1702,0.0,0.0,0.0,0.0,0.0,0.0,0.0,0.0,0.0,0.0,0.0,0.0,0.0,0.0,0.0,0.0,0.0,0.0,0.0,0.0,0.0,0.0,0.0,0.0,0.0,0.0,0.0,0.0,0.0,0.0,0.0,0.0,0.0,0.0,0.0,0.0,0.0,0.0,0.0,0.0,0.0,0.0,0.0,0.0,0.0,0.0,0.0,0.0,3.1913,0.0,0.0,0.0,0.0,0.0,0.0,0.0,0.0,0.0,0.0,0.0,0.0,0.0,0.0,0.0,0.0,0.0,0.0,0.0,0.0,0.0,0.0,0.0,0.0,0.0,0.0,0.0,0.0,0.0,0.0,0.0,0.0,0.0,0.0,0.0,0.0,0.0,0.0,0.0,0.0,0.0,0.0,0.0,0.0,0.0,0.0,0.0,0.0,0.0,0.0,0.0,0.0,0.0,0.0,0.0,0.0,0.0,0.0,0.0,3.2566,3.4262,3.4634,3.4659,3.4401,3.324,3.2002,0.0,0.0,0.0,0.0,0.0,0.0,0.0,0.0,0.0,0.0,0.0,0.0,0.0,0.0,0.0,0.0,0.0,0.0,0.0,0.0,0.0,0.0,0.0,0.0,0.0,0.0,0.0,0.0,0.0,0.0,0.0,0.0,0.0,0.0,0.0,0.0,0.0,0.0,0.0,0.0,0.0,0.0,0.0,0.0,0.0,0.0,0.0,0.0,0.0,0.0,0.0,0.0,0.0,0.0,0.0,0.0,0.0,0.0,0.0,0.0,0.0,0.0,0.0,0.0,0.0,0.0,0.0,0.0,0.0,0.0,0.0,0.0,0.0,0.0,0.0,0.0,0.0,0.0,0.0,0.0,0.0,0.0,0.0,0.0,0.0,0.0,0.0,0.0,0.0,0.0,0.0,0.0,0.0,0.0,0.0,0.0,0.0,0.0,0.0,0.0,0.0,0.0,0.0,0.0,0.0,0.0,0.0,3.0925,3.2832,3.4888,3.4988,3.4739,3.4169,3.2968,3.1862,3.0887,0.0,0.0,0.0,0.0,0.0,0.0,0.0,0.0,0.0,0.0,0.0,0.0,0.0,0.0,0.0,0.0,0.0,0.0,0.0,0.0,0.0,0.0,0.0,0.0,0.0,0.0,0.0,0.0,0.0,0.0,0.0,0.0,0.0,0.0,0.0,0.0,0.0,0.0,3.0347,3.111,0.0,0.0,0.0,0.0,0.0,0.0,0.0,0.0,3.4561,0.0,0.0,0.0,0.0,0.0,0.0,0.0,0.0,0.0,0.0,0.0,0.0,0.0,0.0,0.0,0.0,0.0,0.0,0.0,0.0,0.0,0.0,0.0,0.0,0.0,0.0,0.0,0.0,0.0,0.0,0.0,0.0,0.0,0.0,0.0,0.0,0.0,0.0,0.0,0.0,0.0,0.0,0.0,0.0,0.0,0.0,0.0,0.0,0.0,0.0,0.0,0.0,0.0,0.0,0.0,0.0,2.8469,3.0399,3.1784,3.263,3.2653,3.2418,3.1945,3.0826,2.9958,2.9355,0.0,0.0,0.0,0.0,0.0,0.0,0.0,0.0,0.0,0.0,0.0,0.0,0.0,0.0,0.0,0.0,0.0,0.0,0.0,0.0,0.0,0.0,0.0,0.0,0.0,0.0,0.0,0.0,0.0,0.0,0.0,0.0,0.0,0.0,0.0,0.0,0.0,0.0,0.0,3.2361,3.2959,0.0,0.0,0.0,0.0,0.0,0.0,0.0,0.0,3.4185,0.0,0.0,0.0,0.0,0.0,0.0,0.0,0.0,0.0,0.0,0.0,0.0,0.0,0.0,0.0,0.0,0.0,0.0,0.0,0.0,0.0,0.0,0.0,0.0,0.0,0.0,0.0,0.0,0.0,0.0,0.0,0.0,0.0,0.0,0.0,0.0,0.0,0.0,0.0,0.0,0.0,0.0,0.0,0.0,0.0,0.0,0.0,0.0,0.0,0.0,0.0,0.0,0.0,0.0,0.0,2.8505,3.0125,3.1526,3.2612,3.2453,3.206,3.1529,3.0496,2.9487,0.0,0.0,0.0,0.0,0.0,0.0,0.0,0.0,0.0,0.0,0.0,0.0,0.0,0.0,0.0,0.0,0.0,0.0,0.0,0.0,0.0,0.0,0.0,0.0,0.0,0.0,0.0,0.0,0.0,0.0,0.0,0.0,0.0,0.0,0.0,0.0,0.0,0.0,0.0,0.0,3.2301,3.2798,3.3471,0.0,0.0,0.0,0.0,0.0,0.0,3.4724,3.4577,0.0,0.0,0.0,0.0,0.0,0.0,0.0,0.0,0.0,0.0,0.0,0.0,0.0,0.0,0.0,0.0,0.0,0.0,0.0,0.0,0.0,0.0,0.0,0.0,0.0,0.0,0.0,0.0,0.0,0.0,0.0,0.0,0.0,0.0,0.0,0.0,0.0,0.0,0.0,0.0,0.0,0.0,0.0,0.0,0.0,0.0,0.0,0.0,0.0,0.0,0.0,0.0,0.0,0.0,0.0,2.8408,2.9816,3.1192,3.2605,3.2347,3.1945,3.1397,3.0422,2.9316,0.0,0.0,0.0,0.0,0.0,0.0,0.0,0.0,0.0,0.0,0.0,0.0,0.0,0.0,0.0,0.0,0.0,0.0,0.0,0.0,0.0,0.0,0.0,0.0,0.0,0.0,0.0,0.0,0.0,0.0,0.0,0.0,0.0,0.0,0.0,0.0,0.0,0.0,0.0,0.0,0.0,3.2422,3.3472,3.3192,0.0,0.0,0.0,0.0,3.5286,3.5212,0.0,0.0,0.0,0.0,0.0,0.0,0.0,0.0,0.0,0.0,0.0,0.0,0.0,0.0,0.0,0.0,0.0,0.0,0.0,0.0,0.0,0.0,0.0,0.0,0.0,0.0,0.0,0.0,0.0,0.0,0.0,0.0,0.0,0.0,0.0,0.0,0.0,0.0,0.0,0.0,0.0,0.0,0.0,0.0,0.0,0.0,0.0,0.0,0.0,0.0,0.0,0.0,0.0,0.0,0.0,0.0,2.7353,2.9204,3.0434,3.0949,3.1048,3.0866,3.0405,2.9628,2.8791,0.0,0.0,0.0,0.0,0.0,0.0,0.0,0.0,0.0,0.0,0.0,0.0,0.0,0.0,0.0,0.0,0.0,0.0,0.0,0.0,0.0,0.0,0.0,0.0,0.0,0.0,0.0,0.0,0.0,0.0,0.0,0.0,0.0,0.0,0.0,0.0,0.0,0.0,0.0,0.0,0.0,3.2566,3.3829,3.3661,3.3691,0.0,0.0,3.4114,3.4755,3.5068,0.0,0.0,0.0,0.0,0.0,0.0,0.0,0.0,0.0,0.0,0.0,0.0,0.0,0.0,0.0,0.0,0.0,0.0,0.0,0.0,0.0,0.0,0.0,0.0,0.0,0.0,0.0,0.0,0.0,0.0,0.0,0.0,0.0,0.0,0.0,0.0,0.0,0.0,0.0,0.0,0.0,0.0,0.0,0.0,0.0,0.0,0.0,0.0,0.0,0.0,0.0,0.0,0.0,0.0,0.0,2.5097,2.7476,2.8755,2.988,3.0832,3.0414,3.0199,3.0177,2.9328,2.8473,0.0,0.0,0.0,0.0,0.0,0.0,0.0,0.0,0.0,0.0,0.0,0.0,0.0,0.0,0.0,0.0,0.0,0.0,0.0,0.0,0.0,0.0,0.0,0.0,0.0,0.0,0.0,0.0,0.0,0.0,0.0,0.0,0.0,0.0,0.0,0.0,0.0,0.0,0.0,0.0,0.0,0.0,3.3189,3.2914,0.0,0.0,0.0,3.3782,3.4689,0.0,0.0,0.0,0.0,0.0,0.0,0.0,0.0,0.0,0.0,0.0,0.0,0.0,0.0,0.0,0.0,0.0,0.0,0.0,0.0,0.0,0.0,0.0,0.0,0.0,0.0,0.0,0.0,0.0,0.0,0.0,0.0,0.0,0.0,0.0,0.0,0.0,0.0,0.0,0.0,0.0,0.0,0.0,0.0,0.0,0.0,0.0,0.0,0.0,0.0,0.0,0.0,0.0,0.0,0.0,0.0,0.0,2.7263,2.8229,2.9351,3.0581,3.0201,3.0068,3.0254,2.943,0.0,0.0,0.0,0.0,0.0,0.0,0.0,0.0,0.0,0.0,0.0,0.0,0.0,0.0,0.0,0.0,0.0,0.0,0.0,0.0,0.0,0.0,0.0,0.0,0.0,0.0,0.0,2.3389,0.0,0.0,0.0,0.0,0.0,0.0,0.0,0.0,0.0,0.0,0.0,0.0,0.0,0.0,3.0605,3.2275,3.2251,3.2487,0.0,0.0,3.3576,3.4311,3.3965,3.3386,0.0,0.0,0.0,0.0,0.0,0.0,0.0,0.0,0.0,0.0,0.0,0.0,0.0,0.0,0.0,0.0,0.0,0.0,0.0,0.0,0.0,0.0,0.0,0.0,0.0,0.0,0.0,0.0,0.0,0.0,0.0,0.0,0.0,0.0,0.0,0.0,0.0,0.0,0.0,0.0,0.0,0.0,0.0,0.0,0.0,0.0,0.0,0.0,0.0,0.0,0.0,0.0,0.0,0.0,0.0,2.5998,2.7625,2.8812,2.9698,3.0354,3.0738,3.0758,3.0125,2.9399,0.0,0.0,0.0,0.0,0.0,0.0,0.0,0.0,0.0,0.0,0.0,0.0,0.0,0.0,0.0,0.0,0.0,0.0,0.0,0.0,0.0,0.0,0.0,0.0,0.0,0.0,0.0,0.0,0.0,0.0,0.0,0.0,0.0,0.0,0.0,0.0,0.0,0.0,0.0,0.0,0.0,3.0341,3.1323,3.2236,3.2855,0.0,0.0,3.3508,3.3581,3.322,3.2807,3.2637,0.0,0.0,0.0,0.0,0.0,0.0,0.0,0.0,0.0,0.0,0.0,0.0,0.0,0.0,0.0,0.0,0.0,0.0,0.0,0.0,0.0,0.0,0.0,0.0,0.0,0.0,0.0,0.0,0.0,0.0,0.0,0.0,0.0,0.0,0.0,0.0,0.0,0.0,0.0,0.0,0.0,0.0,0.0,0.0,0.0,0.0,0.0,0.0,0.0,0.0,0.0,0.0,0.0,2.3466,2.6028,2.7086,2.822,2.9279,2.9616,2.9829,2.9996,2.9693,2.9031,0.0,0.0,0.0,0.0,0.0,0.0,0.0,0.0,0.0,0.0,0.0,0.0,0.0,0.0,0.0,0.0,0.0,0.0,0.0,0.0,0.0,0.0,0.0,0.0,0.0,0.0,0.0,0.0,2.2069,2.2493,2.2757,0.0,0.0,0.0,0.0,0.0,0.0,0.0,0.0,0.0,0.0,2.9312,3.0913,3.1112,0.0,0.0,3.2041,3.211,3.217,3.2062,3.1867,3.1761,3.0835,0.0,0.0,0.0,0.0,0.0,0.0,0.0,0.0,0.0,0.0,0.0,0.0,0.0,0.0,0.0,0.0,0.0,0.0,0.0,0.0,0.0,0.0,0.0,0.0,0.0,0.0,0.0,0.0,0.0,0.0,0.0,0.0,0.0,0.0,0.0,0.0,0.0,0.0,0.0,0.0,0.0,0.0,0.0,0.0,0.0,0.0,0.0,0.0,0.0,0.0,0.0,0.0,2.3382,2.6077,2.6881,2.7803,2.8944,2.9145,2.9317,2.9468,2.9288,2.891,0.0,0.0,0.0,0.0,0.0,0.0,0.0,0.0,0.0,0.0,0.0,0.0,0.0,0.0,0.0,0.0,0.0,0.0,0.0,0.0,0.0,0.0,0.0,0.0,0.0,0.0,0.0,0.0,2.1355,2.1755,2.199,0.0,0.0,0.0,0.0,0.0,0.0,0.0,0.0,0.0,0.0,2.8401,2.998,3.0059,3.0152,3.0826,3.0978,3.1072,3.1125,3.0884,3.0734,3.0789,0.0,0.0,0.0,0.0,0.0,0.0,0.0,0.0,0.0,0.0,0.0,0.0,0.0,0.0,0.0,0.0,0.0,0.0,0.0,0.0,0.0,0.0,0.0,0.0,0.0,0.0,0.0,0.0,0.0,0.0,1.3913,0.0,0.0,0.0,0.0,0.0,0.0,0.0,0.0,0.0,0.0,0.0,0.0,0.0,0.0,0.0,0.0,0.0,0.0,0.0,0.0,0.0,0.0,2.3564,2.5835,2.6807,2.7687,2.8522,2.9135,2.9453,2.9493,2.937,2.9184,2.897,0.0,0.0,0.0,0.0,0.0,0.0,0.0,0.0,0.0,0.0,0.0,0.0,0.0,0.0,0.0,0.0,0.0,0.0,0.0,0.0,0.0,0.0,0.0,0.0,0.0,0.0,2.1175,2.0418,1.9922,0.0,0.0,0.0,0.0,0.0,0.0,0.0,0.0,0.0,0.0,2.6903,2.7856,2.8315,2.9229,2.9865,2.9903,3.0296,3.0594,3.0554,2.9759,2.9197,0.0,0.0,0.0,0.0,0.0,0.0,0.0,0.0,0.0,0.0,0.0,0.0,0.0,0.0,0.0,0.0,0.0,0.0,0.0,0.0,0.0,0.0,0.0,0.0,0.0,0.0,0.0,1.4688,1.4686,0.0,0.0,0.0,0.0,0.0,0.0,0.0,0.0,0.0,0.0,0.0,2.0833,2.1433,0.0,0.0,0.0,0.0,0.0,0.0,0.0,0.0,0.0,0.0,0.0,0.0,2.3272,2.5501,2.654,2.7414,2.8182,2.8797,2.9153,2.9153,2.9083,2.8855,2.8274,0.0,0.0,0.0,0.0,0.0,0.0,0.0,0.0,0.0,0.0,0.0,0.0,0.0,0.0,0.0,0.0,0.0,0.0,0.0,0.0,0.0,0.0,0.0,0.0,0.0,2.036,0.0,0.0,0.0,0.0,0.0,0.0,0.0,0.0,0.0,0.0,0.0,2.4807,2.5972,2.6699,2.7364,2.8009,2.8408,2.8618,0.0,0.0,0.0,0.0,0.0,0.0,0.0,0.0,0.0,0.0,0.0,0.0,0.0,0.0,3.2986,3.3366,3.3649,3.4037,3.458,0.0,0.0,0.0,0.0,0.0,0.0,0.0,0.0,0.0,0.0,0.0,0.0,0.0,0.0,1.5439,0.0,1.5615,0.0,0.0,0.0,0.0,0.0,0.0,0.0,0.0,1.9471,2.0898,2.2341,2.3209,2.4073,0.0,2.4496,2.3523,0.0,0.0,0.0,0.0,0.0,0.0,0.0,0.0,2.3699,2.5554,2.6677,2.7557,2.8164,2.8737,2.8975,2.8975,2.8975,2.8729,2.807,2.7229,2.6163,0.0,0.0,0.0,0.0,0.0,0.0,0.0,0.0,0.0,0.0,0.0,0.0,0.0,0.0,0.0,0.0,0.0,0.0,0.0,0.0,0.0,0.0,0.0,1.9782,0.0,0.0,0.0,0.0,0.0,0.0,0.0,0.0,0.0,2.2234,2.3336,2.4444,2.5545,2.6143,2.6602,2.7082,0.0,0.0,0.0,0.0,0.0,0.0,0.0,2.9089,2.9099,2.9163,2.9352,2.9776,3.0713,3.1763,3.293,0.0,0.0,3.4655,3.4913,3.5293,3.5962,3.6641,3.735,3.8246,3.9135,4.0287,0.0,0.0,0.0,0.0,0.0,0.0,0.0,0.0,1.6189,1.6304,0.0,1.6781,0.0,0.0,0.0,0.0,0.0,1.7368,0.0,0.0,2.0571,2.2097,2.3596,2.4836,2.5823,2.6493,2.6227,2.6041,2.589,2.3046,0.0,0.0,0.0,0.0,0.0,0.0,2.474,2.5925,2.7199,2.8061,2.8475,2.8851,2.903,2.903,2.903,2.8847,2.8443,2.8309,2.7327,2.5368,2.5082,0.0,0.0,0.0,0.0,0.0,0.0,0.0,0.0,0.0,0.0,0.0,0.0,0.0,0.0,0.0,0.0,0.0,0.0,0.0,0.0,1.9059,0.0,0.0,0.0,0.0,0.0,0.0,0.0,0.0,0.0,0.0,2.2007,2.3205,2.4079,2.4427,0.0,0.0,0.0,0.0,2.6682,2.7063,2.7332,2.7694,2.8373,2.8169,2.8151,2.8756,0.0,0.0,2.9816,3.077,3.1701,3.2473,3.3482,3.4423,3.5228,3.5686,3.6296,3.7187,3.798,3.8816,3.9574,4.0286,4.1224,1.6974,0.0,0.0,0.0,0.0,1.6343,1.6339,1.6193,1.6689,1.6895,1.6968,1.7502,0.0,0.0,0.0,0.0,0.0,0.0,1.9142,2.0205,2.118,2.2274,2.3654,2.444,2.5477,2.657,2.6466,2.654,2.667,2.541,2.3933,2.2352,0.0,0.0,0.0,0.0,2.4039,2.5611,2.679,2.7634,2.8184,2.9079,2.9592,2.9855,2.9855,2.9654,2.925,2.8965,2.8265,2.7105,2.6148,0.0,0.0,0.0,0.0,0.0,0.0,0.0,0.0,0.0,0.0,0.0,0.0,0.0,0.0,0.0,0.0,0.0,0.0,0.0,1.9168,1.8961,1.8769,0.0,0.0,0.0,0.0,0.0,0.0,0.0,0.0,0.0,2.1025,2.2148,2.313,0.0,0.0,2.5279,2.5469,2.5913,2.6339,2.6671,2.7048,0.0,0.0,2.8333,2.8526,2.8926,2.9379,2.9933,3.0615,3.1186,3.1838,3.2855,3.3276,3.3859,3.5167,3.6033,3.6855,3.7746,3.8342,3.8803,3.9491,4.0269,4.1112,1.7422,1.6508,1.6956,1.6913,1.6474,1.6737,1.6817,1.6862,1.7249,1.7555,1.7789,1.8403,1.8774,1.8897,1.9074,0.0,0.0,0.0,1.9897,2.0725,2.1396,2.2389,2.3613,2.4444,2.5389,2.6344,2.6724,2.6876,2.6852,2.6348,2.5288,2.3662,0.0,0.0,2.2704,2.3001,2.3779,2.4917,2.6109,2.7036,2.7719,2.8754,2.9502,3.0,3.0,2.9952,2.9819,2.9434,2.892,2.8086,2.7139,2.5972,0.0,0.0,0.0,0.0,0.0,0.0,0.0,0.0,0.0,0.0,0.0,1.8001,0.0,0.0,0.0,0.0,1.8904,1.9155,1.9214,1.8901,0.0,0.0,0.0,0.0,0.0,0.0,0.0,1.8847,1.953,2.0118,2.0309,2.1227,2.2083,2.2799,2.3487,2.4057,2.4461,0.0,2.5221,2.588,2.6136,2.6583,2.7537,2.798,2.8477,2.918,2.9696,3.0094,3.0605,3.1162,3.1679,3.2281,3.2786,3.3418,3.4405,3.5164,3.6124,3.7556,3.8194,3.8654,3.9112,3.9938,4.0707,1.7479,1.7383,1.7708,1.744,1.6839,1.7086,1.7345,1.765,1.7956,1.8257,1.8647,1.9486,1.9771,1.9548,2.0026,0.0,1.992,2.016,2.0389,2.0746,2.1444,2.2326,2.3522,2.4481,2.527,2.5987,2.6655,2.6896,2.6644,2.6199,2.5518,2.458,2.4228,2.3704,2.3125,2.3323,2.3673,2.4067,2.5297,2.6339,2.7111,2.8048,2.893,2.9654,2.9699,2.9823,3.0062,2.9758,2.9234,2.848,2.7991,2.7064,2.5631,0.0,0.0,0.0,0.0,0.0,0.0,0.0,0.0,0.0,0.0,0.0,0.0,0.0,0.0,0.0,1.901,0.0,1.917,1.8968,0.0,0.0,0.0,1.8278,1.8051,1.8706,1.9224,1.9174,0.0,0.0,1.9948,2.0392,2.0994,2.1713,2.2124,2.2506,2.2863,2.3285,2.3782,2.488,2.5096,2.5615,2.6971,2.7582,2.8286,2.9474,2.9807,3.0067,3.0435,3.0988,3.1362,3.1563,3.227,3.3027,3.3345,3.3788,3.4586,3.6731,3.7659,3.8238,3.8633,3.9472,4.0165,1.6934,1.7184,1.7508,1.7614,1.7645,1.7912,1.807,1.8191,1.8724,1.9051,1.9197,2.0108,2.0531,2.0726,2.0641,2.0655,2.0788,2.0641,2.0743,2.1034,2.1715,2.2167,2.2512,2.3182,2.402,2.4908,2.508,2.5509,2.6155,2.5642,2.5077,2.4607,2.376,2.3122,2.2717,2.2518,2.2908,2.3723,2.4555,2.5714,2.7146,2.7912,2.8622,2.9349,2.9608,2.9665,2.9476,2.935,2.8913,2.8175,2.75,2.687,2.6232,2.4889,0.0,0.0,0.0,0.0,0.0,0.0,0.0,0.0,0.0,1.8636,1.8588,0.0,1.8871,0.0,1.8981,1.915,1.9108,1.9083,0.0,0.0,1.8886,1.8998,1.9145,1.9264,1.9484,1.9698,1.9844,1.996,2.0214,2.0311,2.0605,2.12,2.1902,2.2453,2.272,2.3323,2.4024,2.4689,2.5284,2.6031,2.6929,2.8048,2.8959,2.9697,3.0481,3.1162,3.1493,3.1961,3.2298,3.2298,3.2485,3.2823,3.3134,3.3462,3.3985,3.5111,3.6205,3.7221,3.7797,3.892,3.9801,1.6165,1.6462,1.6758,1.7087,1.7546,1.7983,1.8324,1.865,1.9136,1.955,1.9959,2.0747,2.1162,2.1296,2.1136,2.1149,2.1296,2.1136,2.1149,2.1323,2.1862,2.2144,2.2266,2.2759,2.3392,2.4089,2.4185,2.451,2.4856,2.4369,2.3925,2.36,2.2786,2.2229,2.1874,2.1735,2.1991,2.2635,2.3624,2.479,2.6203,2.6565,2.7292,2.8362,2.854,2.8707,2.8743,2.8602,2.828,2.7861,2.7314,2.6814,2.6399,2.5184,2.3976,0.0,0.0,0.0,0.0,0.0,0.0,0.0,0.0,0.0,0.0,0.0,1.9159,1.9299,1.9419,1.9459,1.9487,1.9434,1.9434,1.9434,1.9434,1.9495,1.9639,1.976,1.9881,2.005,2.0267,2.046,2.0674,2.0738,2.0919,2.128,2.1678,2.2051,2.2332,2.2795,2.3271,2.3927,2.4522,2.5455,2.6549,2.7578,2.8563,2.9388,3.0225,3.0905,3.1463,3.1985,3.232,3.232,3.2454,3.2655,3.2855,3.2988,3.3321,3.3898,3.4845,3.5848,3.6813,3.7866,3.8668,1.51,1.5462,1.5692,1.6186,1.6902,1.7423,1.814,1.8923,1.9214,1.9776,2.0605,2.1303,2.1603,2.1603,2.1603,2.1668,2.1681,2.1668,2.1668,2.1695,2.1911,2.2178,2.2351,2.2795,2.3093,2.3338,2.3679,2.3758,2.3493,2.3036,2.2618,2.2295,2.1661,2.1201,2.0955,2.0965,2.1161,2.1397,2.2633,2.3734,2.4602,2.4738,2.5465,2.669,2.6835,2.7182,2.7779,2.7449,2.7283,2.7216,2.6895,2.654,2.6202,2.5301,2.431,0.0,2.1845,0.0,0.0,0.0,0.0,0.0,0.0,0.0,0.0,1.9385,1.9646,1.9845,1.9881,1.9881,1.9881,1.9917,1.9953,1.9989,2.0014,2.005,2.0098,2.0291,2.0424,2.0436,2.0904,2.1183,2.1112,2.1329,2.1474,2.1523,2.1583,2.1751,2.2005,2.2125,2.24,2.2988,2.3445,2.4501,2.5966,2.6628,2.733,2.8638,2.9379,2.9966,3.0754,3.1419,3.1944,3.2097,3.2471,3.2722,3.2753,3.2771,3.2906,3.3278,3.3905,3.47,3.5736,3.6691,3.7336,1.3428,1.3999,1.4336,1.4891,1.5584,1.5895,1.6912,1.8395,1.8707,1.9428,2.0385,2.1148,2.1437,2.1437,2.1779,2.1911,2.1897,2.1897,2.1911,2.1911,2.2205,2.2231,2.2028,2.2604,2.2942,2.2996,2.3065,2.3243,2.3379,2.2539,2.2056,2.2003,2.1314,2.0841,2.0526,0.0,0.0,0.0,2.201,2.2585,2.2777,2.3393,2.4015,2.4561,2.5152,0.0,2.5667,2.564,2.5437,2.5109,2.503,0.0,0.0,0.0,0.0,0.0,0.0,0.0,0.0,0.0,0.0,0.0,1.9625,1.9636,1.946,1.9683,1.9839,1.9869,1.9881,1.9881,1.9881,2.0086,2.0291,2.0496,2.0714,2.1001,2.1148,2.1221,2.1257,2.1257,2.1341,2.1402,2.1402,2.145,2.1571,2.1764,2.18,2.1958,2.2226,2.2276,2.2532,2.294,2.3468,2.4302,2.5253,2.5808,2.6417,2.7557,2.8433,2.9273,3.0232,3.1092,3.1879,3.2348,3.2887,3.3215,3.3491,3.3578,3.3523,3.3647,3.3771,3.4109,3.4911,3.589,3.6884,1.2611,0.0,1.3332,1.3758,0.0,1.4424,1.5202,1.6471,1.7575,1.8675,1.9725,2.0319,2.0789,2.1136,2.1337,2.1471,2.1658,2.1671,2.1671,2.1684,2.1971,2.2021,2.1829,2.2177,2.2392,2.231,2.2379,2.2448,2.2572,2.1893,2.1543,2.1556,2.1077,2.0669,2.0343,2.0343,2.0411,2.06,2.1214,2.1553,2.176,2.2104,2.2574,2.316,0.0,0.0,0.0,0.0,0.0,0.0,0.0,0.0,0.0,0.0,0.0,2.281,2.1712,2.0889,2.0531,2.0168,2.0015,2.0166,2.0362,2.0349,2.016,2.0311,2.0521,2.0665,2.0678,2.0665,2.0678,2.0798,2.0919,2.1052,2.1185,2.1329,2.145,2.1474,2.1474,2.1498,2.1595,2.1667,2.1667,2.1788,2.1909,2.2042,2.214,2.2176,2.2297,2.2373,2.2497,2.2843,2.3154,2.3748,2.4475,2.477,2.5286,2.6444,2.7318,2.8171,2.9107,3.0179,3.1189,3.1771,3.2474,3.3103,3.3469,3.3678,3.3817,3.3817,3.3817,3.39,3.4277,3.5024,3.5928,1.2076,1.2197,1.2492,1.2753,1.3111,1.3111,1.3539,1.4386,0.0,0.0,0.0,1.9221,1.9781,2.0396,2.0464,2.0737,2.1077,2.1077,2.1145,2.1225,2.1521,2.1703,2.1634,2.1772,2.176,2.1691,2.1691,2.1691,2.1691,2.1289,2.1138,2.1069,2.0804,2.0626,2.0364,2.034,2.0352,2.0364,2.0626,2.0804,2.1069,2.1069,2.1415,2.2104,2.2115,2.2362,2.2768,2.2685,2.2654,2.272,2.2939,2.3079,2.3014,2.2807,2.2593,2.236,2.1555,2.1018,2.1003,2.0689,2.0601,2.0872,2.1093,2.104,2.0822,2.1074,2.1233,2.1462,2.1474,2.1474,2.1474,2.1474,2.1498,2.1547,2.1547,2.1559,2.1619,2.1619,2.1643,2.1643,2.1824,2.1945,2.1945,2.2114,2.2346,2.2259,2.2309,2.2346,2.2346,2.2334,2.2384,2.2707,2.2781,2.3079,2.36,2.3822,2.4253,2.5286,2.6005,2.6808,2.7753,2.9035,3.0124,3.0852,3.1754,3.2614,3.3191,3.3539,3.3747,3.3817,3.3817,3.3817,3.3886,3.4283,3.4902,1.1448,1.1516,1.1688,1.1979,1.2338,1.2338,1.276,1.3611,1.5523,1.6635,1.7107,1.8078,1.8637,1.8776,1.9414,1.99,2.0235,2.0304,2.0455,2.0813,2.1126,2.1138,2.0873,2.1496,2.1622,2.1276,2.1276,2.1276,2.1276,2.0943,2.0735,2.0735,2.0735,2.0641,2.0686,2.0617,2.0686,2.0617,2.0723,2.0735,2.0804,2.0804,2.0943,2.1358,2.1615,2.1855,2.2217,2.2005,2.1906,2.1893,2.1777,2.1648,2.1661,2.1898,2.1936,2.191,2.1454,2.1283,2.1451,2.1163,2.1086,2.1353,2.1449,2.1402,2.1378,2.1402,2.1438,2.1486,2.1498,2.1474,2.1474,2.1498,2.1595,2.1788,2.1812,2.197,2.2164,2.2188,2.2188,2.2114,2.2249,2.2273,2.2261,2.2309,2.2346,2.2346,2.2309,2.2321,2.2297,2.2346,2.2334,2.2408,2.2408,2.2558,2.3005,2.3079,2.3451,2.4105,2.4623,2.5359,2.6458,2.768,2.8891,3.0179,3.1118,3.2052,3.2981,3.3348,3.3469,3.3747,3.3817,3.3817,3.3817,3.3955,3.4232,1.1328,1.1409,1.1552,1.1691,1.1835,1.1907,1.2194,1.276,1.3611,1.4608,1.5523,1.623,1.6785,1.7218,1.778,1.8201,1.8611,1.8832,1.8982,1.9192,1.975,1.9901,1.9901,2.0527,2.0804,2.0596,2.0804,2.0943,2.0943,2.0804,2.0665,2.0665,2.0665,2.0665,2.0678,2.088,2.0953,2.0871,2.0807,2.0665,2.0665,2.081,2.1023,2.1163,2.142,2.1638,2.1793,2.1669,2.1595,2.1595,2.171,2.1698,2.171,2.1824,2.1887,2.19,2.1592,2.1444,2.1507,2.157,2.1619,2.1885,2.1909,2.1897,2.1897,2.1776,2.1752,2.1885,2.1897,2.1897,2.1909,2.1909,2.1945,2.214,2.2152,2.2126,2.2235,2.2346,2.2346,2.2346,2.2346,2.2346,2.2346,2.2346,2.2346,2.2247,2.2225,2.2017,2.1946,2.1848,2.2031,2.2198,2.2346,2.2334,2.2558,2.2558,2.2781,2.3302,2.3748,2.4341,2.5299,2.6385,2.7535,2.8676,2.991,3.1189,3.2193,3.2911,3.333,3.3678,3.3817,3.3817,3.3817,3.3817,3.4024,1.1409,1.145,1.1572,1.1619,1.1619,1.1619,1.1763,1.2051,1.2051,1.2775,1.3873,1.4454,1.5025,1.5586,1.6022,1.6448,1.6864,1.7248,1.7439,1.758,1.8282,1.8633,1.8843,1.9483,1.9936,2.0192,2.0553,2.0716,2.0834,2.0847,2.0917,2.0847,2.0847,2.0847,2.0929,2.1122,2.1219,2.1207,2.1026,2.0929,2.0859,2.1052,2.1256,2.1328,2.145,2.1595,2.1643,2.1607,2.1571,2.1631,2.1799,2.1906,2.1906,2.1956,2.1993,2.192,2.1764,2.1655,2.1667,2.1836,2.2042,2.2247,2.2346,2.2334,2.2247,2.2152,2.2042,2.2297,2.2321,2.2321,2.2309,2.2321,2.2346,2.2334,2.2273,2.2225,2.2162,2.2126,2.2114,2.215,2.2174,2.2237,2.2174,2.2174,2.22,2.2042,2.1897,2.1704,2.1523,2.1474,2.1667,2.1945,2.2212,2.2273,2.2309,2.2346,2.2483,2.2707,2.3079,2.3674,2.4488,2.5506,2.6531,2.7535,2.8979,3.0337,3.126,3.2263,3.3051,3.3539,3.3747,3.3817,3.3817,3.3817,3.3886,1.1477,1.1586,1.1613,1.1619,1.1619,1.1619,1.1619,1.1691,1.1691,1.1766,1.2219,1.3268,1.3777,1.393,1.4566,1.5136,1.5488,1.5685,1.6028,1.6391,1.7087,1.764,1.8012,1.8714,1.9596,2.0297,2.0462,2.0781,2.127,2.1378,2.1402,2.1402,2.1402,2.1378,2.1402,2.1414,2.1438,2.1438,2.1414,2.1402,2.1414,2.1426,2.1547,2.1788,2.1812,2.1945,2.2138,2.2031,2.1836,2.1824,2.1692,2.1558,2.1583,2.1776,2.191,2.191,2.2128,2.2186,2.2261,2.2211,2.2235,2.2334,2.2346,2.2346,2.2346,2.2309,2.2297,2.2334,2.2346,2.2334,2.2346,2.2259,2.2334,2.2334,2.2078,2.1909,2.1921,2.1691,2.1643,2.1885,2.2043,2.1982,2.1969,2.2031,2.191,2.1655,2.1571,2.1486,2.1402,2.139,2.1426,2.1571,2.174,2.1981,2.2237,2.2334,2.2321,2.2396,2.2707,2.3228,2.397,2.4991,2.6152,2.6954,2.8403,2.964,3.071,3.17,3.2474,3.326,3.3608,3.3817,3.3817,3.3817,3.3886,1.1558,1.1619,1.1619,1.1619,1.1619,1.1619,1.1619,1.1619,1.1619,1.1653,1.1714,1.2306,1.2692,1.3074,1.3482,1.38,1.3938,1.4121,1.4466,1.4893,1.5593,1.6226,1.6777,1.7704,1.8613,1.9332,1.9786,2.0275,2.0729,2.1029,2.1258,2.1474,2.1474,2.1474,2.1486,2.1631,2.1776,2.1716,2.186,2.1933,2.1921,2.1788,2.1764,2.1873,2.2017,2.2138,2.2321,2.2225,2.2176,2.2102,2.2067,2.2019,2.1945,2.2042,2.2102,2.2114,2.2273,2.2346,2.2346,2.2346,2.2346,2.2346,2.2346,2.2346,2.2346,2.2346,2.2346,2.2346,2.2346,2.2211,2.2078,2.2174,2.2346,2.2321,2.2225,2.2164,2.2164,2.1993,2.2067,2.209,2.2176,2.2102,2.2152,2.2031,2.1764,2.151,2.1354,2.1197,2.1052,2.1074,2.1076,2.128,2.1401,2.1571,2.2007,2.2029,2.2176,2.2285,2.2408,2.2781,2.3302,2.4044,2.5065,2.6005,2.739,2.8779,3.0069,3.1135,3.2035,3.2911,3.3539,3.3817,3.3817,3.3817,3.3817,1.1619,1.1619,1.1619,1.1619,1.1619,1.1619,1.1619,1.1619,1.1619,1.164,1.1687,1.1789,1.2065,1.2473,1.2706,1.2853,1.2838,1.3043,1.3325,1.369,1.4445,1.5049,1.5687,1.6692,1.7616,1.832,1.901,1.9639,2.0269,2.0646,2.1012,2.1473,2.1546,2.1619,2.1716,2.1897,2.1981,2.2067,2.2249,2.2346,2.2321,2.2225,2.2128,2.2005,2.2237,2.2346,2.2346,2.2346,2.2346,2.2346,2.2346,2.2346,2.2346,2.2346,2.2346,2.2346,2.2346,2.2346,2.2346,2.2346,2.2346,2.2346,2.2346,2.2346,2.2346,2.2346,2.2223,2.215,2.2297,2.2249,2.2116,2.2225,2.2334,2.2334,2.2285,2.2162,2.2138,2.2102,2.2042,2.2138,2.2102,2.215,2.2102,2.1922,2.1535,2.1425,2.1112,2.0907,2.0726,2.069,2.075,2.1001,2.1086,2.1365,2.1825,2.197,2.2067,2.2237,2.2334,2.2483,2.2856,2.3525,2.4193,2.5345,2.6517,2.768,2.9051,3.025,3.1788,3.2841,3.3539,3.3817,3.3817,3.3817,3.3817,1.1619,1.1619,1.1619,1.1619,1.1619,1.1619,1.1619,1.1619,1.1619,1.1687,1.1789,1.1743,1.1911,1.2115,1.2339,1.2415,1.2466,1.2683,1.2832,1.2926,1.3786,1.4382,1.4826,1.5729,1.673,1.7589,1.813,1.8978,2.0208,2.038,2.0864,2.1613,2.1664,2.1837,2.2112,2.2198,2.2309,2.2247,2.2283,2.2358,2.2394,2.2576,2.2564,2.237,2.2271,2.2382,2.237,2.2346,2.2346,2.2346,2.2346,2.2346,2.2346,2.2346,2.2346,2.2346,2.2346,2.2346,2.2346,2.2346,2.2346,2.2346,2.2346,2.2346,2.2346,2.2346,2.2174,2.1933,2.2225,2.2309,2.2297,2.2309,2.2346,2.2321,2.2128,2.1945,2.1921,2.1788,2.1667,2.186,2.2031,2.2043,2.1897,2.1426,2.1209,2.1147,2.0941,2.0771,2.0726,2.069,2.0726,2.081,2.105,2.1257,2.1813,2.1946,2.2055,2.2297,2.2418,2.2457,2.2943,2.3451,2.4071,2.475,2.6073,2.7174,2.8145,2.9552,3.1311,3.2597,3.3487,3.3747,3.3817,3.3817,3.3817,1.1619,1.1619,1.1619,1.1619,1.1619,1.1619,1.1619,1.1619,1.1619,1.1647,1.1687,1.1694,1.1775,1.1911,1.2004,1.2049,1.2035,1.2042,1.2237,1.2547,1.2904,1.3331,1.3984,1.4803,1.5604,1.6366,1.7,1.7862,1.8764,1.9153,1.9682,2.0447,2.1037,2.1499,2.1885,2.2184,2.2406,2.2576,2.2588,2.2597,2.2818,2.2927,2.2927,2.2778,2.2842,2.283,2.2842,2.2673,2.2588,2.2588,2.243,2.2346,2.2346,2.2346,2.2346,2.2346,2.2346,2.2346,2.2346,2.2346,2.2346,2.2346,2.2346,2.2346,2.2346,2.2334,2.2223,2.2162,2.2261,2.2334,2.2346,2.2346,2.2346,2.2321,2.2186,2.2114,2.2114,2.2029,2.2017,2.2176,2.2188,2.214,2.186,2.1547,2.1269,2.1076,2.0834,2.0774,2.0953,2.0989,2.1038,2.1136,2.1269,2.145,2.1788,2.1873,2.2055,2.2406,2.2612,2.2721,2.3037,2.3366,2.3922,2.4576,2.5766,2.6946,2.8087,3.001,3.1667,3.2879,3.3689,3.3769,3.3817,3.3853,3.3835,1.1687,1.1681,1.164,1.1619,1.1619,1.1619,1.1619,1.1619,1.1619,1.1619,1.1626,1.1667,1.1742,1.183,1.1884,1.1904,1.1898,1.1809,1.1962,1.2346,1.2469,1.2827,1.3317,1.4082,1.4626,1.5105,1.5812,1.6644,1.7416,1.7788,1.8471,1.938,2.0059,2.0868,2.154,2.2015,2.2437,2.273,2.2854,2.2951,2.3109,2.3128,2.3176,2.3176,2.3176,2.3157,2.3012,2.2818,2.2685,2.2588,2.243,2.2346,2.2346,2.2346,2.2346,2.2346,2.2346,2.2346,2.2346,2.2346,2.2346,2.2346,2.2418,2.2467,2.2467,2.2464,2.2552,2.2491,2.2455,2.2367,2.2358,2.2346,2.2346,2.2346,2.2346,2.2346,2.2346,2.2334,2.2321,2.2321,2.2321,2.2237,2.2005,2.1837,2.1547,2.1413,2.1159,2.1028,2.1219,2.1268,2.1245,2.145,2.1631,2.1788,2.2078,2.2297,2.2334,2.2636,2.2778,2.2911,2.3084,2.3442,2.3776,2.4444,2.5504,2.6785,2.8447,3.046,3.1968,3.3285,3.3783,3.383,3.3879,3.389,3.389,1.183,1.1803,1.1681,1.1626,1.1619,1.1619,1.1619,1.1633,1.1561,1.1575,1.1622,1.1709,1.1703,1.181,1.2006,1.2067,1.2155,1.2074,1.206,1.2223,1.2641,1.2856,1.2989,1.3494,1.3791,1.3898,1.4584,1.542,1.6109,1.6568,1.7331,1.8395,1.9033,1.9984,2.1337,2.1807,2.2407,2.2918,2.3043,2.3145,2.3157,2.3333,2.3454,2.3375,2.3375,2.3237,2.2818,2.2745,2.2549,2.2418,2.2271,2.2346,2.2346,2.2346,2.2346,2.2346,2.2346,2.2346,2.2346,2.2358,2.2382,2.2406,2.2588,2.2733,2.2757,2.2915,2.2951,2.2782,2.2721,2.2648,2.2455,2.2418,2.2406,2.2346,2.2382,2.2394,2.2394,2.2358,2.2346,2.237,2.2358,2.2334,2.2273,2.1981,2.1776,2.1691,2.1523,2.1402,2.1534,2.1474,2.1486,2.1631,2.1921,2.2211,2.2515,2.2721,2.2782,2.2879,2.2959,2.3104,2.3278,2.3495,2.3753,2.4377,2.5321,2.6619,2.8578,3.0473,3.1843,3.2985,3.3338,3.3997,3.4207,3.4257,3.4,1.1925,1.183,1.1782,1.1708,1.1626,1.1619,1.1674,1.1689,1.1471,1.1384,1.1475,1.1521,1.1593,1.1759,1.2052,1.2271,1.2359,1.2366,1.2318,1.2244,1.2416,1.2567,1.2734,1.3098,1.3428,1.366,1.3968,1.4199,1.4584,1.5198,1.5965,1.6672,1.7942,1.9116,2.0221,2.1288,2.2202,2.2827,2.3176,2.3406,2.3575,2.3671,2.364,2.364,2.364,2.355,2.3212,2.285,2.2697,2.26,2.243,2.2346,2.2346,2.2346,2.2346,2.2346,2.2346,2.2346,2.2358,2.2515,2.26,2.2648,2.2854,2.2975,2.3,2.3084,2.3109,2.3012,2.3,2.2951,2.2903,2.2879,2.2794,2.2624,2.2612,2.2673,2.2782,2.2697,2.2624,2.2512,2.2455,2.2273,2.2042,2.1897,2.1836,2.1691,2.1571,2.1559,2.1704,2.1764,2.1933,2.2223,2.2539,2.2621,2.2814,2.3019,2.314,2.3164,2.3249,2.3345,2.3508,2.3557,2.3818,2.429,2.5244,2.6635,2.8692,3.0309,3.1612,3.2963,3.3762,3.427,3.4611,3.4568,3.4238,1.2088,1.1999,1.1938,1.1864,1.1789,1.1636,1.161,1.1616,1.1254,1.1082,1.1158,1.1221,1.129,1.1524,1.1957,1.2183,1.2263,1.2424,1.2454,1.2379,1.2366,1.242,1.2494,1.2733,1.2965,1.3281,1.3436,1.3465,1.3601,1.4299,1.4951,1.5732,1.6841,1.8114,1.9366,2.0608,2.1592,2.2361,2.2885,2.3285,2.3484,2.36,2.368,2.3748,2.3676,2.3544,2.3351,2.2935,2.2733,2.2685,2.2479,2.2346,2.2346,2.2346,2.2346,2.2358,2.243,2.2479,2.2428,2.2733,2.2879,2.2915,2.3043,2.3188,2.3212,2.3261,2.3321,2.3212,2.3188,2.3152,2.3133,2.3109,2.3072,2.2971,2.285,2.2951,2.306,2.2891,2.2745,2.2661,2.2503,2.2285,2.2066,2.2005,2.1957,2.18,2.1764,2.1873,2.1993,2.2102,2.238,2.2645,2.285,2.3007,2.3164,2.3357,2.3483,2.3495,2.3495,2.3635,2.3695,2.3707,2.3891,2.4423,2.5306,2.6305,2.8138,2.9808,3.1317,3.26,3.3947,3.4539,3.4866,3.4589,3.433,1.2298,1.2271,1.2135,1.206,1.1966,1.1586,1.1369,1.1326,1.0952,1.0814,1.0851,1.0954,1.1015,1.1128,1.1618,1.1914,1.1992,1.218,1.2336,1.2316,1.2387,1.2393,1.2508,1.2579,1.2592,1.269,1.2923,1.3148,1.329,1.3769,1.4474,1.5217,1.5885,1.6942,1.8577,1.9714,2.0708,2.1603,2.2211,2.2625,2.3038,2.313,2.3291,2.368,2.3488,2.3447,2.3375,2.3007,2.2757,2.2673,2.2455,2.2346,2.2346,2.2346,2.2346,2.2394,2.26,2.2697,2.2782,2.3,2.3068,2.3092,2.3309,2.3399,2.3411,2.3623,2.3659,2.3411,2.3387,2.3381,2.3188,2.323,2.3249,2.3393,2.3261,2.323,2.3157,2.2963,2.2818,2.2733,2.2539,2.2334,2.2297,2.2223,2.2223,2.2211,2.2273,2.2321,2.2382,2.244,2.2633,2.2874,2.3152,2.3297,2.343,2.3538,2.364,2.364,2.3652,2.37,2.3748,2.384,2.3852,2.44,2.5037,2.6136,2.7449,2.9094,3.0853,3.2449,3.361,3.451,3.4921,3.4811,3.4642,1.2386,1.2291,1.2244,1.2012,1.1619,1.1457,1.1302,1.1087,1.0708,1.0533,1.0608,1.0655,1.0725,1.089,1.1318,1.1543,1.1684,1.1788,1.188,1.18,1.18,1.2069,1.2464,1.2508,1.2562,1.2651,1.2749,1.291,1.3127,1.3532,1.3873,1.4149,1.5329,1.6199,1.7136,1.8413,1.9563,2.0444,2.0931,2.1508,2.2073,2.2245,2.2648,2.3279,2.3288,2.3401,2.3616,2.3225,2.2818,2.2467,2.2307,2.2346,2.2346,2.2346,2.2355,2.2512,2.2621,2.283,2.2947,2.3188,2.3333,2.3369,2.3575,2.3664,2.3664,2.3712,2.3724,2.3664,2.3652,2.3707,2.3635,2.3611,2.3671,2.364,2.3623,2.3587,2.3526,2.3225,2.3024,2.2975,2.2612,2.2394,2.2346,2.2358,2.2358,2.2295,2.2491,2.26,2.2636,2.2766,2.2959,2.3164,2.3393,2.3459,2.3671,2.3768,2.3748,2.3736,2.3736,2.3724,2.376,2.384,2.384,2.4,2.4572,2.5514,2.6675,2.8125,3.0006,3.2021,3.3398,3.4443,3.515,3.5321,3.5083,1.2454,1.2379,1.2379,1.2103,1.1644,1.1409,1.1155,1.0833,1.0383,1.0297,1.0392,1.0409,1.0482,1.0668,1.1078,1.1273,1.1344,1.1511,1.1585,1.1585,1.1579,1.1782,1.203,1.2259,1.2397,1.2489,1.2721,1.2908,1.3104,1.3367,1.3563,1.3965,1.4697,1.5396,1.6049,1.7194,1.8164,1.8818,1.9469,2.012,2.0769,2.1022,2.1588,2.2234,2.2545,2.2808,2.3107,2.3014,2.2757,2.243,2.2346,2.2346,2.2358,2.2455,2.2564,2.2733,2.285,2.3068,2.3212,2.3466,2.3611,2.3556,2.37,2.3828,2.384,2.384,2.384,2.3748,2.384,2.384,2.384,2.384,2.384,2.3748,2.384,2.384,2.384,2.3357,2.3169,2.3,2.2685,2.2346,2.2346,2.243,2.243,2.2367,2.2685,2.2733,2.2782,2.3007,2.3249,2.3418,2.3483,2.3616,2.3664,2.3736,2.384,2.384,2.384,2.384,2.384,2.384,2.384,2.3932,2.4252,2.4891,2.6136,2.7527,2.9386,3.1255,3.2935,3.4296,3.505,3.5521,3.5285,1.2501,1.2424,1.2424,1.2192,1.1714,1.1411,1.0928,1.048,1.0164,1.0079,1.0172,1.0199,1.0349,1.04,1.0803,1.0976,1.0999,1.1271,1.1415,1.1421,1.1409,1.1418,1.1396,1.1905,1.2157,1.2125,1.2609,1.2815,1.2922,1.303,1.3343,1.3748,1.3962,1.4473,1.5185,1.6114,1.6689,1.7173,1.7919,1.8563,1.9134,1.9551,2.0201,2.1001,2.1673,2.2032,2.2397,2.2543,2.2597,2.2394,2.2307,2.2406,2.243,2.2624,2.2794,2.2826,2.3164,2.3327,2.3435,2.3616,2.3748,2.3736,2.3748,2.384,2.384,2.384,2.384,2.384,2.384,2.384,2.384,2.384,2.384,2.384,2.384,2.384,2.3744,2.3369,2.3109,2.306,2.2636,2.243,2.2443,2.2564,2.2697,2.2685,2.2903,2.2971,2.3043,2.3273,2.3442,2.3526,2.3592,2.3816,2.3828,2.384,2.384,2.384,2.384,2.384,2.384,2.384,2.384,2.3932,2.4092,2.4652,2.5514,2.7069,2.8778,3.0562,3.2342,3.3861,3.5103,3.5283,3.5248,1.2347,1.2037,1.2037,1.1572,1.0952,1.0796,1.0486,1.0097,1.0019,1.0022,1.0188,1.021,1.0335,1.052,1.0607,1.0732,1.0716,1.0887,1.0909,1.0909,1.0909,1.0837,1.0964,1.1478,1.1789,1.19,1.1956,1.2131,1.2313,1.2503,1.2535,1.2975,1.3403,1.3818,1.4383,1.4961,1.5373,1.5785,1.6361,1.7018,1.7665,1.8155,1.8818,1.9694,2.06,2.1331,2.1871,2.2288,2.2519,2.2569,2.2585,2.2609,2.2621,2.2891,2.3031,2.3212,2.3345,2.3471,2.364,2.3724,2.384,2.384,2.384,2.384,2.384,2.384,2.384,2.384,2.384,2.384,2.384,2.384,2.384,2.384,2.384,2.376,2.3756,2.3369,2.3109,2.2891,2.2757,2.2648,2.2585,2.2879,2.2975,2.2988,2.3068,2.3285,2.3418,2.3526,2.3531,2.3592,2.3652,2.384,2.384,2.384,2.384,2.384,2.384,2.384,2.384,2.384,2.384,2.384,2.3852,2.448,2.5276,2.6294,2.7933,2.9866,3.1715,3.3205,3.4364,3.4807,3.5138,1.1808,1.136,1.1354,1.0771,0.9864,0.9942,0.9708,0.9251,0.938,0.954,0.9642,0.9698,0.982,1.0061,1.0231,1.0434,1.0471,1.0654,1.0732,1.0732,1.0726,1.0666,1.065,1.0899,1.1213,1.1387,1.1755,1.191,1.1965,1.2038,1.2229,1.2401,1.2816,1.3101,1.3487,1.4024,1.4504,1.4713,1.5095,1.562,1.6106,1.6525,1.7346,1.8444,1.9584,2.0517,2.1053,2.1536,2.2044,2.2437,2.2639,2.2805,2.2899,2.308,2.3309,2.3351,2.3507,2.3592,2.3816,2.384,2.384,2.384,2.384,2.384,2.384,2.384,2.384,2.384,2.384,2.384,2.384,2.384,2.384,2.384,2.384,2.3724,2.3568,2.3393,2.32,2.3031,2.2935,2.2939,2.3,2.3092,2.3092,2.3145,2.3381,2.3507,2.3387,2.3507,2.3652,2.3712,2.3736,2.384,2.384,2.384,2.384,2.384,2.384,2.384,2.384,2.384,2.384,2.384,2.384,2.4332,2.5117,2.6136,2.7398,2.9323,3.1162,3.2624,3.3776,3.4426,3.4703,1.0959,1.0543,1.0464,0.9682,0.8802,0.8876,0.8646,0.8107,0.8339,0.8429,0.8702,0.8798,0.8779,0.9128,0.9564,0.982,1.0153,1.0487,1.0737,1.0737,1.0737,1.0666,1.0656,1.0677,1.0687,1.0947,1.1271,1.1586,1.1652,1.1812,1.1783,1.1973,1.2318,1.2612,1.2782,1.3322,1.3851,1.3938,1.4421,1.4713,1.4796,1.5216,1.6032,1.7147,1.8214,1.9314,1.9961,2.0569,2.1235,2.2105,2.2505,2.2729,2.2906,2.3279,2.3435,2.3447,2.364,2.3724,2.3828,2.384,2.384,2.384,2.384,2.384,2.384,2.384,2.384,2.384,2.384,2.384,2.384,2.384,2.384,2.384,2.384,2.3652,2.3495,2.3423,2.3387,2.3297,2.3176,2.3128,2.32,2.3333,2.3273,2.3297,2.3623,2.3724,2.3604,2.3568,2.37,2.384,2.384,2.384,2.384,2.384,2.384,2.384,2.384,2.384,2.384,2.384,2.384,2.384,2.392,2.4332,2.4891,2.5832,2.7319,2.9105,3.0762,3.238,3.3357,3.4065,3.427,0.9718,0.9301,0.8898,0.8362,0.7802,0.7556,0.7314,0.7077,0.6857,0.6784,0.6987,0.7013,0.7316,0.7706,0.8227,0.8984,0.982,1.0404,1.0654,1.0654,1.0648,1.0672,1.0563,1.0487,1.0459,1.0377,1.0603,1.079,1.0857,1.0826,1.1245,1.1469,1.1653,1.1955,1.2433,1.2893,1.3128,1.3322,1.3865,1.4142,1.4225,1.4638,1.5216,1.6188,1.6854,1.7817,1.8914,1.9593,2.0279,2.1105,2.1723,2.1961,2.2248,2.3002,2.3504,2.3676,2.3712,2.384,2.384,2.384,2.384,2.384,2.384,2.384,2.384,2.3852,2.3864,2.3796,2.3796,2.3864,2.384,2.3844,2.3796,2.3784,2.3876,2.3772,2.3712,2.3652,2.3599,2.3345,2.3333,2.3381,2.3466,2.3538,2.355,2.3538,2.3695,2.376,2.37,2.3676,2.3736,2.384,2.384,2.384,2.384,2.384,2.384,2.384,2.384,2.384,2.384,2.384,2.384,2.384,2.384,2.4092,2.4798,2.5673,2.6925,2.8559,3.0361,3.2211,3.3014,3.3722,3.418,0.8393,0.7697,0.7207,0.6651,0.6005,0.6027,0.5857,0.5679,0.5659,0.5806,0.5863,0.59,0.6096,0.6459,0.7136,0.8144,0.923,1.0153,1.032,1.0404,1.0565,1.0672,1.0568,1.0492,1.0405,1.0346,1.0367,1.0416,1.0481,1.0601,1.0832,1.1048,1.1237,1.1617,1.1913,1.2281,1.2433,1.2751,1.3108,1.3403,1.3486,1.3976,1.4721,1.5267,1.5885,1.6807,1.7855,1.8503,1.914,1.9886,2.0382,2.0758,2.1346,2.2003,2.2809,2.3383,2.3692,2.376,2.376,2.384,2.384,2.384,2.3852,2.384,2.384,2.3852,2.3925,2.4009,2.3977,2.4106,2.4251,2.4145,2.4169,2.4145,2.413,2.4057,2.3928,2.3832,2.3695,2.3454,2.355,2.3635,2.3592,2.3664,2.3736,2.384,2.384,2.384,2.384,2.384,2.384,2.384,2.384,2.384,2.384,2.384,2.384,2.384,2.384,2.384,2.384,2.384,2.384,2.384,2.392,2.4,2.4559,2.5356,2.6689,2.8011,2.9851,3.1478,3.2615,3.3381,3.3875,0.702,0.605,0.5636,0.4836,0.4194,0.4385,0.4219,0.4042,0.4181,0.4303,0.4404,0.4516,0.4619,0.5125,0.6131,0.7307,0.8478,0.9486,0.9986,1.0237,1.0487,1.0672,1.0585,1.0541,1.0487,1.0384,1.0422,1.0422,1.0471,1.059,1.0688,1.0815,1.1153,1.1274,1.1388,1.1783,1.1812,1.2059,1.2249,1.2567,1.2899,1.3403,1.4088,1.46,1.5353,1.603,1.699,1.7495,1.8055,1.8714,1.9125,1.9444,2.0171,2.0824,2.1649,2.2693,2.335,2.3612,2.3772,2.3856,2.3961,2.3973,2.3904,2.4009,2.4033,2.4106,2.413,2.4275,2.4323,2.4371,2.4516,2.4601,2.4601,2.4564,2.4407,2.4287,2.4178,2.4069,2.3925,2.3816,2.3864,2.3748,2.3712,2.3712,2.376,2.384,2.384,2.384,2.384,2.384,2.384,2.384,2.384,2.384,2.384,2.384,2.384,2.384,2.384,2.384,2.384,2.384,2.384,2.384,2.384,2.4,2.448,2.5117,2.6294,2.7698,2.9416,3.0804,3.1961,3.2891,3.3588,0.5125,0.4279,0.3862,0.3334,0.2803,0.2556,0.2392,0.2224,0.2066,0.1748,0.2095,0.1932,0.2439,0.3447,0.5211,0.6556,0.7646,0.8733,0.9569,0.9903,1.0398,1.0594,1.0661,1.0558,1.0525,1.046,1.0509,1.053,1.0552,1.0585,1.0645,1.0721,1.082,1.097,1.128,1.1386,1.1641,1.1961,1.2146,1.233,1.2669,1.2842,1.3408,1.4146,1.4517,1.5066,1.6,1.6522,1.6952,1.7382,1.8166,1.8605,1.895,1.9958,2.0711,2.1595,2.2445,2.3451,2.3764,2.4001,2.4109,2.4145,2.4347,2.4492,2.4456,2.4444,2.448,2.4552,2.4589,2.4637,2.4697,2.4673,2.4649,2.4661,2.4649,2.448,2.4335,2.419,2.4045,2.3856,2.382,2.3784,2.3748,2.376,2.384,2.384,2.384,2.384,2.384,2.384,2.384,2.384,2.384,2.384,2.384,2.384,2.384,2.384,2.384,2.384,2.384,2.384,2.384,2.384,2.384,2.384,2.416,2.4866,2.5977,2.7305,2.8793,3.0129,3.1292,3.2239,3.3243,0.387,0.3195,0.2777,0.2342,0.1823,0.1665,0.1581,0.1492,0.1417,0.134,0.1345,0.1346,0.185,0.2861,0.412,0.5127,0.6389,0.7646,0.865,0.9402,0.9981,1.046,1.0677,1.0661,1.0617,1.0612,1.0628,1.0655,1.0661,1.0666,1.0693,1.0726,1.0737,1.082,1.1081,1.0987,1.107,1.1337,1.1634,1.2017,1.2287,1.2596,1.3004,1.3906,1.3998,1.455,1.529,1.5639,1.581,1.615,1.6491,1.6908,1.7417,1.8171,1.9016,2.0091,2.1035,2.2333,2.3657,2.3915,2.4197,2.4386,2.4482,2.4601,2.4625,2.4649,2.4733,2.4854,2.4866,2.4914,2.5023,2.5083,2.5083,2.5047,2.4819,2.4686,2.4576,2.4311,2.4166,2.3977,2.3856,2.3808,2.384,2.384,2.384,2.384,2.384,2.384,2.384,2.384,2.384,2.384,2.384,2.384,2.384,2.384,2.384,2.384,2.384,2.384,2.384,2.384,2.384,2.384,2.384,2.384,2.384,2.4559,2.5594,2.6847,2.8168,2.9441,3.0782,3.2093,3.3012,0.3029,0.2355,0.1851,0.1424,0.0999,0.1006,0.1005,0.1,0.0922,0.0925,0.101,0.1093,0.1515,0.2272,0.2943,0.3952,0.4962,0.6389,0.7478,0.8395,0.9314,0.9981,1.032,1.0498,1.0613,1.0786,1.0829,1.084,1.084,1.0829,1.0824,1.0786,1.0802,1.0791,1.0786,1.0791,1.0886,1.0892,1.1205,1.16,1.1992,1.2246,1.2815,1.3369,1.3819,1.4091,1.4822,1.5182,1.5182,1.5275,1.5455,1.5988,1.6411,1.7013,1.7776,1.8803,1.9684,2.0945,2.2525,2.3447,2.3997,2.4413,2.4735,2.4914,2.4878,2.483,2.4878,2.5132,2.5132,2.5252,2.5373,2.5409,2.5361,2.5264,2.5156,2.5059,2.489,2.4492,2.4166,2.3997,2.382,2.3796,2.384,2.384,2.384,2.384,2.384,2.384,2.384,2.384,2.384,2.384,2.384,2.384,2.384,2.384,2.384,2.384,2.384,2.384,2.384,2.384,2.384,2.384,2.384,2.384,2.384,2.4492,2.5209,2.6294,2.7513,2.899,3.0327,3.17,3.2901,0.2608,0.1346,0.0926,0.0589,0.0,0.0,0.0,0.0,0.0,0.0,0.0253,0.0505,0.0842,0.1179,0.2188,0.3027,0.3698,0.5295,0.6469,0.7474,0.8395,0.9156,0.9771,1.0167,1.0477,1.0837,1.0971,1.1031,1.1058,1.1014,1.0982,1.0922,1.0916,1.0911,1.0884,1.0857,1.0851,1.0862,1.1001,1.1334,1.1652,1.1899,1.2391,1.3165,1.3452,1.3679,1.4339,1.4752,1.4906,1.4987,1.525,1.5513,1.584,1.6102,1.6879,1.7662,1.8356,1.9645,2.1004,2.2459,2.3506,2.424,2.4926,2.518,2.524,2.5325,2.5397,2.5349,2.5337,2.5373,2.5336,2.5348,2.5348,2.5216,2.5144,2.4975,2.477,2.4468,2.4166,2.3949,2.39,2.3949,2.3973,2.4009,2.3796,2.3784,2.384,2.384,2.384,2.384,2.384,2.384,2.384,2.384,2.384,2.384,2.384,2.384,2.384,2.384,2.384,2.384,2.384,2.384,2.384,2.384,2.384,2.432,2.4878,2.574,2.6949,2.8492,3.0267,3.1825,3.3026,0.2103,0.1262,0.0589,0.0168,0.0,0.0,0.0,0.0,0.0,0.0,0.0,0.0168,0.0421,0.0842,0.1431,0.2271,0.3027,0.412,0.5214,0.6218,0.7056,0.8009,0.8813,0.963,1.0099,1.0597,1.0918,1.1107,1.1096,1.1128,1.1145,1.1107,1.1069,1.0982,1.0938,1.0878,1.084,1.0878,1.0954,1.1149,1.1285,1.1608,1.1956,1.2525,1.2978,1.335,1.3843,1.4292,1.4476,1.4653,1.4822,1.4999,1.5264,1.5521,1.5873,1.6577,1.7192,1.8147,1.9457,2.1201,2.2986,2.4353,2.5032,2.5348,2.5263,2.5348,2.5348,2.5348,2.536,2.5348,2.5348,2.5433,2.5397,2.5228,2.4987,2.4902,2.4697,2.4456,2.4335,2.4202,2.4166,2.419,2.419,2.4202,2.4033,2.3796,2.3784,2.3864,2.3913,2.39,2.3913,2.3876,2.3876,2.3852,2.384,2.384,2.384,2.384,2.384,2.384,2.384,2.384,2.384,2.384,2.384,2.384,2.384,2.4,2.448,2.5276,2.6596,2.8125,2.9977,3.1965,3.3089,0.1682,0.1178,0.0337,0.0,0.0,0.0,0.0,0.0,0.0,0.0,0.0,0.0,0.0168,0.0505,0.0929,0.1353,0.22,0.313,0.3984,0.4917,0.5851,0.6887,0.8045,0.8963,0.9884,1.0371,1.0938,1.1221,1.1232,1.121,1.1253,1.1281,1.1248,1.1156,1.1036,1.0911,1.0857,1.0938,1.1036,1.115,1.1188,1.1379,1.1649,1.2179,1.2614,1.3098,1.3653,1.4122,1.4299,1.4387,1.4387,1.4476,1.4646,1.4822,1.5087,1.5528,1.6137,1.6841,1.8068,2.024,2.2503,2.3686,2.4555,2.4835,2.5006,2.5092,2.5092,2.5177,2.5263,2.5348,2.5348,2.5433,2.5409,2.5289,2.5035,2.4867,2.4806,2.4601,2.4564,2.4504,2.4468,2.4407,2.4407,2.4407,2.4275,2.4154,2.419,2.419,2.4202,2.4142,2.4021,2.3985,2.3913,2.3876,2.384,2.384,2.384,2.384,2.384,2.384,2.384,2.384,2.384,2.384,2.384,2.384,2.384,2.392,2.4252,2.4811,2.6439,2.831,3.0238,3.2103,3.3204,0.1682,0.1178,0.0337,0.0,0.0,0.0,0.0,0.0,0.0,0.0,0.0,0.0,0.0,0.0,0.0595,0.0938,0.1197,0.2224,0.3003,0.3703,0.4715,0.6105,0.7457,0.8478,0.9472,1.0497,1.1076,1.1384,1.1417,1.1389,1.1417,1.1422,1.1389,1.1335,1.1253,1.1145,1.115,1.1232,1.1237,1.1248,1.1259,1.1297,1.1593,1.1956,1.2483,1.3066,1.3388,1.4033,1.4299,1.4299,1.4299,1.4387,1.4387,1.4476,1.4646,1.4999,1.508,1.5785,1.7192,2.0163,2.1811,2.2762,2.3623,2.4064,2.4235,2.4407,2.4664,2.4578,2.4921,2.5263,2.5348,2.5348,2.5324,2.5289,2.5023,2.4879,2.4723,2.4697,2.4637,2.4709,2.4685,2.4625,2.4625,2.4613,2.4504,2.4468,2.4528,2.4528,2.448,2.4383,2.4238,2.4094,2.4021,2.3844,2.3808,2.3852,2.384,2.384,2.384,2.384,2.384,2.384,2.384,2.384,2.384,2.384,2.384,2.384,2.424,2.4878,2.6847,2.8715,3.0593,3.213,3.3129,0.143,0.1262,0.0337,0.0,0.0,0.0,0.0,0.0,0.0,0.0,0.0,0.0,0.0,0.0,0.0427,0.0687,0.0864,0.1211,0.1996,0.2606,0.3464,0.4703,0.6223,0.7842,0.9026,1.0146,1.1005,1.1543,1.1538,1.1543,1.1543,1.1543,1.1538,1.1384,1.127,1.1172,1.1128,1.1166,1.1221,1.127,1.1281,1.1428,1.1555,1.1732,1.2431,1.2902,1.3224,1.3856,1.4299,1.4299,1.4299,1.4299,1.4299,1.4299,1.4387,1.4646,1.4734,1.5609,1.6928,1.8943,2.025,2.1379,2.2503,2.3031,2.3204,2.3634,2.3806,2.3892,2.4235,2.4578,2.4835,2.4921,2.4947,2.5095,2.4927,2.4807,2.4686,2.4685,2.4661,2.4771,2.4831,2.4819,2.4819,2.4939,2.4866,2.4745,2.4782,2.4709,2.4649,2.4564,2.4444,2.4275,2.4142,2.3928,2.3844,2.3796,2.384,2.384,2.384,2.384,2.384,2.384,2.384,2.384,2.384,2.384,2.384,2.392,2.424,2.5184,2.6833,2.8559,3.0268,3.1747,3.3044,0.1346,0.1178,0.0337,0.0,0.0,0.0,0.0,0.0,0.0,0.0,0.0,0.0,0.0,0.0,0.0258,0.0433,0.0524,0.0874,0.1317,0.1932,0.2714,0.4226,0.5751,0.7275,0.8812,1.0016,1.0921,1.1543,1.1543,1.1543,1.1543,1.1543,1.1543,1.1505,1.1335,1.1275,1.1248,1.1281,1.1324,1.1319,1.1401,1.1417,1.1378,1.1732,1.2267,1.2909,1.3123,1.3679,1.4299,1.4299,1.4299,1.4299,1.4299,1.4299,1.4299,1.4476,1.4878,1.5513,1.6414,1.7396,1.854,1.9323,2.0908,2.1638,2.1811,2.2071,2.2417,2.2675,2.3193,2.388,2.4321,2.4395,2.4764,2.4914,2.5047,2.4927,2.4915,2.4855,2.4855,2.5035,2.5071,2.5083,2.5083,2.5168,2.5252,2.5144,2.5035,2.4939,2.4854,2.4782,2.4661,2.4444,2.4238,2.4082,2.388,2.3784,2.384,2.384,2.384,2.384,2.384,2.384,2.384,2.384,2.384,2.384,2.384,2.392,2.424,2.4945,2.6201,2.8011,2.9881,3.1363,3.274,0.1346,0.1178,0.0337,0.0,0.0,0.0,0.0,0.0,0.0,0.0,0.0,0.0,0.0,0.0,0.0,0.0,0.0176,0.053,0.0977,0.1782,0.2748,0.4275,0.5981,0.7602,0.9032,1.0021,1.0921,1.1543,1.1543,1.1543,1.1543,1.1543,1.1543,1.1527,1.1511,1.1494,1.1483,1.1395,1.14,1.1467,1.1346,1.1319,1.1346,1.161,1.2138,1.262,1.311,1.3679,1.4122,1.4299,1.4299,1.4299,1.4299,1.4299,1.4299,1.4435,1.4888,1.5191,1.5614,1.6528,1.6752,1.7598,1.8708,1.9416,1.9979,2.0327,2.0761,2.1282,2.1888,2.2934,2.3709,2.4235,2.4664,2.4959,2.53,2.5264,2.5276,2.5264,2.5252,2.53,2.5288,2.5288,2.5264,2.5336,2.5324,2.5361,2.5264,2.5325,2.5228,2.5096,2.4927,2.4576,2.4371,2.4154,2.4009,2.3864,2.384,2.384,2.384,2.384,2.384,2.384,2.384,2.384,2.384,2.384,2.384,2.384,2.4,2.4866,2.5727,2.737,2.9245,3.0963,3.2266,0.1346,0.1178,0.0337,0.0,0.0,0.0,0.0,0.0,0.0,0.0,0.0,0.0,0.0,0.0,0.0,0.0,0.0,0.0447,0.0984,0.179,0.2948,0.4653,0.6267,0.7885,0.9224,1.0293,1.1099,1.1543,1.1543,1.1543,1.1543,1.1543,1.156,1.1554,1.1465,1.1549,1.1565,1.1471,1.1476,1.1516,1.1406,1.1389,1.1389,1.1649,1.2002,1.2485,1.304,1.3502,1.3945,1.4299,1.4299,1.4299,1.4299,1.4306,1.4326,1.4531,1.4868,1.5276,1.5383,1.5894,1.6227,1.6107,1.6886,1.7226,1.7856,1.8497,1.9108,1.9709,2.0501,2.1455,2.2675,2.3451,2.4235,2.4835,2.5177,2.5348,2.5348,2.5348,2.5348,2.5288,2.5288,2.5397,2.5324,2.5348,2.5348,2.5348,2.5384,2.5542,2.553,2.5385,2.5047,2.4782,2.4516,2.4287,2.4021,2.384,2.384,2.384,2.384,2.384,2.384,2.384,2.384,2.384,2.384,2.384,2.384,2.384,2.392,2.424,2.5104,2.6819,2.8544,3.0268,3.1824,0.1514,0.1178,0.0338,0.0,0.0,0.0,0.0,0.0,0.0,0.0,0.0,0.0,0.0,0.0,0.0,0.0,0.0,0.0538,0.1077,0.1973,0.323,0.502,0.663,0.8242,0.9491,1.056,1.1188,1.1543,1.1549,1.1549,1.1543,1.1549,1.1487,1.152,1.1547,1.159,1.1618,1.1574,1.1531,1.1476,1.1554,1.1554,1.1549,1.156,1.1999,1.2443,1.2881,1.3331,1.3856,1.421,1.4299,1.4299,1.4299,1.4306,1.4367,1.4482,1.4771,1.5049,1.5174,1.5448,1.561,1.5481,1.5499,1.5645,1.6141,1.6753,1.7447,1.8147,1.903,2.0076,2.1368,2.2578,2.3623,2.4566,2.5006,2.5348,2.5348,2.5348,2.53,2.5228,2.5301,2.5337,2.5361,2.5324,2.5348,2.5348,2.5396,2.5578,2.5578,2.5506,2.5168,2.4843,2.4673,2.4432,2.413,2.384,2.384,2.384,2.384,2.384,2.384,2.384,2.384,2.384,2.384,2.384,2.384,2.384,2.392,2.424,2.4639,2.5977,2.7698,2.9493,3.1055,0.1684,0.1265,0.0,0.0,0.0,0.0,0.0,0.0,0.0,0.0,0.0,0.0,0.0,0.0,0.0,0.0,0.0,0.0628,0.1346,0.2332,0.3855,0.5557,0.7167,0.8692,0.9871,1.0664,1.1204,1.1493,1.1465,1.1482,1.1504,1.1476,1.159,1.165,1.1661,1.1721,1.1748,1.1726,1.1629,1.1547,1.1525,1.1504,1.1571,1.1593,1.195,1.2396,1.2912,1.3344,1.3781,1.4129,1.4319,1.4326,1.4373,1.438,1.4455,1.4557,1.4797,1.492,1.5049,1.5245,1.5128,1.492,1.4726,1.4757,1.5245,1.5631,1.6313,1.7016,1.7893,1.9292,2.0588,2.1974,2.3095,2.4224,2.4921,2.5263,2.5348,2.5276,2.5204,2.5156,2.518,2.5204,2.5228,2.5277,2.5348,2.5348,2.5384,2.548,2.5578,2.5542,2.5301,2.4915,2.4661,2.4371,2.4069,2.384,2.384,2.384,2.384,2.384,2.384,2.384,2.384,2.384,2.384,2.384,2.384,2.384,2.384,2.392,2.448,2.5276,2.6768,2.8637,3.0438,0.1691,0.1194,0.0345,0.0,0.0,0.0,0.0,0.0,0.0,0.0,0.0,0.0,0.0,0.0,0.0,0.0,0.0,0.0808,0.1525,0.278,0.4214,0.6004,0.7713,0.9092,1.0351,1.1062,1.1514,1.1542,1.1509,1.1542,1.1596,1.1607,1.171,1.1775,1.1775,1.1841,1.1851,1.1857,1.1797,1.1732,1.1732,1.1732,1.1732,1.1721,1.1988,1.2379,1.2801,1.3214,1.3681,1.4162,1.4421,1.4509,1.4631,1.4624,1.4706,1.4835,1.4875,1.497,1.5072,1.5133,1.5018,1.4848,1.4719,1.4618,1.4682,1.4988,1.5447,1.6153,1.7032,1.8427,1.9979,2.1358,2.2751,2.388,2.4921,2.5177,2.5348,2.524,2.5047,2.4999,2.5023,2.5071,2.5096,2.5216,2.5288,2.5348,2.5348,2.5396,2.5432,2.5408,2.5168,2.4855,2.454,2.4226,2.3961,2.384,2.384,2.384,2.384,2.384,2.376,2.384,2.384,2.384,2.384,2.384,2.384,2.384,2.384,2.384,2.416,2.4878,2.5977,2.7619,2.9649,0.2126,0.12,0.0,0.0,0.0,0.0,0.0,0.0,0.0,0.0,0.0,0.0,0.0,0.0,0.0,0.0,0.0,0.0,0.1615,0.278,0.4483,0.6362,0.7997,0.9375,1.0516,1.1314,1.1484,1.1601,1.1563,1.165,1.1721,1.1737,1.183,1.1895,1.19,1.1933,1.1966,1.1982,1.1966,1.196,1.1938,1.1895,1.183,1.1819,1.19,1.2318,1.2847,1.3259,1.3758,1.426,1.4584,1.4624,1.4706,1.4713,1.4808,1.4909,1.497,1.5031,1.5133,1.514,1.5038,1.4841,1.4733,1.4645,1.4536,1.486,1.5216,1.5839,1.6113,1.7347,1.9494,2.1108,2.2578,2.3795,2.4726,2.5312,2.5301,2.5132,2.4842,2.4564,2.4709,2.4963,2.5035,2.5228,2.5276,2.5348,2.5348,2.553,2.5542,2.5348,2.5107,2.4855,2.4576,2.4202,2.3925,2.384,2.384,2.384,2.3796,2.3772,2.3772,2.376,2.384,2.384,2.384,2.384,2.384,2.384,2.384,2.384,2.408,2.448,2.566,2.6833,2.8637,0.2483,0.1206,0.0351,0.0,0.0,0.0,0.0,0.0,0.0,0.0,0.0,0.0,0.0,0.0,0.0,0.0,0.0,0.0,0.1615,0.269,0.4664,0.6362,0.7889,0.9335,1.053,1.1283,1.1522,1.1656,1.1667,1.177,1.1846,1.1862,1.1933,1.2009,1.2042,1.2096,1.214,1.2123,1.2123,1.2145,1.208,1.1982,1.1922,1.1884,1.1954,1.2409,1.3034,1.348,1.3846,1.429,1.4746,1.4808,1.4841,1.4869,1.4909,1.5004,1.5031,1.5086,1.5147,1.514,1.4977,1.4821,1.476,1.4665,1.455,1.4716,1.5075,1.5517,1.5883,1.6952,1.9111,2.0848,2.233,2.3795,2.4629,2.5216,2.5144,2.4999,2.4673,2.4311,2.4516,2.4818,2.5023,2.5216,2.5252,2.5324,2.5408,2.559,2.5602,2.5385,2.5156,2.4879,2.4626,2.4253,2.3985,2.3997,2.4057,2.3892,2.3916,2.3832,2.3772,2.3772,2.384,2.384,2.384,2.384,2.384,2.384,2.384,2.384,2.392,2.432,2.5356,2.6531,2.7855,0.2419,0.0791,0.0178,0.0,0.0,0.0,0.0,0.0,0.0,0.0,0.0,0.0,0.0,0.0,0.0,0.0,0.0,0.0988,0.1615,0.2511,0.4664,0.6362,0.7997,0.9676,1.075,1.1325,1.1699,1.1699,1.1786,1.1895,1.196,1.1966,1.2069,1.2123,1.2134,1.2167,1.215,1.2145,1.214,1.2134,1.2156,1.2107,1.2123,1.2107,1.2107,1.2696,1.3202,1.3444,1.3922,1.4448,1.4862,1.4964,1.5011,1.5038,1.5072,1.5079,1.5106,1.5126,1.516,1.5092,1.4923,1.4774,1.4706,1.4638,1.4604,1.4665,1.5112,1.5821,1.631,1.7307,1.9111,2.0607,2.206,2.3709,2.4909,2.4987,2.4939,2.4818,2.4625,2.4492,2.454,2.4794,2.5023,2.5216,2.53,2.5348,2.5348,2.553,2.553,2.5325,2.5168,2.5035,2.489,2.4458,2.4226,2.4347,2.4371,2.4169,2.4025,2.3928,2.3832,2.3772,2.384,2.384,2.384,2.384,2.384,2.384,2.384,2.384,2.384,2.416,2.5117,2.6228,2.7476]}]]